[[[{"header":{"parameterUnit":"kt","parameterCategory":2,"dx":1,"dy":1,"la1":29.285339999999998,"la2":30.599998999999997,"lo1":-89.70041500000002,"lo2":-87.6738589999976,"nx":112,"ny":82,"refTime":"2022-09-30T06:00:00:Z","depth":0,"parameterNumber":1,"parameterNumberName":"U-component_of_WINDS"},"data":[6.206,6.1897,6.2114,5.9418,5.8723,5.8644,5.8209,5.6536,5.5166,5.5451,5.2776,5.0728,5.1755,5.0497,4.9647,5.0674,4.9892,4.9261,0.0,5.085,5.148,5.0815,5.3176,5.6074,5.9224,6.1423,6.2431,6.2015,6.4176,6.4371,6.1568,6.068,6.028,6.028,5.8133,5.703,5.703,5.57,5.4993,5.5045,5.6383,5.742,5.8214,6.1007,6.2834,6.4042,6.6872,6.8485,6.922,7.1434,7.2506,7.2903,7.3633,7.389,7.3787,7.2936,7.1661,7.0375,7.0375,7.0926,7.1871,7.3402,7.3446,7.2763,7.2413,7.1828,7.101,6.9582,6.9185,6.8807,6.702,6.5525,6.4343,6.3591,6.3444,6.3444,6.3444,6.4488,6.5043,6.371,6.3444,6.2759,6.0609,6.028,6.028,6.028,6.028,5.9477,5.7286,5.703,5.6537,5.5149,5.4993,5.5145,5.5401,5.6455,5.7556,5.8642,5.9019,5.9435,6.0024,6.0043,6.0043,6.0043,5.9664,5.9191,5.8715,5.8343,5.7745,5.7004,5.7004,5.729,5.9459,5.8579,5.8374,5.6203,5.564,5.5644,5.5567,5.4473,5.3382,5.2887,5.1703,5.0418,4.9389,4.9483,4.9389,4.8337,4.8758,4.9202,0.0,5.0382,5.1504,5.2241,5.4461,5.7149,6.0277,6.2499,6.3485,6.3034,6.5573,6.6077,6.3657,6.2857,6.2464,6.2464,6.0359,5.9225,5.9225,5.7878,5.7204,5.7184,5.8589,5.9628,6.0409,6.3249,6.4924,6.5714,6.777,6.8858,6.9302,7.0706,7.1478,7.1875,7.2903,7.3352,7.3049,7.0449,6.8543,6.7248,6.7248,6.7724,6.8902,7.1845,7.1864,7.0811,7.1161,7.0776,7.0028,6.8952,6.8671,6.8508,6.7831,6.6601,6.5573,6.5573,6.5573,6.5573,6.5573,6.6671,6.7242,6.5861,6.5573,6.4924,6.2857,6.3053,6.3298,6.2562,6.2464,6.1723,5.9528,5.9225,5.8447,5.6286,5.6035,5.5784,5.5045,5.5487,5.6379,5.7781,5.837,5.8975,5.96,5.989,6.0043,6.0043,5.9664,5.9286,5.9079,5.8883,5.8575,5.8081,5.8548,5.8833,5.3501,5.1071,5.0023,4.768,4.7219,4.7701,4.9469,4.9823,4.9957,5.0611,5.0722,5.0418,4.9436,5.009,4.981,4.6907,4.8067,0.0,0.0,4.8231,5.0979,5.4961,5.6401,5.8289,6.1353,6.3598,6.519,6.6055,6.8017,6.8742,6.7714,6.5739,6.4634,6.4634,6.2611,6.1525,6.1525,6.1475,6.1426,6.1426,6.1475,6.2562,6.4537,6.4585,6.5739,6.7644,6.7644,6.8204,6.9139,6.9162,6.9769,7.0724,7.1728,7.2175,7.1332,6.4037,6.1296,6.1243,6.1243,6.275,6.5294,6.9416,6.9343,6.7914,6.8882,6.9162,6.8928,6.7924,6.7644,6.7644,6.7644,6.7644,6.7644,6.7644,6.7644,6.7644,6.7644,6.7644,6.7644,6.7644,6.7644,6.7004,6.4972,6.6314,6.6957,6.4946,6.4634,6.3883,6.1773,6.1525,6.0695,5.8466,5.8174,5.7317,5.5286,5.5045,5.5325,5.6116,5.767,5.8641,5.8693,5.9543,6.0005,6.0043,6.0043,5.974,5.9135,5.9891,6.0024,5.9531,6.0961,6.0951,5.0417,4.9994,5.0895,4.9507,5.0585,5.1913,5.1651,5.1015,5.0536,5.0685,5.0722,0.0,0.0,0.0,5.134,4.974,0.0,5.2111,5.0826,5.3713,5.6098,5.6472,5.8108,6.016,6.2502,6.526,6.6639,6.6103,6.8017,6.8742,6.7714,6.7099,6.6814,6.6814,6.4779,6.3688,6.3688,6.2168,6.1426,6.1426,6.2955,6.4003,6.4585,6.6123,6.7099,6.7644,6.7644,6.7807,6.8134,6.8882,6.8476,6.7468,6.8514,6.9393,6.9926,6.8584,6.7032,6.5559,6.5559,6.5991,6.6981,6.9814,6.9846,6.883,6.9133,6.8671,6.8017,6.7737,6.7644,6.7644,6.7644,6.7644,6.7644,6.7644,6.7644,6.7644,6.7644,6.7644,6.7644,6.7644,6.7644,6.7455,6.6862,6.7265,6.7455,6.6862,6.6814,6.6027,6.3954,6.3688,6.2884,6.0724,5.9084,5.7858,5.7317,5.5887,5.5126,5.5306,5.6303,5.7414,5.866,5.8934,5.9357,6.0043,6.0043,5.9967,5.9816,6.0573,6.0662,6.0089,6.1735,6.2267,4.7659,4.7243,4.8671,4.865,4.9769,5.0928,5.0987,5.085,5.0722,5.0722,0.0,0.0,0.0,0.0,0.0,0.0,5.2625,5.4166,5.1387,5.5326,5.8271,5.7664,6.023,6.2171,6.2499,6.5612,6.741,6.6803,6.8274,6.8742,6.7714,6.7644,6.7644,6.7644,6.648,6.5835,6.5835,6.4634,6.4051,6.4051,6.5284,6.5835,6.5861,6.7123,6.7644,6.7644,6.7644,6.7644,6.769,6.8298,6.7836,6.6697,6.6428,6.6195,6.6014,6.6625,6.5962,6.4789,6.4789,6.5413,6.621,6.6679,6.7008,6.7427,6.8292,6.8134,6.7644,6.7644,6.7644,6.7644,6.7644,6.7644,6.7644,6.7644,6.7644,6.7644,6.7644,6.7644,6.7644,6.7644,6.7644,6.7644,6.7644,6.7644,6.7644,6.7644,6.7644,6.7217,6.6027,6.5835,6.5027,6.2952,6.081,5.9134,5.8174,5.6241,5.4993,5.4993,5.5449,5.6253,5.7622,5.8323,5.9134,6.0043,6.0043,6.0043,6.0043,6.1256,6.1596,6.1263,6.2618,6.3036,4.4934,4.3718,4.485,4.6109,4.6655,4.7269,4.8835,0.0,5.0599,5.0615,0.0,5.2479,5.2479,0.0,0.0,4.9308,5.355,5.5607,5.0768,5.5233,5.9019,5.9019,6.2268,6.3926,6.2288,6.5377,6.7527,6.7644,6.8485,6.8625,6.7714,6.7644,6.7644,6.7644,6.7644,6.7644,6.7644,6.7644,6.7644,6.7644,6.7644,6.7644,6.7644,6.7644,6.7644,6.7644,6.7644,6.7644,6.7644,6.7644,6.7502,6.717,6.5525,6.3737,6.2119,6.2119,6.2119,6.2119,6.2119,6.3347,6.4585,6.271,6.3417,6.5236,6.7052,6.7644,6.7644,6.7644,6.7644,6.7644,6.7644,6.7644,6.7644,6.7644,6.7644,6.7644,6.7644,6.7644,6.7644,6.7644,6.7644,6.7644,6.7644,6.7644,6.7644,6.7644,6.7644,6.7644,6.7644,6.7644,6.6962,6.509,6.3045,6.0894,5.8667,5.6554,5.5266,5.5045,5.4993,5.53,5.6046,5.7562,5.8873,5.9891,5.9986,6.0043,6.0043,6.1636,6.2488,6.2577,6.3409,6.3516,4.1092,4.1508,4.355,4.3935,4.5445,4.7274,0.0,0.0,0.0,4.9775,5.1875,5.3704,5.3704,5.5871,5.7056,5.542,5.7587,5.8546,5.5817,5.9393,6.2268,6.2268,6.2969,6.3951,6.5121,6.5939,6.671,6.7597,6.7831,6.7877,6.7667,6.7644,6.7644,6.7644,6.7644,6.7644,6.7644,6.7644,6.7644,6.7644,6.7644,6.7644,6.7644,6.7644,6.7644,6.7644,6.7644,6.7644,6.7644,6.7644,6.6671,6.5284,6.6505,6.6814,6.6457,6.6457,6.6457,6.6457,6.6457,6.6719,6.6957,6.6576,6.6719,6.7123,6.7549,6.7644,6.7644,6.7644,6.7644,6.7644,6.7644,6.7644,6.7644,6.7644,6.7644,6.7644,6.7644,6.7644,6.7644,6.7644,6.7644,6.7644,6.7644,6.7644,6.7644,6.7644,6.7644,6.7644,6.7644,6.7644,6.7503,6.7056,6.5194,6.308,6.0965,5.8769,5.6782,5.5078,5.4993,5.5074,5.5235,5.6147,5.7374,5.8942,5.9682,6.0043,6.0043,6.1028,6.1889,6.2605,6.3409,6.4015,4.042,4.1115,4.3259,4.3259,4.5452,0.0,0.0,5.0331,5.142,5.0608,5.234,5.38,5.2938,5.5116,5.6696,5.5692,5.851,6.0464,5.9435,6.1563,6.318,6.318,6.4068,6.5028,6.5986,6.6546,6.7107,6.762,6.7644,6.7644,6.7644,6.7644,6.7644,6.7644,6.7644,6.7644,6.7644,6.7644,6.7644,6.7644,6.7644,6.7644,6.7644,6.7644,6.7644,6.7644,6.7644,6.7644,6.7644,6.7644,6.7004,6.6219,6.7242,6.7644,6.7644,6.7644,6.7644,6.7644,6.7644,6.7644,6.7644,6.7644,6.7644,6.7644,6.7644,6.7644,6.7644,6.7644,6.7644,6.7644,6.7644,6.7644,6.7644,6.7644,6.7644,6.7644,6.7644,6.7644,6.7644,6.7644,6.7644,6.7644,6.7644,6.7644,6.7644,6.7644,6.7644,6.7644,6.7644,6.7644,6.7644,6.7644,6.5765,6.371,6.1575,5.9401,5.7232,5.513,5.4993,5.4993,5.4993,5.578,5.6563,5.7431,5.875,5.9624,6.0043,6.0421,6.1332,6.2572,6.2967,6.3596,4.0363,4.1064,4.3116,4.3451,4.5976,0.0,4.8666,5.1255,5.3153,5.1704,5.3129,5.4171,5.265,5.4482,5.595,5.5065,5.8387,6.1246,6.1824,6.285,6.3554,6.3741,6.5144,6.6149,6.6406,6.7177,6.7644,6.7644,6.7644,6.7644,6.7644,6.7644,6.7644,6.7644,6.7644,6.7644,6.7644,6.7644,6.7644,6.7644,6.7644,6.7644,6.7644,6.7644,6.7644,6.7644,6.7644,6.7644,6.7644,6.7644,6.7644,6.7644,6.7644,6.7644,6.7644,6.7644,6.7644,6.7644,6.7644,6.7644,6.7644,6.7644,6.7644,6.7644,6.7644,6.7644,6.7644,6.7644,6.7644,6.7644,6.7644,6.7644,6.7644,6.7644,6.7644,6.7644,6.7644,6.7644,6.7644,6.7644,6.7644,6.7644,6.7644,6.7644,6.7644,6.7644,6.7644,6.7644,6.7644,6.7644,6.7644,6.7644,6.6171,6.4294,6.2217,6.0009,5.7902,5.5732,5.5253,5.4993,5.4993,5.5598,5.6002,5.6172,5.7499,5.8764,5.9775,5.9814,6.0665,6.2323,6.2541,6.3077,3.8716,4.0066,4.241,4.4245,4.66,0.0,4.9566,5.1276,5.2453,5.1793,5.4403,5.6504,5.5491,5.6969,5.831,5.8221,5.8664,5.9973,6.2633,6.3881,6.4863,6.5636,6.5939,6.6476,6.7387,6.7597,6.7644,6.7644,6.7644,6.7644,6.7644,6.7644,6.7644,6.7644,6.7644,6.7644,6.7644,6.7644,6.7644,6.7644,6.7644,6.7644,6.7644,6.7644,6.7644,6.7644,6.7644,6.7644,6.7644,6.7644,6.7644,6.7644,6.7644,6.7644,6.7644,6.7644,6.7644,6.7644,6.7644,6.7644,6.7644,6.7644,6.7644,6.7644,6.7644,6.7644,6.7644,6.7644,6.7644,6.7644,6.7644,6.7644,6.7644,6.7644,6.7644,6.7644,6.7644,6.7644,6.7644,6.7644,6.7644,6.7644,6.7644,6.7644,6.7644,6.7644,6.7644,6.7644,6.7644,6.7644,6.7644,6.7644,6.7455,6.6457,6.4343,6.2292,6.009,5.7889,5.6042,5.4993,5.4993,5.5107,5.5453,5.6174,5.6398,5.7255,5.8851,5.887,5.9729,6.1427,6.2196,6.3025,3.8888,4.0722,4.2984,4.4714,0.0,0.0,4.9416,5.0698,5.1894,5.1756,5.3693,5.5354,5.5146,5.7079,5.869,5.869,5.869,5.9732,6.2752,6.4068,6.4863,6.526,6.6312,6.7177,6.762,6.7644,6.7644,6.7644,6.7644,6.7644,6.7644,6.7644,6.7644,6.7644,6.7644,6.7644,6.7644,6.7644,6.7644,6.7644,6.7644,6.7644,6.7644,6.7644,6.7644,6.7644,6.7644,6.7644,6.7644,6.7644,6.7644,6.7644,6.7644,6.7644,6.7644,6.7644,6.7644,6.7644,6.7644,6.7644,6.7644,6.7644,6.7644,6.7644,6.7644,6.7644,6.7644,6.7644,6.7644,6.7644,6.7644,6.7644,6.7644,6.7644,6.7644,6.7644,6.7644,6.7644,6.7644,6.7644,6.7644,6.7644,6.7644,6.7644,6.7644,6.7644,6.7644,6.7644,6.7644,6.7644,6.7644,6.7644,6.7644,6.6814,6.4682,6.3729,6.1778,5.8346,5.7317,5.628,5.5045,5.4993,5.5145,5.5506,5.5908,5.6771,5.8029,5.8045,5.8619,5.9823,6.1706,6.3026,3.9079,0.0,0.0,0.0,0.0,0.0,5.0717,5.1977,5.3105,5.2869,5.4444,5.5812,5.5789,5.7366,5.8865,5.9414,5.975,6.0711,6.2863,6.4302,6.512,6.512,6.6593,6.7644,6.7644,6.7644,6.7644,6.7644,6.7644,6.7644,6.7644,6.7644,6.7644,6.7644,6.7644,6.7644,6.7644,6.7644,6.7644,6.7644,6.7644,6.7644,6.7644,6.7644,6.7644,6.7644,6.7644,6.7644,6.7644,6.7644,6.7644,6.7644,6.7644,6.7644,6.7644,6.7644,6.7644,6.7644,6.7644,6.7644,6.7644,6.7644,6.7644,6.7644,6.7644,6.7644,6.7644,6.7644,6.7644,6.7644,6.7644,6.7644,6.7644,6.7644,6.7644,6.7644,6.7644,6.7644,6.7644,6.7644,6.7644,6.7644,6.7644,6.7644,6.7644,6.7644,6.7644,6.7644,6.7644,6.7644,6.7644,6.7644,6.7644,6.7075,6.5525,6.4875,6.2955,5.9276,5.8468,5.7184,5.5097,5.4993,5.4993,5.4993,5.5582,5.6284,5.7192,5.7405,5.7936,5.8764,6.0906,6.2442,0.0,0.0,0.0,4.9174,5.1901,5.3636,5.4609,5.6139,5.703,5.5911,5.7917,5.9606,5.8751,5.8667,5.9326,6.1242,6.2388,6.3089,6.318,6.4841,6.6033,6.6033,6.7013,6.7644,6.7644,6.7644,6.7644,6.7644,6.7644,6.7644,6.7644,6.7644,6.7644,6.7644,6.7644,6.7644,6.7644,6.7644,6.7644,6.7644,6.7644,6.7644,6.7644,6.7644,6.7644,6.7644,6.7644,6.7644,6.7644,6.7644,6.7644,6.7644,6.7644,6.7644,6.7644,6.7644,6.7644,6.7644,6.7644,6.7644,6.7644,6.7644,6.7644,6.7644,6.7644,6.7644,6.7644,6.7644,6.7644,6.7644,6.7644,6.7644,6.7644,6.7644,6.7644,6.7644,6.7644,6.7644,6.7644,6.7644,6.7644,6.7644,6.7644,6.7644,6.7644,6.7644,6.7644,6.7644,6.7644,6.7644,6.7644,6.7644,6.7644,6.7596,6.7549,6.5669,6.3591,6.1475,5.9306,5.7184,5.5097,5.4993,5.4993,5.4993,5.5012,5.5449,5.6193,5.7116,5.7933,5.8714,5.97,6.105,4.1176,4.3106,4.553,5.1097,5.186,5.197,5.4757,5.4836,5.4919,5.6915,5.8516,5.9789,6.0522,6.0874,6.1365,6.2458,6.2382,6.2639,6.3998,6.4769,6.5401,6.6009,6.7013,6.7644,6.7644,6.7644,6.7644,6.7644,6.7644,6.7644,6.7644,6.7644,6.7644,6.7644,6.7644,6.7644,6.7644,6.7644,6.7644,6.7644,6.7644,6.7644,6.7644,6.7644,6.7644,6.7644,6.7644,6.7833,6.8186,6.8186,6.8186,6.8186,6.8186,6.8186,6.8139,6.7809,6.7856,6.8139,6.7738,6.7644,6.7644,6.7644,6.7644,6.7644,6.7644,6.7644,6.7644,6.7644,6.7644,6.7644,6.7644,6.7644,6.7644,6.7644,6.7644,6.7644,6.7644,6.7644,6.7644,6.7644,6.7644,6.7644,6.7644,6.7644,6.7644,6.7644,6.7644,6.7644,6.7644,6.7644,6.7644,6.7644,6.7644,6.7644,6.7644,6.7004,6.5717,6.3591,6.1525,5.9326,5.7184,5.5732,5.4993,5.4993,5.4993,5.5126,5.5411,5.6246,5.7062,5.7971,5.8752,6.006,4.1709,4.4088,4.6767,5.158,5.2551,5.3069,5.6102,5.6101,5.6199,5.8787,6.0006,6.0851,6.1672,6.2039,6.2317,6.2763,6.2141,6.2078,6.3434,6.4277,6.4933,6.5518,6.6826,6.7644,6.7644,6.7644,6.7644,6.7644,6.7644,6.7644,6.7644,6.7644,6.7644,6.7644,6.7644,6.7644,6.7644,6.7644,6.7644,6.7644,6.7644,6.7644,6.7644,6.7644,6.7644,6.7667,6.7833,6.8233,6.8703,6.8703,6.8703,6.8703,6.8703,6.8703,6.8656,6.8327,6.8421,6.8656,6.8327,6.7691,6.7194,6.7974,6.7691,6.7194,6.7738,6.7927,6.7903,6.7714,6.7644,6.7644,6.7644,6.7644,6.7644,6.7644,6.7644,6.7644,6.7644,6.7644,6.7644,6.7644,6.7644,6.7644,6.7644,6.7644,6.7644,6.7644,6.7644,6.7644,6.7644,6.7644,6.7644,6.7644,6.7644,6.7644,6.7644,6.7644,6.641,6.3591,6.2857,6.0858,5.7184,5.6434,5.5784,5.5045,5.4993,5.4993,5.4993,5.5809,5.6645,5.7553,5.8315,5.9622,4.0792,4.4252,4.8002,5.09,5.3905,5.6602,5.8484,5.9703,6.0606,6.1401,6.2306,6.2872,6.2338,6.2276,6.2252,6.2233,6.1953,6.1696,6.1743,6.3455,6.4698,6.4744,6.6429,6.7574,6.7574,6.762,6.7644,6.7644,6.7644,6.7644,6.7644,6.7644,6.7644,6.7644,6.7644,6.7644,6.7644,6.7644,6.7644,6.7644,6.7644,6.7644,6.7644,6.7644,6.7714,6.7762,6.8233,6.8749,6.9241,6.9241,6.9241,6.9241,6.9241,6.9241,6.9241,6.9194,6.9241,6.9241,6.9077,6.7739,6.6412,6.8398,6.7715,6.6364,6.7974,6.8468,6.8327,6.7856,6.7714,6.7691,6.7644,6.7644,6.7714,6.7644,6.7644,6.7644,6.7644,6.7644,6.7644,6.7644,6.7644,6.7644,6.7644,6.7644,6.7644,6.7644,6.7644,6.7667,6.7737,6.7737,6.7737,6.7737,6.7737,6.7714,6.7644,6.7644,6.5931,6.1872,6.3347,6.1603,5.5441,5.6979,5.703,5.5045,5.4993,5.4993,5.4993,5.5772,5.6588,5.7477,5.8258,5.953,4.3822,4.6947,4.9264,5.2323,5.4207,5.6048,5.8716,5.9561,6.0352,6.2584,6.3206,6.3356,6.3205,6.3205,6.3102,6.283,6.2702,6.2878,6.3663,6.3927,6.43,6.5077,6.5981,6.6453,6.6453,6.72,6.7644,6.7644,6.7644,6.7644,6.7644,6.7644,6.7644,6.7644,6.7644,6.7644,6.7644,6.7644,6.7644,6.7644,6.7644,6.7644,6.7644,6.7644,6.8092,6.8796,6.896,6.9287,6.9776,6.9776,6.9776,6.9776,6.9776,6.9776,6.9706,6.9334,6.9427,6.952,6.755,6.6507,6.6173,6.672,6.6507,6.6459,6.8398,6.9007,6.889,6.8374,6.8515,6.8609,6.7833,6.7951,6.8139,6.7738,6.7644,6.7644,6.7644,6.7644,6.7644,6.7644,6.7644,6.7644,6.7644,6.7644,6.7644,6.7644,6.7644,6.7924,6.8695,6.8812,6.8812,6.8812,6.8812,6.8485,6.7714,6.7644,6.6505,6.3905,6.2759,6.073,5.7471,5.6331,5.5545,5.5045,5.4993,5.4993,5.4993,5.5202,5.5734,5.655,5.7404,5.8408,4.289,4.7114,5.0559,5.2482,5.4657,5.6745,5.8413,5.9141,6.0345,6.3289,6.349,6.3279,6.3806,6.3735,6.3482,6.3271,6.3084,6.3172,6.3769,6.3987,6.4312,6.4881,6.5428,6.5722,6.5722,6.6475,6.699,6.699,6.7387,6.7644,6.7644,6.7644,6.7644,6.7644,6.7644,6.7644,6.7644,6.7644,6.7762,6.7998,6.8233,6.8327,6.8327,6.8327,6.8749,6.952,6.952,6.9845,7.0354,7.0354,7.0354,7.0354,7.0354,7.0354,7.0308,7.0006,7.0052,6.996,6.7621,6.6173,6.5406,6.5406,6.4805,6.4563,6.7361,6.8186,6.8233,6.8656,6.896,6.9054,6.8468,6.8374,6.8327,6.8045,6.7809,6.7738,6.8233,6.8327,6.8327,6.8327,6.8327,6.8469,6.894,6.8821,6.8819,6.9265,6.9143,6.9209,6.9769,6.9863,6.9676,6.9232,6.9631,6.9255,6.7784,6.8064,6.7228,6.4704,6.3466,6.1405,5.8265,5.6979,5.5939,5.5045,5.4993,5.4993,5.4993,5.4993,5.5411,5.6174,5.7081,5.7971,4.1393,4.6808,5.1731,5.2187,5.5144,5.7959,5.8081,5.8838,6.0424,6.3662,6.3279,6.2742,6.3906,6.389,6.3669,6.3669,6.338,6.3169,6.3169,6.3874,6.4405,6.4405,6.4898,6.5204,6.5204,6.5741,6.6053,6.6007,6.6966,6.7504,6.7457,6.7644,6.7738,6.7738,6.7738,6.7738,6.7738,6.7738,6.7998,6.8421,6.896,6.9194,6.9194,6.9334,6.9659,7.0101,7.0101,7.0354,7.0765,7.0765,7.0765,7.0765,7.0765,7.0765,7.0765,7.0765,7.0765,7.0444,6.8374,6.6268,6.4537,6.4537,6.3102,6.2119,6.5863,6.6982,6.729,6.889,6.938,6.938,6.9241,6.889,6.8609,6.8562,6.8186,6.8068,6.9007,6.9194,6.9194,6.9194,6.9194,6.948,7.0388,7.0269,7.0431,7.1373,7.1171,7.0922,7.0963,7.0963,7.0636,6.9676,7.0449,7.0192,6.8228,6.8742,6.7897,6.4928,6.4604,6.259,5.8315,5.8112,5.7133,5.5045,5.4993,5.4993,5.4993,5.4993,5.5354,5.6022,5.691,5.78,4.7178,5.0253,5.221,5.3144,5.567,5.8154,5.9033,5.9336,6.0424,6.3662,6.2734,6.162,6.2693,6.3628,6.4196,6.4196,6.4179,6.4137,6.4137,6.3904,6.3748,6.3748,6.4281,6.4666,6.4666,6.5531,6.5925,6.5497,6.6418,6.6823,6.6382,6.7575,6.828,6.828,6.828,6.828,6.828,6.828,6.8327,6.8421,6.896,6.9194,6.9241,7.0099,7.056,7.0606,7.0606,7.0674,7.0765,7.0765,7.0765,7.0765,7.0765,7.0765,7.0765,7.0765,7.0765,7.0444,6.8374,6.6268,6.4537,6.4537,6.3102,6.2168,6.6245,6.7503,6.7857,6.9403,7.0145,7.0283,6.9427,6.9474,6.9637,6.9194,6.9007,6.8983,6.9194,6.9194,6.9194,6.9194,6.9194,6.9242,6.9433,7.0126,7.0816,7.1448,7.1466,7.1575,7.1972,7.2039,7.1968,7.1781,7.1922,7.1548,7.0332,6.9559,6.8245,6.5961,6.5032,6.259,5.8315,5.8112,5.7133,5.5045,5.4993,5.4993,5.4993,5.4993,5.5069,5.5221,5.6056,5.6891,4.6436,5.0198,5.3031,5.3522,5.6219,5.8569,5.7897,5.8653,6.0107,6.2197,6.1327,6.0717,6.2287,6.306,6.3596,6.4248,6.4346,6.4346,6.4346,6.4112,6.3987,6.3987,6.4025,6.404,6.404,6.4784,6.5186,6.4922,6.5896,6.6592,6.6885,6.7635,6.8297,6.8843,6.8843,6.8843,6.8843,6.8843,6.896,6.9241,6.9474,6.9752,7.0052,7.0536,7.0765,7.0765,7.0765,7.0765,7.0765,7.0765,7.0765,7.0765,7.0765,7.0765,7.0765,7.0765,7.0765,7.0444,6.8374,6.6982,6.5982,6.4875,6.3857,6.364,6.6745,6.7645,6.8045,6.9843,7.056,7.0628,7.0145,6.9984,6.9916,6.9659,6.9845,7.0006,7.0006,7.0006,7.0006,7.0006,7.0006,7.0175,7.0731,7.1698,7.2616,7.3458,7.3345,7.326,7.3502,7.3572,7.3462,7.3269,7.3671,7.3189,7.1289,7.1218,7.0208,6.7872,6.6224,6.3725,6.0,5.9829,5.8336,5.5045,5.4993,5.4993,5.4993,5.4993,5.4993,5.5012,5.5776,5.6664,4.5829,5.0451,5.4256,5.4492,5.6892,5.8726,5.7239,5.8238,5.9555,5.9936,5.9911,6.0238,6.1653,6.2498,6.3182,6.3857,6.4199,6.4346,6.4346,6.4346,6.4346,6.4346,6.3987,6.3735,6.3735,6.4211,6.4434,6.4329,6.5287,6.62,6.6947,6.7255,6.7898,6.9021,6.9045,6.9165,6.938,6.938,6.9567,6.9962,7.0077,7.04,7.0765,7.0765,7.0765,7.0765,7.0765,7.0765,7.0765,7.0765,7.0765,7.0765,7.0765,7.0765,7.0765,7.0765,7.0765,7.0536,6.8888,6.7998,6.7361,6.5742,6.4924,6.4924,6.703,6.7645,6.8068,7.0143,7.0765,7.0765,7.0765,7.0422,7.0169,7.0169,7.0468,7.0765,7.0765,7.0765,7.0765,7.0765,7.0765,7.1107,7.2136,7.3163,7.4238,7.5282,7.5205,7.4967,7.4837,7.4837,7.4682,7.4375,7.4996,7.4579,7.2517,7.2843,7.2122,6.9824,6.7843,6.5147,6.1568,6.0979,5.9125,5.5732,5.5253,5.4993,5.4993,5.4993,5.4993,5.5012,5.5658,5.6493,5.0359,5.3937,5.6213,5.7271,5.7835,5.8252,5.8994,5.9336,5.8921,5.7019,5.8911,6.0668,5.9936,6.2181,6.3882,6.2913,6.3621,6.4346,6.4346,6.4346,6.4346,6.4346,6.4304,6.4262,6.4262,6.4335,6.4175,6.3687,6.4591,6.5112,6.482,6.6058,6.729,6.8444,6.8514,6.8927,6.9891,6.9916,6.9962,6.9962,7.0468,7.0719,7.0765,7.0765,7.0765,7.0765,7.0765,7.0765,7.0765,7.0765,7.0765,7.0765,7.0765,7.0765,7.0765,7.0765,7.0765,7.0719,7.0536,6.9238,6.7598,6.7432,6.6054,6.4924,6.703,6.7645,6.8068,7.0143,7.0765,7.0765,7.0765,7.0719,7.0674,7.0674,7.0719,7.0765,7.0765,7.0765,7.0765,7.0765,7.0765,7.1107,7.2136,7.3163,7.4237,7.5407,7.5958,7.6008,7.5399,7.5348,7.5324,7.533,7.5351,7.5327,7.5085,7.3873,7.2578,7.1395,6.9797,6.6664,6.1617,5.9528,5.8214,5.7878,5.599,5.4993,5.4993,5.4993,5.4993,5.4993,5.5069,5.6014,4.8574,5.2092,5.4421,5.486,5.5934,5.697,5.7409,5.7669,5.7732,5.7313,5.8441,5.9511,5.9472,6.0546,6.1693,6.2433,6.2986,6.3523,6.4248,6.4346,6.4346,6.4346,6.4346,6.4346,6.4346,6.4346,6.4262,6.4029,6.4442,6.4867,6.5351,6.5917,6.6708,6.7801,6.8457,6.8946,6.9383,7.0106,7.0422,7.0422,7.0652,7.0765,7.0765,7.0765,7.0765,7.0765,7.0765,7.0765,7.0765,7.0765,7.0765,7.0765,7.0765,7.0765,7.0765,7.0765,7.0765,7.0765,7.0765,7.0189,6.9517,6.9517,6.8959,6.8467,6.9285,6.9517,6.9656,7.0536,7.0765,7.0765,7.0765,7.0765,7.0765,7.0765,7.0765,7.0765,7.0765,7.0765,7.0765,7.0765,7.0765,7.1257,7.2943,7.3602,7.4481,7.6262,7.6472,7.6311,7.6032,7.6008,7.6109,7.6436,7.6487,7.6335,7.6032,7.5421,7.3724,7.0559,6.9347,6.6312,6.0911,5.9411,5.7929,5.628,5.5441,5.5149,5.5479,5.5479,5.5479,5.5479,5.5479,5.5935,4.7062,5.0499,5.302,5.3579,5.4853,5.6065,5.6299,5.6393,5.6783,5.7855,5.8545,5.9002,5.9165,5.97,6.0507,6.1657,6.2246,6.2889,6.3694,6.4126,6.4346,6.4346,6.4346,6.4346,6.4346,6.4346,6.4346,6.4346,6.4346,6.4663,6.5378,6.5427,6.5915,6.6945,6.7701,6.8364,6.8997,6.9844,7.0402,7.0765,7.0765,7.0765,7.0765,7.0765,7.0765,7.0765,7.0765,7.0765,7.0765,7.0765,7.0765,7.0765,7.0765,7.0765,7.0765,7.0765,7.0765,7.0765,7.0765,7.0765,7.0765,7.0765,7.0327,6.9958,7.0582,7.0351,6.9958,7.0582,7.0765,7.0765,7.0765,7.0765,7.0765,7.0765,7.0765,7.0765,7.0765,7.0765,7.0765,7.0765,7.1034,7.1794,7.3553,7.4163,7.4993,7.6872,7.6839,7.6638,7.6638,7.6638,7.6739,7.7115,7.7165,7.699,7.6638,7.6487,7.4594,7.0345,6.9215,6.6598,6.2083,5.9452,5.7612,5.6454,5.5512,5.5356,5.6048,5.5842,5.5809,5.5809,5.5809,5.592,4.7178,5.0334,5.292,5.4723,5.5393,5.5817,5.6585,5.6256,5.631,5.8128,5.9324,5.9743,5.872,6.0198,6.1267,6.0247,6.1492,6.258,6.2604,6.3596,6.4346,6.4346,6.4346,6.4346,6.4346,6.4346,6.4346,6.4346,6.4346,6.4346,6.4346,6.4346,6.4834,6.5866,6.5915,6.6921,6.8997,6.9022,6.9603,7.0765,7.0765,7.0765,7.0765,7.0765,7.0765,7.0765,7.0765,7.0765,7.0765,7.0765,7.0765,7.0765,7.0765,7.0765,7.0765,7.0765,7.0765,7.0765,7.0765,7.0765,7.0765,7.0765,6.9378,6.8045,7.0143,6.9331,6.8139,7.0189,7.0765,7.0765,7.0765,7.0765,7.0765,7.0765,7.0765,7.0765,7.0765,7.0765,7.0765,7.0765,7.1599,7.2601,7.37,7.4846,7.597,7.6994,7.7165,7.7165,7.7165,7.7165,7.7165,7.7165,7.7165,7.7165,7.7165,7.6688,7.4921,7.1513,6.9971,6.8122,6.5772,5.9335,5.7109,5.9791,5.6659,5.5512,5.6576,5.6048,5.5809,5.5809,5.5809,5.592,4.6738,4.9444,5.1611,5.2977,5.3939,5.5071,5.7082,5.7399,5.7421,5.7978,5.8148,5.8114,5.7766,5.892,6.0013,6.041,6.067,6.1356,6.2814,6.4066,6.4751,6.4373,6.5376,6.5623,6.4471,6.5376,6.5582,6.4405,6.5417,6.5582,6.4405,6.4346,6.4492,6.4834,6.5524,6.6574,6.7945,6.8632,6.9579,7.0765,7.0765,7.0765,7.0765,7.0765,7.0765,7.0765,7.0765,7.0765,7.0765,7.0765,7.0765,7.0765,7.0765,7.0765,7.0765,7.0765,7.0765,7.0765,7.0765,7.0765,7.0765,7.0765,7.0281,6.9912,7.0582,7.0281,6.9912,7.0582,7.0765,7.0765,7.0765,7.0765,7.0765,7.0765,7.0765,7.0765,7.0765,7.0765,7.0765,7.0765,7.1599,7.2673,7.37,7.4822,7.597,7.6994,7.7165,7.7165,7.7165,7.7165,7.7165,7.7165,7.7165,7.7165,7.7165,7.699,7.5637,7.2616,7.0294,6.7595,6.4407,5.9753,5.7338,5.7601,5.6235,5.61,5.7243,5.7058,5.7007,5.7007,5.6544,5.6184,4.6769,4.9383,5.1405,5.246,5.2977,5.3995,5.6903,5.7569,5.7534,5.7357,5.7471,5.7442,5.7067,5.8253,5.9515,6.0178,6.066,6.1453,6.2832,6.4524,6.5681,6.5956,6.715,6.7552,6.6503,6.7231,6.7311,6.6285,6.715,6.7015,6.5376,6.5293,6.4987,6.4388,6.4981,6.5817,6.6847,6.792,6.8994,7.0088,7.0524,7.0765,7.0765,7.0765,7.0765,7.0765,7.0765,7.0765,7.0765,7.0765,7.0765,7.0765,7.0765,7.0765,7.0765,7.0765,7.0765,7.0765,7.0765,7.0765,7.0765,7.0765,7.0259,6.9726,7.0536,7.0189,6.9773,7.0536,7.0765,7.0765,7.0765,7.0765,7.0765,7.0765,7.0143,6.9819,7.0582,6.9517,6.8865,7.0444,7.1283,7.2159,7.3604,7.5164,7.6434,7.7067,7.7165,7.7165,7.7165,7.7165,7.7165,7.7165,7.7165,7.7165,7.7165,7.7165,7.6034,7.3337,7.0543,6.7462,6.3982,6.109,5.8839,5.7283,5.6441,5.6647,5.7825,5.7621,5.755,5.7499,5.7141,5.6628,4.7126,4.9752,5.1869,5.274,5.2623,5.3108,5.6228,5.6939,5.6861,5.6481,5.7191,5.7569,5.6587,5.8148,5.9608,5.9683,6.1268,6.2605,6.2907,6.5206,6.7264,6.8569,6.9574,7.0049,6.9814,6.9581,6.9347,6.9229,6.9308,6.8654,6.6985,6.6863,6.6115,6.4405,6.4346,6.4859,6.5866,6.6921,6.7945,6.8945,7.0109,7.0692,7.0811,7.0765,7.0765,7.0765,7.0765,7.0765,7.0765,7.0765,7.0765,7.0765,7.0765,7.0765,7.0765,7.0765,7.0765,7.0765,7.0765,7.0765,7.0765,7.0765,6.9424,6.8233,7.0143,6.9378,6.828,7.0189,7.0765,7.0765,7.0765,7.0765,7.0765,7.0765,6.9285,6.8374,7.0167,6.7503,6.5956,6.9869,7.0698,7.1444,7.3631,7.5749,7.7165,7.7165,7.7165,7.7165,7.7165,7.7165,7.7165,7.7165,7.7165,7.7115,7.694,7.694,7.5933,7.359,7.0514,6.7462,6.448,6.2826,6.0822,5.8375,5.7212,5.7192,5.8304,5.7825,5.7601,5.7601,5.755,5.7192,4.6478,4.8209,4.9797,5.1717,5.3976,5.5973,5.6787,5.6939,5.6939,5.6861,5.7004,5.7106,5.6852,5.7907,5.9062,5.996,6.1991,6.3726,6.4584,6.874,7.1215,7.0101,7.2138,7.2623,7.0049,7.0892,7.093,6.9308,7.0408,6.9893,6.7025,6.6863,6.6115,6.4405,6.4346,6.4859,6.5866,6.6921,6.7755,6.8444,6.91,7.005,7.1199,7.0903,7.0765,7.0765,7.0765,7.0765,7.0765,7.0765,7.0765,7.0765,7.0765,7.0765,7.0765,7.0765,7.0765,7.0765,7.0765,7.0765,7.0765,7.0765,7.0444,7.0097,7.0582,7.0373,7.0143,7.0628,7.0765,7.0765,7.0765,7.0765,7.0765,7.0765,7.0373,6.9726,6.8608,6.7621,6.7452,6.9223,7.0207,7.168,7.4651,7.6312,7.7165,7.7165,7.7165,7.7165,7.7165,7.7165,7.7165,7.7165,7.7165,7.6463,7.4664,7.4511,7.3539,7.1309,6.8189,6.5838,6.4377,6.1246,5.9149,5.8324,5.7672,5.7621,5.8304,5.8202,5.8151,5.8151,5.7723,5.7448,4.636,4.8445,5.0412,5.1607,5.3286,5.4753,5.5228,5.577,5.5999,5.5457,5.5762,5.5999,5.5431,5.6702,5.814,5.9293,6.1971,6.4393,6.5742,6.8947,7.1413,7.2252,7.3618,7.4228,7.3579,7.3647,7.3275,7.2131,7.2933,7.2308,6.9789,6.8759,6.7552,6.6081,6.4963,6.4698,6.543,6.7415,6.845,6.8486,6.933,7.0301,7.1311,7.1107,7.1016,7.1016,7.1016,7.1178,7.136,7.1107,7.1016,7.1016,7.0811,7.0857,7.1016,7.1016,7.1178,7.136,7.1132,7.1016,7.0995,7.0811,7.0857,7.0995,7.0811,7.0857,7.0995,7.0811,7.0765,7.0811,7.0995,7.0903,7.0765,7.0765,7.0004,6.9052,6.7904,6.6887,6.6806,6.8785,7.0007,7.1775,7.504,7.6457,7.7165,7.7165,7.7165,7.7165,7.7165,7.7165,7.7165,7.7165,7.7165,7.6688,7.5402,7.4282,7.3177,7.1936,6.7372,6.4137,6.2895,6.1474,5.9952,5.8375,5.8029,5.8029,5.8304,5.8304,5.8304,5.8304,5.8029,5.7876,4.674,4.9436,5.1912,5.1912,5.2008,5.2389,5.3265,5.4237,5.4695,5.3875,5.4491,5.4906,5.39,5.5635,5.7413,5.8165,6.1431,6.4592,6.6663,6.8455,7.0828,7.423,7.4522,7.5297,7.7435,7.6369,7.5458,7.5422,7.5422,7.4682,7.2988,7.1235,6.9697,6.8404,6.6381,6.545,6.5876,6.8426,6.9582,6.9344,7.0228,7.0976,7.1563,7.1518,7.1448,7.1448,7.1448,7.17,7.2087,7.1654,7.1448,7.1427,7.1086,7.1153,7.1448,7.1448,7.177,7.2042,7.1609,7.1402,7.129,7.0903,7.1016,7.129,7.0949,7.1062,7.129,7.104,7.0949,7.104,7.129,7.1062,7.0765,7.0398,6.8935,6.7456,6.6817,6.5287,6.4995,6.8342,6.966,7.1453,7.521,7.6605,7.7165,7.7165,7.7165,7.7165,7.7165,7.7165,7.7165,7.7165,7.7165,7.704,7.6688,7.4511,7.3108,7.2997,6.6898,6.2575,6.0912,6.1878,6.1158,5.8375,5.8304,5.8304,5.8304,5.8304,5.8304,5.8304,5.8304,5.8304,4.7738,5.0081,5.1912,5.1912,5.2561,5.3265,5.3411,5.3595,5.3951,5.4771,5.5084,5.5135,5.4982,5.6743,5.8038,5.7286,6.0281,6.3965,6.7801,7.1442,7.3959,7.457,7.5547,7.6215,7.6308,7.6057,7.5771,7.5422,7.5422,7.4682,7.2988,7.258,7.1662,7.0082,6.9656,6.9683,7.0201,7.0257,7.0707,7.1589,7.1351,7.1728,7.2634,7.2178,7.1997,7.1997,7.1997,7.2042,7.2133,7.2042,7.1997,7.1997,7.1951,7.1951,7.1997,7.1997,7.2042,7.2087,7.1997,7.17,7.129,7.0903,7.1016,7.1336,7.129,7.129,7.1427,7.1815,7.1906,7.1815,7.1427,7.129,7.0716,6.8608,6.7904,6.6674,6.3129,6.2119,6.306,6.7114,6.8037,7.0021,7.5932,7.7043,7.7165,7.7165,7.7165,7.7165,7.7165,7.7165,7.7165,7.7165,7.7165,7.6362,7.4385,7.2168,7.0558,6.9755,6.512,6.165,5.9934,6.0077,5.9622,5.8324,5.8304,5.8304,5.8304,5.8304,5.8304,5.8304,5.8304,5.8304,4.8301,5.0208,5.2033,5.2586,5.3113,5.3436,5.3436,5.3436,5.3621,5.4128,5.4263,5.4263,5.4263,5.5609,5.6956,5.7657,6.0376,6.3552,6.69,6.9814,7.233,7.4366,7.457,7.5257,7.7171,7.673,7.6254,7.6048,7.6048,7.57,7.4927,7.3818,7.2979,7.2468,7.1104,7.1142,7.2821,7.2607,7.2957,7.3906,7.2652,7.2876,7.4343,7.3078,7.2519,7.2519,7.2519,7.2724,7.2949,7.2679,7.2519,7.2519,7.2248,7.2268,7.2519,7.2519,7.2724,7.2949,7.2949,7.2634,7.2087,7.1634,7.1815,7.2158,7.1836,7.1951,7.2268,7.2814,7.2564,7.2158,7.2178,7.0946,6.9447,6.8327,6.6982,6.5252,6.2735,6.4015,6.5804,6.6435,6.8475,7.1212,7.4659,7.53,7.573,7.699,7.7165,7.7165,7.7165,7.7165,7.7165,7.7165,7.7165,7.6739,7.5656,7.19,6.894,6.7319,6.3693,6.1,5.9744,5.9704,5.923,5.8324,5.8304,5.8304,5.8304,5.8304,5.8304,5.8304,5.8304,5.8304,5.0047,0.0,5.3297,5.3786,5.4126,5.419,0.0,5.3695,5.3856,5.363,5.3501,5.3468,5.3566,5.4481,5.5948,5.8273,6.0534,6.3012,6.5943,6.7573,6.9881,7.3722,7.3872,7.4768,7.7798,7.7152,7.66,7.66,7.66,7.66,7.66,7.5071,7.4421,7.4804,7.2877,7.2775,7.4768,7.4804,7.5184,7.5942,7.4578,7.453,7.5735,7.4343,7.3461,7.3039,7.3039,7.3289,7.3627,7.3244,7.3039,7.3039,7.2634,7.2699,7.3039,7.3039,7.3333,7.3671,7.3671,7.3333,7.2814,7.2429,7.2564,7.2814,7.2429,7.2679,7.3154,7.3582,7.3084,7.2564,7.2814,7.0833,6.8701,6.8467,6.6507,6.4366,6.3041,6.5369,6.7292,6.5955,6.8363,7.1103,7.263,7.3332,7.4282,7.6109,7.6839,7.7165,7.7165,7.7165,7.7165,7.7165,7.7165,7.694,7.6412,7.1845,6.789,6.5227,6.2305,6.0328,5.937,5.9382,5.9008,5.8324,5.8304,5.8304,5.8304,5.8304,5.8304,5.8304,5.8304,5.8304,0.0,5.6106,5.6693,5.553,5.6183,5.6434,5.3992,5.4376,0.0,5.4184,5.3695,5.3566,5.3921,5.4678,5.6036,5.8605,6.0025,6.2127,6.6115,6.6754,6.8313,7.2368,7.4884,7.6425,7.6716,7.6658,7.66,7.66,7.66,7.66,7.66,7.643,7.636,7.6395,7.6254,7.6254,7.6395,7.6395,7.6821,7.7584,7.7459,7.6952,7.6175,7.6003,7.5082,7.3627,7.3627,7.3627,7.3671,7.3627,7.3627,7.3627,7.3582,7.3582,7.3627,7.3627,7.3627,7.3671,7.3671,7.3333,7.2904,7.2859,7.2859,7.2904,7.2859,7.3199,7.3627,7.3671,7.3627,7.3448,7.3019,7.129,6.9469,6.8608,6.6792,6.4805,6.3142,6.3052,6.376,6.5398,6.5972,6.7075,7.0077,7.2324,7.3717,7.3923,7.5781,7.7165,7.7165,7.7165,7.7165,7.7165,7.7165,7.6311,7.4077,7.0898,6.7316,6.3431,6.101,5.935,5.8445,5.8405,5.8364,5.8304,5.8304,5.8304,5.8304,5.8304,5.8304,5.8304,5.8304,5.8304,5.7949,5.7976,5.7261,5.7045,5.7167,5.6893,5.5054,5.5238,5.5364,5.3985,5.3759,5.3792,5.3695,5.3922,5.5487,5.9745,6.0018,6.1732,6.7539,6.7626,6.7916,7.033,7.2692,7.4797,7.6425,7.66,7.66,7.66,7.66,7.66,7.66,7.66,7.66,7.66,7.66,7.66,7.66,7.66,7.7158,7.8215,7.7921,7.7978,7.8324,7.6828,7.5856,7.5169,7.411,7.3671,0.0,7.3671,7.3671,7.3671,7.3671,7.3671,7.3671,7.3671,7.3671,7.3671,7.3671,7.3538,7.3378,7.3378,7.3378,7.3378,7.3378,7.3538,7.3671,7.3671,7.3671,7.3627,7.3448,7.1584,6.9699,6.9374,6.7244,6.5062,6.4205,6.4885,6.5419,6.4539,6.5543,6.6922,6.8103,6.9608,7.1332,7.3342,7.5105,7.6458,7.7067,7.7165,7.7165,7.7165,7.7165,7.5443,7.115,6.7389,6.4033,6.1113,5.9604,5.8666,5.8324,5.8304,5.8304,5.8304,5.8304,5.8304,5.8304,5.8304,5.8304,5.8304,5.8304,5.8304,6.0594,5.9913,5.884,5.8721,5.878,5.8426,5.6706,5.6859,5.6828,5.4954,5.47,5.4579,5.4056,5.3888,5.5514,6.0684,6.0334,6.175,6.8612,6.8367,6.8239,7.0379,7.1956,7.3857,7.6338,7.66,7.66,7.66,7.66,7.66,7.66,7.66,7.66,7.66,7.66,7.66,7.66,7.66,7.7239,7.8554,7.8575,7.9009,7.966,7.8463,7.7303,7.6132,7.4977,7.4154,7.3671,7.3671,7.3671,7.3671,7.3671,7.3671,7.3671,7.3671,7.3671,7.3671,7.3671,7.3671,7.3671,7.3671,7.3671,7.3671,7.3671,7.3671,7.3671,7.3671,7.3671,7.3671,7.3671,7.1856,7.016,7.0689,6.87,6.6443,6.5492,6.6248,6.6246,6.3318,6.4039,6.5348,6.595,6.7063,6.903,7.2649,7.3634,7.4741,7.6917,7.6513,7.6362,7.7115,7.6273,7.3348,6.7602,6.4552,6.1909,5.9385,5.8646,5.8304,5.8304,5.8304,5.8304,5.8304,5.8304,5.8304,5.8304,5.8304,5.8304,5.8304,5.8304,5.8304,6.2276,6.2196,6.1891,6.0598,6.1247,6.1529,5.8898,5.9336,5.9626,5.7403,5.6675,5.6125,5.5206,5.4784,5.628,6.1397,6.0988,6.2413,6.9051,6.8775,6.9189,7.2814,7.3264,7.4155,7.6344,7.657,7.66,7.66,7.66,7.66,7.66,7.66,7.66,7.66,7.66,7.66,7.66,7.66,7.7239,7.8525,7.987,8.0196,7.975,8.1059,7.9671,7.6235,7.6218,7.5257,7.3671,7.3671,7.3671,7.3671,7.3671,7.3671,7.3671,7.3671,7.3671,7.3671,7.3671,7.3671,7.3671,7.3671,7.3671,7.3671,7.3671,7.3671,7.3671,7.3671,7.3671,7.3671,7.3671,7.2133,7.0991,7.2519,7.1311,6.9196,6.6976,6.6445,6.5391,6.171,6.1053,6.165,6.3628,6.4912,6.714,7.1416,7.109,7.1966,7.6513,7.5073,7.4487,7.6815,7.4246,6.9857,6.3535,6.2959,6.1636,5.8497,5.8304,5.8304,5.8304,5.8304,5.8304,5.8304,5.8304,5.8304,5.8304,5.8304,5.8304,5.8304,5.8304,5.8304,6.2736,6.2465,6.2167,6.1943,6.2055,6.1751,6.0086,6.0114,5.977,5.7079,5.7324,5.7324,5.5164,5.5332,5.7337,6.1867,6.14,6.2867,6.9727,6.9433,6.9197,7.0992,7.2606,7.3755,7.4213,7.5662,7.66,7.66,7.685,7.6885,7.66,7.66,7.66,7.66,7.66,7.66,7.66,7.66,7.6774,7.7181,7.9398,8.0397,8.028,8.1216,8.1072,7.9876,7.7303,7.5873,7.5388,7.4154,7.3671,7.3671,7.3671,7.3671,7.3671,7.3671,7.3671,7.3671,7.3671,7.3671,7.3671,7.3671,7.3671,7.3671,7.3671,7.3671,7.3671,7.3671,7.3671,7.3671,7.3671,7.3199,7.2859,7.3333,7.1563,6.9289,6.7414,6.5673,6.3758,6.1467,6.1053,6.1374,6.2551,6.372,6.5395,6.8125,6.8974,7.0027,7.2105,7.1217,7.0658,7.1326,6.8021,6.5053,6.3103,6.0962,5.931,5.8375,5.8304,5.8304,5.8304,5.8304,5.8304,5.8304,5.8304,5.8304,5.8304,5.8304,5.8304,5.8304,5.8304,5.8304,6.2949,6.2763,6.2547,6.2709,6.2628,6.2302,6.1525,6.144,6.0965,5.8782,5.9045,5.9045,5.6886,5.7072,5.8873,6.3035,6.3002,6.4438,7.0153,7.0205,7.0014,7.104,7.2781,7.3965,7.4033,7.586,7.7019,7.685,7.7059,7.7094,7.685,7.6816,7.6746,7.66,7.66,7.66,7.66,7.66,7.66,7.6629,7.9223,8.0481,8.0532,8.1998,8.229,8.1543,7.9341,7.7557,7.6132,7.5108,7.4262,7.3671,7.3671,7.3671,7.3671,7.3671,7.3671,7.3671,7.3671,7.3671,7.3671,7.3671,7.3671,7.3671,7.3671,7.3671,7.3671,7.3671,7.3671,7.3671,7.3671,7.3671,7.3671,7.3671,7.1861,6.952,6.7462,6.5215,6.3013,6.0988,6.0383,6.0804,6.2472,6.2957,6.4006,6.6797,6.6871,6.7205,6.903,6.8023,6.7463,6.8366,6.4074,6.1105,6.1105,5.9381,5.8304,5.8304,5.8304,5.8304,5.8304,5.8304,5.8304,5.8304,5.8304,5.8304,5.8304,5.8304,5.8304,5.8304,5.8304,5.8304,6.2976,6.2976,6.2976,6.2976,6.2976,6.2976,6.2976,6.2976,6.2653,6.1471,6.1303,6.0938,5.9538,5.9477,6.0824,6.4505,6.5237,6.6619,7.0424,7.0964,7.1321,7.2234,7.3478,7.4525,7.5252,7.6808,7.7608,7.7337,7.7268,7.7268,7.7273,7.7233,7.699,7.66,7.66,7.66,7.66,7.66,7.66,7.6629,7.9223,8.0481,8.0569,8.3024,8.3343,8.1891,8.1703,7.9671,7.6407,7.6278,7.5213,7.3671,7.3671,7.3671,7.3671,7.3671,7.3671,7.3671,7.3671,7.3671,7.3671,7.3671,7.3671,7.3671,7.3671,7.3671,7.3671,7.3671,7.3671,7.3671,7.3671,7.3671,7.3671,7.3671,7.2087,6.9932,6.748,6.5264,6.3048,6.0656,5.9601,6.002,6.2815,6.2459,6.3043,6.6399,6.4817,6.4158,6.6844,6.5259,6.468,6.6671,6.1759,5.8355,5.8304,5.8304,5.8304,5.8304,5.8304,5.8304,5.8304,5.8304,5.8304,5.8304,5.8304,5.8304,5.8304,5.8304,5.8304,5.8304,5.8304,5.8304,6.2976,6.2976,6.2976,6.2976,6.2976,6.2976,6.2976,6.2976,6.2653,6.1471,6.1968,6.1941,5.9683,6.0944,6.2966,6.4828,6.5965,6.7646,7.0544,7.0964,7.1413,7.2636,7.3667,7.4721,7.5861,7.705,7.7848,7.8058,7.7814,7.778,7.8058,7.7509,7.699,7.66,7.66,7.66,7.66,7.66,7.66,7.6629,7.9223,8.0481,8.0569,8.3024,8.3994,8.3538,8.225,8.0395,7.8231,7.6792,7.5213,7.3671,7.3671,7.3671,7.3671,7.3671,7.3671,7.3671,7.3671,7.3671,7.3671,7.3671,7.3671,7.3671,7.3671,7.3671,7.3671,7.3671,7.3671,7.3671,7.3671,7.3671,7.3671,7.3671,7.2087,7.03,6.9326,6.6295,6.3466,6.2513,6.0892,6.0011,6.0948,6.1856,6.2559,6.2958,6.3098,6.3291,6.3618,6.1919,6.0752,6.0888,5.9735,5.8741,5.8355,5.8304,5.8304,5.8304,5.8304,5.8304,5.8304,5.8304,5.8304,5.8304,5.8304,5.8304,5.8304,5.8304,5.8304,5.8304,5.8304,5.8304,6.2976,6.2976,6.2976,6.2976,6.2976,6.2976,6.2976,6.2976,6.2964,6.2986,6.3493,6.3756,6.3137,6.4126,6.5471,6.6769,6.7567,6.8693,7.0694,7.0964,7.1652,7.3597,7.4275,7.5245,7.7047,7.7812,7.8258,7.836,7.8262,7.8296,7.8499,7.8024,7.7475,7.6885,7.685,7.6781,7.66,7.66,7.66,7.6629,7.9223,8.0481,8.0569,8.3024,8.4148,8.411,8.3225,8.1835,8.0109,7.8273,7.646,7.4783,7.4002,7.3671,7.3671,7.3671,7.3671,7.3671,7.3671,7.3671,7.3671,7.3671,7.3671,7.3671,7.3671,7.3671,7.3671,7.3671,7.3671,7.3671,7.3671,7.3671,7.3671,7.3671,7.2859,7.17,7.0414,6.7307,6.4578,6.3874,6.2179,6.0943,6.1185,6.1795,6.2158,6.1606,6.2154,6.229,6.1381,6.0404,5.98,5.9844,5.9378,5.8974,5.869,5.8436,5.8304,5.8304,5.8304,5.8304,5.8304,5.8304,5.8304,5.8304,5.8304,5.8304,5.8304,5.8304,5.8304,5.8304,5.8304,5.8304,6.2976,6.2976,6.2976,6.2976,6.2976,6.2976,6.2976,6.2976,6.3335,6.4651,6.4921,6.5369,6.6774,6.7252,6.782,6.9109,6.9348,6.9797,7.1114,7.1084,7.1921,7.4554,7.4821,7.5771,7.8193,7.86,7.8604,7.8398,7.8634,7.8705,7.8705,7.8465,7.8024,7.7406,7.7337,7.7094,7.6676,7.6635,7.66,7.66,7.899,8.0132,8.0219,8.2509,8.3664,8.3867,8.3867,8.3024,8.1543,8.0027,7.8105,7.6046,7.4677,7.3913,7.3671,7.3671,7.3671,7.3671,7.3671,7.3671,7.3671,7.3671,7.3671,7.3671,7.3671,7.3671,7.3671,7.3671,7.3671,7.3671,7.3671,7.3671,7.3671,7.3671,7.3671,7.3199,7.1472,6.9059,6.684,6.5371,6.3658,6.2282,6.1858,6.2014,6.1933,6.1224,6.1614,6.1559,6.0279,6.0125,6.0225,6.0505,5.9752,5.9126,5.8994,5.8538,5.8304,5.8304,5.8304,5.8304,5.8304,5.8304,5.8304,5.8304,5.8304,5.8304,5.8304,5.8304,5.8304,5.8304,5.8304,5.8304,6.2976,6.2976,6.2976,6.2976,6.2976,6.2976,6.2976,6.2976,6.3335,6.4651,6.4921,6.5369,6.6774,6.8,6.9168,7.0485,7.0695,7.1143,7.246,7.1652,7.1921,7.4554,7.4821,7.5868,7.8432,7.8705,7.8705,7.8672,7.8705,7.8705,7.8705,7.8465,7.8292,7.816,7.7848,7.7504,7.7065,7.6746,7.66,7.66,7.8089,7.8787,7.8845,8.0307,8.1587,8.2635,8.2635,8.2258,8.1623,8.1382,7.9258,7.6175,7.5916,7.4977,7.3671,7.3671,7.3671,7.3671,7.3671,7.3671,7.3671,7.3671,7.3671,7.3671,7.3671,7.3671,7.3671,7.3671,7.3671,7.3671,7.3671,7.3671,7.3671,7.3671,7.3671,7.3582,7.3289,7.294,7.1578,6.7904,6.5593,6.3468,6.1224,6.197,6.2346,6.0949,6.1472,6.1843,6.1289,6.1234,6.0884,6.0074,5.9823,5.9419,5.8507,5.8355,5.8304,5.8304,5.8304,5.8304,5.8304,5.8304,5.8304,5.8304,5.8304,5.8304,5.8304,5.8304,5.8304,5.8304,5.8304,5.8304,6.2976,6.2976,6.2976,6.2976,6.2976,6.2976,6.2976,6.2976,6.3601,6.5696,6.6116,6.6774,6.8839,6.9707,7.0306,7.0874,7.0964,7.1143,7.1712,7.1293,7.1921,7.4554,7.4821,7.5868,7.8466,7.8705,7.8705,7.8705,7.8705,7.8705,7.8705,7.8604,7.8567,7.8567,7.8258,7.8019,7.7819,7.7233,7.6816,7.66,7.7914,7.8525,7.8583,7.9863,8.0772,8.1325,8.1325,8.1204,8.083,7.8919,7.7216,7.561,7.4334,7.3349,7.2782,7.3443,7.3671,7.3671,7.3671,7.2833,7.1817,7.2478,7.2706,7.2833,7.3494,7.3671,7.3671,7.3671,7.3671,7.3671,7.3671,7.3671,7.3671,7.3671,7.3671,7.3671,7.3671,7.2769,7.1233,6.8893,6.5826,6.3099,6.1368,6.1643,6.187,6.1197,6.1422,6.1627,6.1425,6.1411,6.1134,6.0426,6.0024,5.9571,5.8842,5.8507,5.8304,5.8304,5.8304,5.8304,5.8304,5.8304,5.8304,5.8304,5.8304,5.8304,5.8304,5.8304,5.8304,5.8304,5.8304,5.8304,6.2883,6.2976,6.2976,6.2976,6.2976,6.2976,6.2976,6.2976,6.3661,6.6026,6.6802,6.7762,7.0036,7.0695,7.1084,7.1413,7.1143,7.1054,7.1413,7.1143,7.1772,7.4075,7.4374,7.536,7.7991,7.8227,7.8227,7.8227,7.8227,7.8376,7.8705,7.8705,7.8705,7.8705,7.8533,7.8398,7.836,7.775,7.7233,7.674,7.763,7.806,7.8089,7.9019,7.963,7.9987,7.9987,8.0161,8.0268,7.7746,7.6177,7.5232,7.3515,7.228,7.1588,7.2478,7.2782,7.2782,7.2782,7.1639,7.0318,7.1182,7.1487,7.1639,7.2528,7.2782,7.2782,7.2782,7.2986,7.324,7.324,7.3443,7.3671,7.3671,7.3671,7.3671,7.3671,7.2042,7.0312,6.9556,6.6144,6.3114,6.2362,6.1759,6.1411,6.1411,6.1411,6.1411,6.1411,6.1411,6.1184,6.0505,6.0125,5.9621,5.8944,5.8538,5.8304,5.8304,5.8304,5.8304,5.8304,5.8304,5.8304,5.8304,5.8304,5.8304,5.8304,5.8304,5.8304,5.8304,5.8304,5.8304,6.2644,6.2976,6.2976,6.2976,6.2976,6.2976,6.2976,6.2976,6.3365,6.4741,6.6116,6.7491,6.8839,7.0126,7.1353,7.2609,7.1742,7.1383,7.2609,7.1712,7.1443,7.2819,7.2998,7.4015,7.6645,7.6885,7.6885,7.6885,7.6885,7.7423,7.8679,7.8705,7.8705,7.8705,7.8705,7.86,7.836,7.8326,7.7887,7.7134,7.6833,7.6687,7.6687,7.6774,7.7443,7.8612,7.8612,7.931,8.0481,8.0268,7.8318,7.5388,7.5311,7.3198,7.0293,7.0344,7.0344,7.0344,7.0344,7.0293,7.0191,7.0242,7.0267,7.0293,7.0344,7.0344,7.0344,7.0344,7.1156,7.202,7.202,7.2833,7.3671,7.3671,7.3671,7.3671,7.3671,7.2042,7.0554,7.049,6.7218,6.4458,6.4365,6.2704,6.1411,6.1411,6.1411,6.1411,6.1411,6.1411,6.1034,6.0024,5.9873,5.947,5.8457,5.8355,5.8304,5.8304,5.8304,5.8304,5.8304,5.8304,5.8304,5.8304,5.8304,5.8304,5.8304,5.8304,5.8304,5.8304,5.8304,5.8304,6.0347,6.1091,6.1746,6.1746,6.2348,6.2976,6.2976,6.2976,6.3335,6.4651,6.531,6.6357,6.86,6.9408,7.0126,7.1413,7.1263,7.1084,7.1562,7.1233,7.1413,7.2729,7.2909,7.3597,7.536,7.4793,7.4644,7.5449,7.5539,7.5718,7.6197,7.7034,7.7483,7.7483,7.832,7.8672,7.86,7.8398,7.8087,7.7539,7.6914,7.66,7.66,7.66,7.6832,7.7268,7.7268,7.7565,7.7794,7.5694,7.4144,7.2928,7.1553,7.0288,6.9251,6.9937,7.0191,6.9988,6.854,6.8057,6.8159,6.8921,6.9175,6.9302,6.9988,7.0191,7.0191,7.0191,7.0471,7.0801,7.0801,7.1131,7.1411,7.1411,7.1411,7.1411,7.1411,6.8926,6.6683,6.6683,6.3956,6.1648,6.1648,6.1551,6.1411,6.1411,6.0902,6.0782,6.1348,6.1411,6.1034,5.9974,5.9894,5.9419,5.8406,5.8304,5.8304,5.8304,5.8304,5.8304,5.8304,5.8304,5.8304,5.8304,5.8304,5.8304,5.8304,5.8304,5.8304,5.8304,5.8304,5.8304,5.8977,5.9719,6.0373,6.0373,6.1387,6.2314,6.2314,6.2674,6.3242,6.4083,6.4621,6.5489,6.7313,6.8031,6.8779,7.0096,7.0306,7.0455,7.0904,7.0964,7.1293,7.2131,7.222,7.2759,7.4075,7.3028,7.2789,7.4105,7.4195,7.4343,7.4791,7.5659,7.6107,7.6107,7.7393,7.8047,7.8047,7.8328,7.8326,7.7951,7.7297,7.6984,7.6984,7.685,7.6781,7.6781,7.667,7.66,7.6395,7.4284,7.2729,7.1582,7.0219,6.8978,6.8108,6.8794,6.9073,6.8845,6.7371,6.6863,6.699,6.7778,6.8032,6.8159,6.8845,6.9073,6.9073,6.9073,6.9353,6.9658,6.9658,6.9912,7.0191,7.0191,7.0191,6.9996,6.9372,6.6784,6.4355,6.3722,6.1447,5.9593,5.9593,6.0075,6.0499,6.0499,6.0272,6.0187,6.0457,6.0754,6.0697,5.9953,5.9894,5.9419,5.8406,5.8304,5.8304,5.8304,5.8304,5.8304,5.8304,5.8304,5.8304,5.8304,5.8304,5.8304,5.8304,5.8304,5.8304,5.8304,5.8304,5.8304,5.8618,5.8977,5.9036,5.9036,6.0014,6.0968,6.0968,6.1955,6.2883,6.2943,6.3933,6.4831,6.4921,6.6056,6.7431,6.8719,6.8929,6.9408,7.0725,7.0874,7.0934,7.0964,7.0964,7.1473,7.2729,7.1682,7.1472,7.2729,7.2849,7.3387,7.4642,7.4761,7.4761,7.4761,7.6047,7.6735,7.6735,7.7991,7.8481,7.8236,7.7892,7.7716,7.7711,7.7371,7.7169,7.7134,7.6746,7.66,7.66,7.6494,7.4602,7.1689,7.1614,6.9646,6.6863,6.6863,6.6863,6.6863,6.6863,6.6863,6.6863,6.6863,6.6863,6.6863,6.6863,6.6863,6.6863,6.6863,6.7676,6.8565,6.8565,6.9302,7.0047,6.9979,7.0005,6.9485,6.7669,6.5735,6.381,6.2076,6.0077,5.868,5.868,5.8675,5.8675,5.8675,5.9444,5.9657,5.876,5.9466,5.9938,5.9808,5.9832,5.9378,5.8365,5.8284,5.8304,5.8304,5.8304,5.8304,5.8304,5.8304,5.8304,5.8304,5.8304,5.8304,5.8304,5.8304,5.8304,5.8304,5.8304,5.8304,5.6161,5.6968,5.7686,5.7686,5.8673,5.963,5.963,5.9899,6.0437,6.1387,6.1865,6.2703,6.4591,6.5502,6.6306,6.743,6.7783,6.8261,6.9377,6.9557,6.9887,7.0844,7.0964,7.1084,7.1443,7.1143,7.1114,7.1443,7.1472,7.1652,7.1981,7.2909,7.3447,7.3447,7.4704,7.536,7.536,7.5718,7.6213,7.6776,7.6706,7.7008,7.7775,7.7642,7.744,7.7134,7.6746,7.66,7.6395,7.4057,7.256,7.15,6.9126,6.7658,6.6863,6.6863,6.6863,6.6863,6.6863,6.6863,6.6863,6.6863,6.6863,6.6863,6.6863,6.6863,6.6863,6.6863,6.7092,6.7346,6.7346,6.7575,6.7423,6.6129,6.5836,6.5307,6.3473,6.1635,6.0183,5.965,5.8552,5.7703,5.7703,5.8277,5.8675,5.8675,5.834,5.7839,5.7252,5.8295,5.8758,5.8015,5.8489,5.8485,5.7438,5.7922,5.8304,5.8304,5.8304,5.8304,5.8304,5.8304,5.8304,5.8304,5.8304,5.8304,5.8304,5.8304,5.8304,5.8304,5.8304,5.8304,5.5227,5.5742,5.634,5.634,5.7327,5.8259,5.8259,5.8708,5.9305,6.0074,6.0224,6.0852,6.2916,6.3577,6.44,6.613,6.6512,6.705,6.8173,6.8268,6.866,6.9976,6.9647,6.9528,7.0096,7.0156,7.0366,7.0934,7.0964,7.0964,7.0964,7.1652,7.2071,7.2071,7.3357,7.4014,7.4014,7.4552,7.5114,7.5635,7.5442,7.5789,7.6524,7.6361,7.646,7.6754,7.6825,7.674,7.643,7.4558,7.3405,7.2533,6.9906,6.8508,6.7766,6.6636,6.6203,6.6279,6.6711,6.6863,6.6863,6.6863,6.6863,6.6863,6.6863,6.6863,6.6863,6.6863,6.6863,6.6863,6.6863,6.6863,6.6391,6.4591,6.4151,6.344,6.0865,5.9456,5.8469,5.7695,5.7119,5.6773,5.6773,5.7219,5.7534,5.7534,5.7113,5.6589,5.6058,5.7229,5.7751,5.669,5.7373,5.7541,5.6442,5.6876,5.7177,5.7177,5.7177,5.7177,5.7177,5.7177,5.7177,5.7177,5.7177,5.7177,5.7177,5.7177,5.7379,5.7741,5.7741,5.754,5.5168,5.5227,5.5227,5.5227,5.5951,5.6759,0.0,5.7835,5.8708,5.8827,5.8857,5.9271,6.0578,6.1149,6.2232,6.4635,6.5232,6.5774,6.7045,6.7031,6.731,6.8478,6.7551,6.7313,6.866,6.8779,6.9288,7.0425,7.0515,7.0515,7.0515,7.0665,7.0755,7.0755,7.1981,7.2669,7.2669,7.3836,7.4462,7.4644,7.4265,7.4354,7.4821,7.4503,7.4937,7.5997,7.6577,7.6621,7.6198,7.582,7.4836,7.3408,7.1522,7.0083,6.8717,6.6086,6.511,6.5277,6.6152,6.6482,6.6482,6.6482,6.6482,6.6482,6.6482,6.6584,6.6685,6.6685,6.6762,6.6863,6.6863,6.6742,6.6106,6.43,6.3691,6.2573,5.915,5.8381,5.7917,5.6284,5.5989,5.5989,5.5989,5.5989,5.5944,5.5899,5.5944,5.5808,5.5285,5.6367,5.6828,5.583,5.6367,5.6474,5.5612,5.5568,5.558,5.558,5.558,5.558,5.558,5.558,5.558,5.558,5.558,5.558,5.558,5.558,5.5982,5.6815,5.6815,5.6393,0.0,0.0,0.0,0.0,0.0,0.0,0.0,5.5772,5.625,5.7327,5.7512,5.7925,5.9241,6.0553,6.1604,6.2142,6.3377,6.4635,6.5744,6.5843,6.5905,6.6149,6.5686,6.5906,6.7311,6.7432,6.7551,6.782,6.782,6.782,6.782,6.8809,6.9378,6.9378,7.0635,7.1323,7.1323,7.1562,7.222,7.3268,7.3174,7.3773,7.4821,7.4757,7.4687,7.4634,7.4742,7.4493,7.3724,7.0967,6.9689,6.9112,6.6264,6.5746,6.6348,6.4572,6.3891,6.3916,6.412,6.4196,6.4196,6.4196,6.4196,6.4196,6.4196,6.4856,6.5633,6.5633,6.6228,6.6863,6.6863,6.5794,6.4217,6.2403,6.0821,5.915,5.698,5.6509,5.6419,5.608,5.5989,5.5989,5.5989,5.5989,5.5854,5.5422,5.5718,5.5808,5.5285,5.5796,5.5993,5.5375,5.5088,5.5039,5.5119,5.5419,5.558,5.558,5.558,5.558,5.558,5.558,5.558,5.558,5.558,5.558,5.558,5.558,5.5709,5.589,5.589,5.5789,0.0,0.0,0.0,0.0,0.0,0.0,0.0,0.0,0.0,0.0,0.0,5.6579,5.7895,0.0,5.9703,6.0366,6.1801,6.305,6.3581,6.4116,6.4162,6.339,6.3083,6.3754,6.5816,6.5397,6.5577,6.6982,6.7072,6.7072,6.7072,6.7701,6.8031,6.8031,6.9288,6.9976,6.9976,7.0605,7.1293,7.1921,7.1921,7.225,7.2909,7.2909,7.3144,7.3552,7.3232,7.3293,7.3425,7.1536,7.0305,6.9151,6.3954,6.2419,6.3048,6.2796,6.2684,6.2761,6.3357,6.3535,6.3535,6.3535,6.3535,6.3535,6.3535,6.398,6.4424,6.4424,6.4806,6.5212,6.5212,6.4955,6.4033,6.1223,6.0279,5.9325,5.6577,5.5989,5.5989,5.5989,5.5989,5.5989,5.5989,5.5562,5.5323,5.5564,5.5808,5.5718,5.49,5.5264,5.524,5.4215,5.4078,5.4032,5.4037,5.42,5.4348,5.4348,5.4348,5.4348,5.4348,5.4348,5.4348,5.4348,5.4348,5.4348,5.4348,5.4348,5.4522,5.4876,5.2978,5.2326,0.0,0.0,0.0,0.0,0.0,0.0,0.0,0.0,0.0,0.0,0.0,0.0,0.0,0.0,0.0,5.892,6.0361,6.1359,6.1359,6.2117,6.221,6.0891,6.0955,6.1918,6.3963,6.3425,6.3901,6.6086,6.6265,6.6265,6.6265,6.6533,6.6654,6.6654,6.7941,6.863,6.863,6.9677,7.0336,7.0605,7.0605,0.0,7.0964,7.0964,7.1532,7.2489,7.1958,7.2296,7.3145,7.2792,7.1584,6.937,6.3244,6.0607,6.0334,6.1212,6.1505,6.1631,6.2595,6.2938,6.2938,6.2938,6.2938,6.2938,6.2938,6.3053,0.0,6.323,6.3383,6.3535,6.3535,6.3753,6.3189,6.0161,5.9598,5.8997,5.6039,5.5436,5.5436,5.5436,5.5436,5.5455,5.5647,5.4859,5.4473,5.5429,5.5429,5.507,5.4519,5.4643,5.4395,5.3296,5.3434,5.348,5.3085,5.318,5.32,5.3039,5.318,5.3281,5.3281,5.3281,5.32,5.3085,5.3085,5.3005,5.2777,5.2642,5.3059,5.3884,4.9933,4.8476,0.0,0.0,0.0,0.0,0.0,0.0,0.0,0.0,0.0,0.0,0.0,0.0,0.0,0.0,0.0,0.0,5.8879,5.9753,5.9753,6.0043,6.0129,5.9703,6.0676,6.1385,6.1473,6.2404,6.3123,6.3422,6.3452,6.3452,6.3452,6.4532,0.0,0.0,0.0,6.7281,6.7281,6.7431,6.8061,6.9228,6.9228,6.9827,7.0964,7.0964,7.1054,7.1143,7.1113,7.0929,7.0742,7.0493,6.8574,6.5618,6.3894,6.1991,6.0295,6.0396,6.0447,6.0473,6.06,0.0,0.0,6.0625,6.0625,6.0625,6.0625,6.1263,6.2012,6.2012,6.2761,6.3535,6.3535,6.1351,5.8994,5.8563,5.6155,5.3889,5.348,5.3415,5.3415,5.3415,5.3415,5.367,5.4475,5.3838,5.339,5.3989,5.3421,5.3265,5.4287,5.3745,5.3379,5.3583,5.3639,0.0,5.3085,5.3697,5.3818,5.3125,5.3697,5.4092,5.4092,5.4092,5.3777,5.3105,5.3085,5.2682,5.1831,5.1045,5.1529,5.3113,4.8374,4.6262,0.0,0.0,0.0,0.0,0.0,0.0,0.0,0.0,0.0,0.0,0.0,0.0,0.0,0.0,0.0,0.0,5.7613,5.7969,5.6217,5.7307,5.8294,5.8373,5.8707,5.9263,6.0063,5.9791,6.0224,6.1746,6.1865,6.2195,6.2943,6.3512,6.3784,6.3784,6.51,6.5818,6.5818,6.6653,6.7341,6.7881,6.7881,6.818,6.8689,6.8689,6.8689,6.8661,6.8362,6.8138,6.8012,6.7889,6.6265,6.3728,0.0,0.0,0.0,0.0,5.8909,5.8909,5.8909,5.8769,5.8584,5.8584,5.8478,5.8337,5.8337,5.909,5.9906,5.9906,6.0729,6.1418,6.0427,5.9584,5.8474,5.6428,5.5279,5.4355,5.329,5.3054,5.3054,5.3054,5.3054,0.0,5.2884,5.2332,5.2203,5.2935,5.255,5.2243,5.2503,5.2168,5.1864,5.1742,5.1737,5.1648,5.1468,5.179,0.0,0.0,0.0,5.1967,5.1967,5.1967,0.0,0.0,0.0,5.1293,4.9323,4.9504,0.0,0.0,4.497,4.3361,0.0,0.0,0.0,0.0,0.0,0.0,0.0,0.0,0.0,0.0,0.0,0.0,0.0,0.0,0.0,0.0,5.5492,5.5795,5.338,5.4884,5.6303,5.6469,5.6988,5.7775,5.883,5.8237,5.8563,6.0343,6.0493,6.0912,6.1869,6.2228,6.2464,6.2464,6.3365,6.4023,6.4382,6.5068,6.5756,6.6475,6.6475,6.6654,6.7043,6.6698,6.6554,6.6498,6.5749,6.5422,6.5415,6.5372,6.4133,6.2178,6.034,5.8937,5.7939,5.7939,5.7939,5.7939,5.7939,5.7736,5.7497,5.7497,5.7386,5.7214,5.7077,5.7603,5.8195,5.8124,5.8709,5.9077,5.7829,5.7508,5.6912,5.4597,5.4004,5.3618,5.2564,5.2332,5.2332,5.2332,5.1929,5.1462,5.1017,5.0706,5.0836,5.1756,5.1457,5.1069,5.0933,5.0703,5.0468,5.0364,5.0341,5.0341,5.0341,5.0582,5.0623,5.0361,5.0582,5.0602,5.0361,5.0582,5.0703,5.0703,5.1126,4.9974,0.0,0.0,0.0,0.0,0.0,0.0,0.0,0.0,0.0,0.0,0.0,0.0,0.0,0.0,0.0,0.0,0.0,0.0,0.0,0.0,0.0,0.0,0.0,0.0,5.2087,5.31,5.389,5.3794,5.6204,5.783,5.7614,5.871,5.9338,5.9151,5.9156,5.9156,5.9216,6.0403,6.1087,6.1087,6.1117,6.1776,6.3006,6.1836,6.2494,6.498,6.498,6.5726,6.7043,6.5768,6.5179,6.509,6.3826,6.3244,6.3272,6.2985,6.2042,6.057,5.9123,5.8285,5.7939,5.7939,5.7939,5.7939,5.7939,5.7939,5.7905,5.7905,5.7905,5.7838,5.7454,5.7377,5.7334,5.7059,5.7016,5.7041,5.6997,5.4749,5.2712,5.3484,5.136,4.9437,5.023,5.0443,5.0443,5.0443,4.8999,4.8083,4.8911,4.906,4.9355,5.0269,4.9647,0.0,5.027,4.9593,4.9412,5.026,5.0341,5.0341,5.0341,5.1146,5.1267,5.0401,5.1166,5.1267,5.0381,5.1186,5.165,5.165,5.0824,4.9064,4.6291,0.0,0.0,0.0,0.0,0.0,0.0,0.0,0.0,0.0,0.0,0.0,0.0,0.0,0.0,0.0,0.0,0.0,0.0,0.0,0.0,0.0,0.0,0.0,0.0,5.2541,5.4169,5.5093,5.6047,5.6546,5.6281,5.665,5.7162,5.7746,5.7806,5.8169,5.9036,5.951,5.9749,5.9749,5.9749,5.9959,6.0407,6.0822,6.1476,6.2374,6.3242,6.3491,6.3182,6.2757,6.2069,6.1253,6.072,6.0495,6.0487,6.038,5.8197,5.4954,5.4461,5.4059,5.3837,5.3997,5.3935,5.3806,5.3806,5.3806,5.3718,5.3286,5.3003,5.2904,5.3516,5.4223,5.4921,5.56,5.6355,5.6465,5.4414,5.3099,5.1844,5.0079,4.8852,4.8189,4.8486,4.8532,4.8532,4.8532,4.8061,4.8008,4.9171,4.8333,4.7928,4.8882,4.8286,4.7733,4.7766,4.7941,4.8223,4.8504,4.8544,4.8544,4.8544,4.8826,4.8866,4.8544,4.8826,4.8647,4.7804,4.8567,4.8768,4.8226,4.8446,4.8087,4.7177,0.0,0.0,0.0,0.0,0.0,0.0,0.0,0.0,0.0,0.0,0.0,0.0,0.0,0.0,0.0,0.0,0.0,0.0,0.0,0.0,0.0,0.0,0.0,0.0,0.0,0.0,5.5259,5.5737,0.0,5.5757,5.5665,5.5809,5.6394,5.646,5.6819,5.7656,5.814,5.8379,5.8379,5.8379,5.8618,5.9096,5.9476,5.9686,5.9822,6.1024,6.0988,5.9908,5.9439,5.8771,5.7922,5.6996,5.6591,5.661,5.6597,5.4825,5.2081,5.2081,5.1992,5.1844,5.2022,5.1992,5.1844,5.1844,5.2107,5.2358,5.1824,5.146,5.1375,5.2057,5.243,5.2745,5.326,5.3933,5.4061,5.2059,5.1406,5.0745,4.8547,4.7957,4.7836,4.7688,4.7636,4.7301,4.6303,4.6112,4.6678,4.856,4.7753,4.7146,4.7977,4.7508,4.6777,4.6051,4.6696,4.7218,4.7218,4.7437,4.7618,4.7618,4.7618,4.7498,4.7218,4.7218,4.6997,4.6475,4.6957,4.6977,4.6475,4.6655,4.6574,0.0,0.0,0.0,0.0,0.0,0.0,0.0,0.0,0.0,0.0,0.0,0.0,0.0,0.0,0.0,0.0,0.0,0.0,0.0,0.0,0.0,0.0,0.0,0.0,0.0,0.0,0.0,5.3966,5.4977,0.0,0.0,0.0,0.0,5.5131,5.5108,5.5108,5.5108,5.628,5.6968,5.6968,5.6968,5.7596,5.8857,5.7696,5.72,5.748,5.8448,5.8401,5.7411,5.61,5.5501,5.5364,5.3107,5.2081,5.2081,5.1949,5.1926,5.1926,5.1926,5.1923,5.1896,5.1896,5.1896,5.1923,5.1946,5.2713,5.3578,5.3191,5.3069,5.2982,5.2654,5.1863,0.0,0.0,5.0168,5.0137,5.0036,4.9689,4.9239,4.8634,4.8279,4.7922,4.7452,4.7322,4.6536,4.3868,4.3338,4.4229,4.7008,0.0,4.6953,4.7453,4.7199,4.6492,4.5205,4.583,4.6374,4.6374,4.7037,4.7478,4.7478,4.7478,4.7177,4.6434,4.6374,4.6374,4.6374,4.6374,4.6374,4.6313,4.5488,0.0,0.0,0.0,0.0,0.0,0.0,0.0,0.0,0.0,0.0,0.0,0.0,0.0,0.0,0.0,0.0,0.0,0.0,0.0,0.0,0.0,0.0,0.0,0.0,0.0,0.0,4.6847,4.8835,5.0573,5.1286,5.1466,0.0,0.0,0.0,0.0,0.0,0.0,5.3761,5.4061,5.427,5.427,5.427,5.4875,5.6191,5.6079,5.6021,5.6088,5.6468,5.6448,5.6046,5.4922,5.4336,5.4055,5.2701,5.2081,5.1949,5.0212,4.9474,4.9474,4.9474,4.9389,4.9194,4.9194,4.9194,4.9269,4.9873,5.0485,5.0865,5.028,5.0073,4.986,4.8745,0.0,0.0,0.0,0.0,4.983,4.8491,4.7534,4.6603,4.5108,4.4168,4.3597,4.3457,4.3451,4.3394,4.3359,4.3338,4.3839,4.5309,4.5739,0.0,4.5759,4.5922,4.5557,4.4278,4.4865,4.5448,4.5448,4.5609,4.575,4.575,4.575,4.5649,4.5468,4.5448,4.5448,4.5448,4.5448,4.5125,4.4461,0.0,0.0,0.0,0.0,0.0,0.0,0.0,0.0,0.0,0.0,0.0,0.0,0.0,0.0,0.0,0.0,0.0,0.0,0.0,0.0,0.0,0.0,0.0,0.0,0.0,0.0,0.0,4.4304,4.6501,4.7858,4.8634,4.8897,0.0,0.0,0.0,0.0,0.0,0.0,0.0,0.0,0.0,5.2408,5.3522,5.3697,5.2858,5.406,5.3953,5.255,5.3588,5.3814,5.3281,5.2683,5.2354,5.2134,5.1041,5.0292,4.9764,4.8921,4.8234,4.7704,0.0,0.0,0.0,0.0,4.7739,4.7424,4.8346,4.882,4.9012,4.8984,0.0,0.0,0.0,0.0,0.0,0.0,0.0,4.9227,4.8204,4.7778,4.7168,4.5515,4.4625,4.3951,4.33,4.1569,4.0507,4.1887,4.2039,4.2334,4.373,4.4212,0.0,0.0,0.0,4.4288,4.2749,4.3678,4.4482,4.4482,4.4884,4.5105,4.5105,4.5105,4.4944,4.4562,4.4482,4.4482,4.4482,4.4482,4.406,0.0,0.0,0.0,0.0,0.0,0.0,0.0,0.0,0.0,0.0,0.0,0.0,0.0,0.0,0.0,0.0,0.0,0.0,0.0,0.0,0.0,0.0,0.0,0.0,0.0,0.0,0.0,0.0,0.0,4.4471,4.4881,0.0,0.0,0.0,0.0,0.0,0.0,0.0,0.0,0.0,0.0,0.0,0.0,0.0,5.2796,4.951,5.1974,5.1747,4.8849,5.0612,5.109,5.0333,5.02,5.02,5.028,4.8965,0.0,4.7155,4.7787,0.0,0.0,0.0,0.0,0.0,0.0,0.0,0.0,0.0,0.0,0.0,0.0,0.0,0.0,0.0,0.0,0.0,0.0,0.0,0.0,0.0,0.0,4.8459,4.6939,4.6182,4.5532,4.4572,4.1059,3.8596,4.0296,4.0353,4.0593,0.0,0.0,0.0,0.0,0.0,0.0,4.1207,4.241,4.3416,4.3537,4.4261,4.4763,4.4763,4.4763,4.4342,4.3436,4.3477,4.3557,4.3557,4.3557,0.0,0.0,0.0,0.0,0.0,0.0,0.0,0.0,0.0,0.0,0.0,0.0,0.0,0.0,0.0,0.0,0.0,0.0,0.0,0.0,0.0,0.0,0.0,0.0,0.0,0.0,0.0,0.0,0.0,0.0,0.0,0.0,0.0,0.0,0.0,0.0,0.0,0.0,0.0,0.0,0.0,0.0,0.0,0.0,0.0,0.0,0.0,0.0,0.0,0.0,4.945,4.9585,5.0306,4.9342,4.945,5.0225,4.8085,4.7577,4.8157,4.618,0.0,0.0,0.0,0.0,0.0,0.0,0.0,0.0,0.0,0.0,0.0,0.0,0.0,0.0,0.0,0.0,0.0,0.0,0.0,0.0,0.0,0.0,4.4706,4.2617,4.127,4.079,4.2167,0.0,0.0,0.0,0.0,0.0,0.0,0.0,0.0,0.0,0.0,0.0,4.1047,4.1268,4.177,4.2551,4.2772,4.2853,4.2853,4.2853,4.2471,4.1529,4.2209,4.2611,0.0,0.0,0.0,0.0,0.0,0.0,0.0,0.0,0.0,0.0,0.0,0.0,0.0,0.0,0.0,0.0,0.0,0.0,0.0,0.0,0.0,0.0,0.0,0.0,0.0,0.0,0.0,0.0,0.0,0.0,0.0,0.0,0.0,0.0,0.0,0.0,0.0,0.0,0.0,0.0,0.0,0.0,0.0,0.0,0.0,0.0,0.0,0.0,0.0,0.0,0.0,0.0,0.0,0.0,0.0,0.0,0.0,0.0,4.6573,4.4651,0.0,0.0,0.0,0.0,0.0,0.0,0.0,0.0,0.0,0.0,0.0,0.0,0.0,0.0,0.0,0.0,0.0,0.0,0.0,0.0,0.0,0.0,0.0,0.0,0.0,0.0,0.0,0.0,0.0,0.0,0.0,0.0,0.0,0.0,0.0,0.0,0.0,0.0,0.0,0.0,3.9734,4.0479,4.1187,4.1609,4.2072,4.239,4.239,4.1968,4.167,4.171,4.1227,0.0,0.0,0.0,0.0,0.0,0.0,0.0,0.0,0.0,0.0,0.0,0.0,0.0,0.0,0.0,0.0,0.0,0.0,0.0,0.0,0.0,0.0,0.0,0.0,0.0,0.0,0.0,0.0,0.0,0.0,0.0,0.0,0.0,0.0,0.0,0.0,0.0,0.0,0.0,0.0,0.0,0.0,0.0,0.0,0.0,0.0,0.0,0.0,0.0,0.0,0.0,0.0,0.0,0.0,0.0,0.0,0.0,0.0,0.0,4.4175,4.1356,0.0,0.0,0.0,0.0,0.0,0.0,0.0,0.0,0.0,0.0,0.0,0.0,0.0,0.0,0.0,0.0,0.0,0.0,0.0,0.0,0.0,0.0,0.0,0.0,0.0,0.0,0.0,0.0,0.0,0.0,0.0,0.0,0.0,0.0,0.0,0.0,0.0,0.0,0.0,0.0,3.8272,3.9548,4.0559,4.0705,4.1348,4.177,4.177,4.1127,4.1026,4.1766,4.0444,0.0,0.0,0.0,0.0,0.0,0.0,0.0,0.0,0.0,0.0,0.0,0.0,0.0,0.0,0.0,0.0,0.0,0.0,0.0,0.0,0.0,0.0,0.0,0.0,0.0,0.0,0.0,0.0,0.0,0.0,0.0,0.0,0.0,0.0,0.0,0.0,0.0,0.0,0.0,0.0,0.0,0.0,0.0,0.0,0.0,0.0,0.0,0.0,0.0,0.0,0.0,0.0,0.0,0.0,0.0,0.0,0.0,0.0,0.0,0.0,0.0,0.0,0.0,0.0,0.0,0.0,0.0,0.0,0.0,0.0,0.0,0.0,0.0,0.0,0.0,0.0,0.0,0.0,0.0,0.0,0.0,0.0,0.0,0.0,0.0,0.0,0.0,0.0,0.0,0.0,0.0,0.0,0.0,0.0,0.0,0.0,0.0,0.0,0.0,0.0,0.0,3.7264,3.8131,3.8984,3.97,3.9861,3.9921,3.9921,3.984,3.982,3.9921,0.0,0.0,0.0,0.0,0.0,0.0,0.0,0.0,0.0,0.0,0.0,0.0,0.0,0.0,0.0,0.0,0.0,0.0,0.0,0.0,0.0,0.0,0.0,0.0,0.0,0.0,0.0,0.0,0.0,0.0,0.0,0.0,0.0,0.0,0.0,0.0,0.0,0.0,0.0,0.0,0.0,0.0,0.0,0.0,0.0,0.0,0.0,0.0,0.0,0.0,0.0,0.0,0.0,0.0,0.0,0.0,0.0,0.0,0.0,0.0,0.0,0.0,0.0,0.0,0.0,0.0,0.0,0.0,0.0,0.0,0.0,0.0,0.0,0.0,0.0,0.0,0.0,0.0,0.0,0.0,0.0,0.0,0.0,0.0,0.0,0.0,0.0,0.0,0.0,0.0,0.0,0.0,0.0,0.0,0.0,0.0,0.0,0.0,0.0,0.0,0.0,0.0,3.6286,3.7587,3.8615,3.8923,3.9392,3.966,3.966,3.9231,3.9151,3.9619,0.0,0.0,0.0,0.0,0.0,0.0,0.0,0.0,0.0,0.0,0.0,0.0,0.0,0.0,0.0,0.0,0.0,0.0,0.0,0.0,0.0,0.0,0.0,0.0,0.0,0.0,0.0,0.0,0.0,0.0,0.0,0.0,0.0,0.0,0.0,0.0,0.0,0.0,0.0,0.0,0.0,0.0,0.0,0.0,0.0,0.0,0.0,0.0,0.0,0.0,0.0,0.0,0.0,0.0,0.0,0.0,0.0,0.0,0.0,0.0,0.0,0.0,0.0,0.0,0.0,0.0,0.0,0.0,0.0,0.0,0.0,0.0,0.0,0.0,0.0,0.0,0.0,0.0,0.0,0.0,0.0,0.0,0.0,0.0,0.0,0.0,0.0,0.0,0.0,0.0,0.0,0.0,0.0,0.0,0.0,0.0,0.0,0.0,0.0,0.0,0.0,0.0,3.5492,3.6994,3.8091,3.8091,3.8601,3.893,3.893,3.84,3.842,3.9272,0.0,0.0,0.0,0.0,0.0,0.0,0.0,0.0,0.0,0.0,0.0,0.0,0.0,0.0,0.0,0.0,0.0,0.0,0.0,0.0,0.0,0.0,0.0,0.0,0.0,0.0,0.0,0.0,0.0,0.0,0.0,0.0,0.0,0.0,0.0,0.0,0.0,0.0,0.0,0.0,0.0,0.0,0.0,0.0,0.0,0.0,0.0,0.0,0.0,0.0,0.0,0.0,0.0,0.0,0.0,0.0,0.0,0.0,0.0,0.0,0.0,0.0,0.0,0.0,0.0,0.0,0.0,0.0,0.0,0.0,0.0,0.0,0.0,0.0,0.0,0.0,0.0,0.0,0.0,0.0,0.0,0.0,0.0,0.0,0.0,0.0,0.0,0.0,0.0,0.0,0.0,0.0,0.0,0.0,0.0,0.0,0.0,0.0,0.0,0.0,0.0,0.0,3.4905,3.616,3.7143,3.7143,3.7164,3.7164,3.7164,3.7164,3.7547,0.0,0.0,0.0,0.0,0.0,0.0,0.0,0.0,0.0,0.0,0.0,0.0,0.0,0.0,0.0,0.0,0.0,0.0,0.0,0.0,0.0,0.0,0.0,0.0,0.0,0.0,0.0,0.0,0.0,0.0,0.0,0.0,0.0,0.0,0.0,0.0,0.0,0.0,0.0,0.0,0.0,0.0,0.0,0.0,0.0,0.0,0.0,0.0,0.0,0.0,0.0,0.0,0.0,0.0,0.0,0.0,0.0,0.0,0.0,0.0,0.0,0.0,0.0,0.0,0.0,0.0,0.0,0.0,0.0,0.0,0.0,0.0,0.0,0.0,0.0,0.0,0.0,0.0,0.0,0.0,0.0,0.0,0.0,0.0,0.0,0.0,0.0,0.0,0.0,0.0,0.0,0.0,0.0,0.0,0.0,0.0,0.0,0.0,0.0,0.0,0.0,0.0,0.0,3.4574,3.6055,3.7143,3.7143,3.7143,3.7143,3.7143,3.7143,3.7264,3.7547,0.0,0.0,0.0,0.0,0.0,0.0,0.0,0.0,0.0,0.0,0.0,0.0,0.0,0.0,0.0,0.0,0.0,0.0,0.0,0.0,0.0,0.0,0.0,0.0,0.0,0.0,0.0,0.0,0.0,0.0,0.0,0.0,0.0,0.0,0.0,0.0,0.0,0.0,0.0,0.0,0.0,0.0,0.0,0.0,0.0,0.0,0.0,0.0,0.0,0.0,0.0,0.0,0.0,0.0,0.0,0.0,0.0,0.0,0.0,0.0,0.0,0.0,0.0,0.0,0.0,0.0,0.0,0.0,0.0,0.0,0.0,0.0,0.0,0.0,0.0,0.0,0.0,0.0,0.0,0.0,0.0,0.0,0.0,0.0,0.0,0.0,0.0,0.0,0.0,0.0,0.0,0.0,0.0,0.0,0.0,0.0,0.0,0.0,0.0,0.0,0.0,0.0,0.0,3.6383,3.7143,3.7143,3.7143,3.7143,3.7143,3.7143,3.7143,3.7143,0.0,0.0,0.0,0.0,0.0,0.0,0.0,0.0,0.0,0.0,0.0,0.0,0.0,0.0,0.0,0.0,0.0,0.0,0.0,0.0,0.0,0.0,0.0,0.0,0.0,0.0,0.0,0.0,0.0,0.0,0.0,0.0,0.0,0.0,0.0,0.0,0.0,0.0,0.0,0.0,0.0,0.0,0.0,0.0,0.0,0.0,0.0,0.0,0.0,0.0,0.0,0.0,0.0,0.0,0.0,0.0,0.0,0.0,0.0,0.0,0.0,0.0,0.0,0.0,0.0,0.0,0.0,0.0,0.0,0.0,0.0,0.0,0.0,0.0,0.0,0.0,0.0,0.0,0.0,0.0,0.0,0.0,0.0,0.0,0.0,0.0,0.0,0.0,0.0,0.0,0.0,0.0,0.0,0.0,0.0,0.0,0.0,0.0,0.0,0.0,0.0,0.0,0.0,3.6929,3.7143,3.7143,3.7143,3.7143,3.7143,3.7143,3.7143,3.7143,3.7143,0.0,0.0,0.0,0.0,0.0,0.0,0.0,0.0,0.0,0.0,0.0,0.0,0.0,0.0,0.0,0.0,0.0,0.0,0.0,0.0,0.0,0.0,0.0,0.0,0.0,0.0,0.0,0.0,0.0,0.0,0.0,0.0,0.0,0.0,0.0,0.0,0.0,0.0,0.0,0.0,0.0,0.0,0.0,0.0,0.0,0.0,0.0,0.0,0.0,0.0,0.0,0.0,0.0,0.0,0.0,0.0,0.0,0.0,0.0,0.0,0.0,0.0,0.0,0.0,0.0,0.0,0.0,0.0,0.0,0.0,0.0,0.0,0.0,0.0,0.0,0.0,0.0,0.0,0.0,0.0,0.0,0.0,0.0,0.0,0.0,0.0,0.0,0.0,0.0,0.0,0.0,0.0,0.0,0.0,0.0,0.0,0.0,0.0,0.0,0.0,0.0,0.0,3.6675,3.7143,3.7143,3.7143,3.7143,3.7143,3.7143,3.7143,3.7143,3.7143,0.0,0.0,0.0,0.0,0.0,0.0,0.0,0.0,0.0,0.0,0.0,0.0,0.0,0.0,0.0,0.0,0.0,0.0,0.0,0.0,0.0,0.0,0.0,0.0,0.0,0.0,0.0,0.0,0.0,0.0,0.0,0.0,0.0,0.0,0.0,0.0,0.0,0.0,0.0,0.0,0.0,0.0,0.0,0.0,0.0,0.0,0.0,0.0,0.0,0.0,0.0,0.0,0.0,0.0,0.0,0.0,0.0,0.0,0.0,0.0,0.0,0.0,0.0,0.0,0.0,0.0,0.0,0.0,0.0,0.0,0.0,0.0,0.0,0.0,0.0,0.0,0.0,0.0,0.0,0.0,0.0,0.0,0.0,0.0,0.0,0.0,0.0,0.0,0.0,0.0,0.0,0.0,0.0,0.0,0.0,0.0,0.0,0.0,0.0,0.0,0.0,0.0,3.6363,3.6999,3.7115,3.7143,3.7143,3.7143,3.7143,3.7143,3.7143,3.6346,0.0,0.0,0.0,0.0,0.0,0.0,0.0,0.0,0.0,0.0,0.0,0.0,0.0,0.0,0.0,0.0,0.0,0.0,0.0,0.0,0.0,0.0,0.0,0.0,0.0,0.0,0.0,0.0,0.0,0.0,0.0,0.0,0.0,0.0,0.0,0.0,0.0,0.0,0.0,0.0,0.0,0.0,0.0,0.0,0.0,0.0,0.0,0.0,0.0,0.0,0.0,0.0,0.0,0.0,0.0,0.0,0.0,0.0,0.0,0.0,0.0,0.0,0.0,0.0,0.0,0.0,0.0,0.0,0.0,0.0,0.0,0.0,0.0,0.0,0.0,0.0,0.0,0.0,0.0,0.0,0.0,0.0,0.0,0.0,0.0,0.0,0.0,0.0,0.0,0.0,0.0,0.0,0.0,0.0,0.0,0.0,0.0,0.0,0.0,0.0,0.0,0.0,0.0,3.6784,3.6905,3.7043,3.7143,3.7143,3.7143,3.7083,3.6942,0.0,0.0,0.0,0.0,0.0,0.0,0.0,0.0,0.0,0.0,0.0,0.0,0.0,0.0,0.0,0.0,0.0,0.0,0.0,0.0,0.0,0.0,0.0,0.0,0.0,0.0,0.0,0.0,0.0,0.0,0.0,0.0,0.0,0.0,0.0,0.0,0.0,0.0,0.0,0.0,0.0,0.0,0.0,0.0,0.0,0.0,0.0,0.0,0.0,0.0,0.0,0.0,0.0,0.0,0.0,0.0,0.0,0.0,0.0,0.0,0.0,0.0,0.0,0.0,0.0,0.0,0.0,0.0,0.0,0.0,0.0,0.0,0.0,0.0,0.0,0.0,0.0,0.0,0.0,0.0,0.0,0.0,0.0,0.0,0.0,0.0,0.0,0.0,0.0,0.0,0.0,0.0,0.0,0.0,0.0,0.0,0.0,0.0,0.0,0.0,0.0,0.0,0.0,0.0,3.6538,3.6057,3.6648,3.7143,3.7143,3.7143,3.6801,3.6004,0.0,0.0,0.0,0.0,0.0,0.0,0.0,0.0,0.0,0.0,0.0,0.0,0.0,0.0]}],[{"header":{"parameterUnit":"kt","parameterCategory":2,"dx":1,"dy":1,"la1":29.285339999999998,"la2":30.599998999999997,"lo1":-89.70041500000002,"lo2":-87.6738589999976,"nx":112,"ny":82,"refTime":"2022-09-30T06:00:00:Z","depth":0,"parameterNumber":2,"parameterNumberName":"V-component_of_WINDS"},"data":[8.3297,8.2233,8.1592,7.9299,7.8729,7.8266,7.6549,7.5196,7.3709,7.1535,6.909,6.7166,6.6618,6.5144,6.4265,6.5006,6.3931,6.3123,0.0,6.5158,6.5966,6.504,6.8062,7.1772,7.5718,7.8529,8.1638,8.5357,8.8432,9.0349,9.0956,9.146,9.1724,9.1724,9.3145,9.3868,9.3868,9.4796,9.5251,9.5221,9.4302,9.3586,9.3049,9.1196,9.0364,9.0304,8.9654,8.996,9.0927,9.2051,9.2804,9.3312,9.414,9.4469,9.4549,9.5159,9.6075,9.6974,9.6974,9.662,9.5919,9.48,9.39,9.3133,9.2684,9.1936,9.0889,8.9162,8.8653,8.8466,8.7639,8.8149,8.8968,8.946,8.9564,8.9564,8.9564,8.8862,8.8505,8.9422,8.9564,9.0046,9.1461,9.1724,9.1724,9.1724,9.1724,9.2246,9.3712,9.3868,9.421,9.5161,9.5251,9.5514,9.6199,9.7783,9.969,10.1956,10.2352,10.2945,10.3964,10.3997,10.3997,10.3997,10.3996,10.4222,10.4709,10.5524,10.5939,10.5952,10.5952,10.5927,7.9174,7.8268,7.7994,7.5351,7.4681,7.4347,7.3074,7.1473,6.9726,6.7998,6.6177,6.4532,6.3215,6.3335,6.3215,6.1869,6.2408,6.2976,0.0,6.4559,6.5996,6.6865,6.9707,7.3148,7.7064,7.9905,8.2456,8.4702,8.8113,8.9912,8.9553,8.9978,9.0251,9.0251,9.1626,9.2408,9.2408,9.3303,9.3807,9.3774,9.2858,9.2149,9.1593,8.9703,8.8545,8.8102,8.8021,8.8234,8.8802,9.05,9.1487,9.1996,9.3312,9.3781,9.392,9.499,9.6094,9.7051,9.7051,9.672,9.5931,9.3842,9.2918,9.2387,9.1493,9.059,8.9632,8.8354,8.7994,8.7785,8.6917,8.7386,8.8113,8.8113,8.8113,8.8113,8.8113,8.738,8.6942,8.7898,8.8113,8.8545,8.9978,8.984,8.9668,9.0183,9.0251,9.0759,9.2214,9.2408,9.2858,9.4139,9.4421,9.4702,9.5221,9.6106,9.7651,9.9954,10.0973,10.1763,10.2454,10.3471,10.3997,10.3997,10.3996,10.3993,10.4024,10.4875,10.5265,10.5322,10.7274,10.7378,7.7662,7.5184,7.3555,7.1106,7.0501,7.0222,6.9034,6.8733,6.7977,6.5439,6.4921,6.4532,6.3275,6.4113,6.3754,5.9903,6.1454,0.0,0.0,6.1663,6.525,7.0425,7.219,7.4522,7.844,8.1311,8.3439,8.4642,8.7156,8.8084,8.6767,8.8036,8.8757,8.8757,9.0149,9.0893,9.0893,9.0927,9.0961,9.0961,9.0927,9.0183,8.8827,8.8792,8.8036,8.6677,8.6677,8.7396,8.8593,8.8623,8.9401,9.0727,9.2014,9.2484,9.2753,9.5838,9.7031,9.7064,9.7064,9.6052,9.4341,9.1493,9.1501,9.2095,8.9465,8.8623,8.8324,8.7037,8.6677,8.6677,8.6677,8.6677,8.6677,8.6677,8.6677,8.6677,8.6677,8.6677,8.6677,8.6677,8.6677,8.7125,8.8509,8.7604,8.7161,8.8575,8.8757,8.9252,9.0725,9.0893,9.1267,9.2217,9.276,9.3648,9.5038,9.5221,9.6068,9.7934,9.9887,10.0553,9.9642,10.2356,10.3931,10.3997,10.3997,10.3996,10.3992,10.3997,10.4095,10.4422,10.9977,11.0242,7.3101,7.1732,7.1188,6.9567,6.9305,6.9125,6.7848,6.6709,6.5785,6.5093,6.4921,0.0,0.0,0.0,6.5786,6.3664,0.0,6.6774,6.5128,6.875,7.1802,7.228,7.4374,7.6915,7.9999,8.3529,8.539,8.4798,8.7156,8.8084,8.6767,8.7052,8.7271,8.7271,8.8651,8.9391,8.9391,9.0455,9.0961,9.0961,8.9909,8.9213,8.8792,8.7748,8.7052,8.6677,8.6677,8.6887,8.7306,8.8264,8.9441,9.0867,9.2171,9.1463,8.9905,9.174,9.3114,9.4064,9.4064,9.3808,9.315,9.119,9.0207,8.96,8.8886,8.7994,8.7156,8.6797,8.6677,8.6677,8.6677,8.6677,8.6677,8.6677,8.6677,8.6677,8.6677,8.6677,8.6677,8.6677,8.6677,8.6825,8.7234,8.6972,8.6825,8.7234,8.7271,8.782,8.9248,8.9391,8.9912,9.1203,9.2409,9.327,9.3648,9.4641,9.5481,9.6035,9.752,9.907,10.0585,10.1436,10.2551,10.3997,10.3997,10.3997,10.3996,10.3997,10.6137,11.0239,11.1804,11.19,7.1075,6.9386,6.8392,6.7192,6.703,6.6823,6.5628,6.5158,6.4921,6.4921,0.0,0.0,0.0,0.0,0.0,0.0,6.7432,6.9408,6.5846,7.0814,7.4584,7.3806,7.7004,7.9486,7.9905,8.4074,8.6378,8.56,8.7486,8.8084,8.6767,8.6677,8.6677,8.6677,8.7525,8.7964,8.7964,8.8757,8.9178,8.9178,8.8327,8.7964,8.7898,8.7082,8.6677,8.6677,8.6677,8.6677,8.6737,8.7516,8.8305,8.9216,9.0596,9.0485,8.9723,9.0451,9.1311,9.21,9.21,9.1705,9.1131,9.0835,8.9837,8.857,8.8001,8.7306,8.6677,8.6677,8.6677,8.6677,8.6677,8.6677,8.6677,8.6677,8.6677,8.6677,8.6677,8.6677,8.6677,8.6677,8.6677,8.6677,8.6677,8.6677,8.6677,8.6677,8.6677,8.7008,8.782,8.7964,8.8281,8.9075,9.1008,9.2377,9.276,9.4299,9.5251,9.5251,9.604,9.768,10.0309,10.1658,10.2812,10.3997,10.3997,10.3997,10.3997,10.3992,10.6958,11.254,11.2531,11.2558,7.0363,6.7805,6.5641,6.4716,6.4511,6.4393,6.3788,0.0,6.5497,6.5963,0.0,6.793,6.793,0.0,0.0,6.3182,6.8541,7.1173,6.498,7.0695,7.5541,7.5541,7.97,8.1729,7.9636,8.3679,8.6528,8.6677,8.7755,8.7935,8.6767,8.6677,8.6677,8.6677,8.6677,8.6677,8.6677,8.6677,8.6677,8.6677,8.6677,8.6677,8.6677,8.6677,8.6677,8.6677,8.6677,8.6677,8.6677,8.6677,8.6788,8.7045,8.8149,8.9356,9.0489,9.0489,9.0489,9.0489,9.0489,8.9633,8.8792,9.008,8.963,8.8362,8.7088,8.6677,8.6677,8.6677,8.6677,8.6677,8.6677,8.6677,8.6677,8.6677,8.6677,8.6677,8.6677,8.6677,8.6677,8.6677,8.6677,8.6677,8.6677,8.6677,8.6677,8.6677,8.6677,8.6677,8.6677,8.6677,8.6678,8.6672,8.9103,9.1135,9.2089,9.389,9.5005,9.5221,9.5251,9.6389,9.8935,10.1741,10.3398,10.3734,10.3898,10.3997,10.3997,10.3988,10.6615,11.1597,11.2218,11.255,6.7968,6.6106,6.4413,6.4151,6.4303,6.5141,0.0,0.0,0.0,7.2253,7.3147,7.3327,7.3327,7.3557,7.3028,7.0934,7.3625,7.4851,7.1443,7.602,7.97,7.97,8.0597,8.1854,8.3445,8.4493,8.5577,8.6618,8.6917,8.6977,8.6707,8.6677,8.6677,8.6677,8.6677,8.6677,8.6677,8.6677,8.6677,8.6677,8.6677,8.6677,8.6677,8.6677,8.6677,8.6677,8.6677,8.6677,8.6677,8.6677,8.738,8.8327,8.7459,8.7271,8.7495,8.7495,8.7495,8.7495,8.7495,8.7344,8.7161,8.7453,8.7344,8.7082,8.6751,8.6677,8.6677,8.6677,8.6677,8.6677,8.6677,8.6677,8.6677,8.6677,8.6677,8.6677,8.6677,8.6677,8.6677,8.6677,8.6677,8.6677,8.6677,8.6677,8.6677,8.6677,8.6677,8.6677,8.6677,8.6677,8.6691,8.6702,8.8205,8.9775,9.1133,9.2249,9.3574,9.5158,9.5251,9.5511,9.6032,9.7741,9.9751,10.209,10.3372,10.3997,10.3997,10.3994,10.4545,10.5753,11.0383,11.2572,6.5799,6.4693,6.4059,6.4059,6.4762,0.0,0.0,6.8408,6.9728,7.2276,7.3888,7.4992,7.5603,7.5774,7.5409,7.4074,7.608,7.7303,7.5988,7.8709,8.0867,8.0867,8.2003,8.3325,8.4648,8.5367,8.5989,8.6648,8.6677,8.6677,8.6677,8.6677,8.6677,8.6677,8.6677,8.6677,8.6677,8.6677,8.6677,8.6677,8.6677,8.6677,8.6677,8.6677,8.6677,8.6677,8.6677,8.6677,8.6677,8.6677,8.7125,8.7676,8.6942,8.6677,8.6677,8.6677,8.6677,8.6677,8.6677,8.6677,8.6677,8.6677,8.6677,8.6677,8.6677,8.6677,8.6677,8.6677,8.6677,8.6677,8.6677,8.6677,8.6677,8.6677,8.6677,8.6677,8.6677,8.6677,8.6677,8.6677,8.6677,8.6677,8.6677,8.6677,8.6677,8.6677,8.6677,8.6677,8.6677,8.6677,8.6677,8.6677,8.797,8.9422,9.086,9.1798,9.3166,9.5128,9.5251,9.5251,9.5251,9.6857,9.8465,9.985,10.163,10.3011,10.3997,10.3997,10.3992,10.4137,10.9892,11.2548,6.436,6.3689,6.3698,6.4343,6.5508,0.0,6.7835,6.8953,7.0377,7.257,7.4398,7.6033,7.7508,7.7627,7.7186,7.614,7.7747,7.91,7.9131,8.0354,8.1345,8.1585,8.3475,8.4858,8.5091,8.6079,8.6677,8.6677,8.6677,8.6677,8.6677,8.6677,8.6677,8.6677,8.6677,8.6677,8.6677,8.6677,8.6677,8.6677,8.6677,8.6677,8.6677,8.6677,8.6677,8.6677,8.6677,8.6677,8.6677,8.6677,8.6677,8.6677,8.6677,8.6677,8.6677,8.6677,8.6677,8.6677,8.6677,8.6677,8.6677,8.6677,8.6677,8.6677,8.6677,8.6677,8.6677,8.6677,8.6677,8.6677,8.6677,8.6677,8.6677,8.6677,8.6677,8.6677,8.6677,8.6677,8.6677,8.6677,8.6677,8.6677,8.6677,8.6677,8.6677,8.6677,8.6677,8.6677,8.6677,8.6677,8.6677,8.6677,8.7712,8.9003,9.0421,9.1311,9.2662,9.4732,9.5101,9.5251,9.5251,9.6786,9.7736,9.8033,9.9591,10.1271,10.3143,10.334,10.3635,10.4109,10.8735,11.1489,6.4435,6.3425,6.2801,6.5135,6.609,0.0,7.2627,7.3059,7.4134,7.9945,7.9621,7.9033,8.1499,8.0984,8.0165,8.0042,8.0282,8.0496,8.0619,8.1764,8.3021,8.4199,8.4588,8.5181,8.6348,8.6618,8.6677,8.6677,8.6677,8.6677,8.6677,8.6677,8.6677,8.6677,8.6677,8.6677,8.6677,8.6677,8.6677,8.6677,8.6677,8.6677,8.6677,8.6677,8.6677,8.6677,8.6677,8.6677,8.6677,8.6677,8.6677,8.6677,8.6677,8.6677,8.6677,8.6677,8.6677,8.6677,8.6677,8.6677,8.6677,8.6677,8.6677,8.6677,8.6677,8.6677,8.6677,8.6677,8.6677,8.6677,8.6677,8.6677,8.6677,8.6677,8.6677,8.6677,8.6677,8.6677,8.6677,8.6677,8.6677,8.6677,8.6677,8.6677,8.6677,8.6677,8.6677,8.6677,8.6677,8.6677,8.6677,8.6677,8.6825,8.7495,8.8968,8.9585,9.0894,9.3207,9.455,9.5251,9.5251,9.5448,9.6169,9.7419,9.7684,9.8548,10.0034,10.0946,10.2291,10.4024,10.4672,10.7665,6.2461,6.1964,6.2178,6.5136,0.0,0.0,7.2407,7.4198,7.5772,7.8381,7.9416,8.0166,8.1183,8.0953,8.0687,8.0687,8.0687,8.0723,8.0863,8.2003,8.3021,8.3529,8.4971,8.6079,8.6648,8.6677,8.6677,8.6677,8.6677,8.6677,8.6677,8.6677,8.6677,8.6677,8.6677,8.6677,8.6677,8.6677,8.6677,8.6677,8.6677,8.6677,8.6677,8.6677,8.6677,8.6677,8.6677,8.6677,8.6677,8.6677,8.6677,8.6677,8.6677,8.6677,8.6677,8.6677,8.6677,8.6677,8.6677,8.6677,8.6677,8.6677,8.6677,8.6677,8.6677,8.6677,8.6677,8.6677,8.6677,8.6677,8.6677,8.6677,8.6677,8.6677,8.6677,8.6677,8.6677,8.6677,8.6677,8.6677,8.6677,8.6677,8.6677,8.6677,8.6677,8.6677,8.6677,8.6677,8.6677,8.6677,8.6677,8.6677,8.6677,8.7271,8.8722,8.9036,9.0308,9.2921,9.3648,9.4364,9.5221,9.5251,9.5514,9.6139,9.6958,9.8083,9.9503,9.9406,10.039,10.2324,10.3461,10.5282,6.1713,0.0,0.0,0.0,0.0,0.0,7.2013,7.4144,7.5579,7.6299,7.8117,7.9801,8.0419,8.061,8.0558,8.0202,8.0472,8.075,8.0824,8.2303,8.335,8.335,8.5331,8.6677,8.6677,8.6677,8.6677,8.6677,8.6677,8.6677,8.6677,8.6677,8.6677,8.6677,8.6677,8.6677,8.6677,8.6677,8.6677,8.6677,8.6677,8.6677,8.6677,8.6677,8.6677,8.6677,8.6677,8.6677,8.6677,8.6677,8.6677,8.6677,8.6677,8.6677,8.6677,8.6677,8.6677,8.6677,8.6677,8.6677,8.6677,8.6677,8.6677,8.6677,8.6677,8.6677,8.6677,8.6677,8.6677,8.6677,8.6677,8.6677,8.6677,8.6677,8.6677,8.6677,8.6677,8.6677,8.6677,8.6677,8.6677,8.6677,8.6677,8.6677,8.6677,8.6677,8.6677,8.6677,8.6677,8.6677,8.6677,8.6677,8.6677,8.7118,8.8149,8.858,8.9909,9.2376,9.289,9.3774,9.5191,9.5251,9.5251,9.5251,9.627,9.7487,9.8935,9.868,9.9469,10.1271,10.3141,10.4436,0.0,0.0,0.0,6.9338,6.8563,6.7506,7.2798,7.3162,7.3241,7.5992,7.6771,7.768,8.0218,8.0656,8.0267,7.9007,7.9943,8.0841,8.0867,8.3086,8.4708,8.4708,8.5869,8.6677,8.6677,8.6677,8.6677,8.6677,8.6677,8.6677,8.6677,8.6677,8.6677,8.6677,8.6677,8.6677,8.6677,8.6677,8.6677,8.6677,8.6677,8.6677,8.6677,8.6677,8.6677,8.6677,8.6677,8.6677,8.6677,8.6677,8.6677,8.6677,8.6677,8.6677,8.6677,8.6677,8.6677,8.6677,8.6677,8.6677,8.6677,8.6677,8.6677,8.6677,8.6677,8.6677,8.6677,8.6677,8.6677,8.6677,8.6677,8.6677,8.6677,8.6677,8.6677,8.6677,8.6677,8.6677,8.6677,8.6677,8.6677,8.6677,8.6677,8.6677,8.6677,8.6677,8.6677,8.6677,8.6677,8.6677,8.6677,8.6677,8.6677,8.6714,8.6751,8.8041,8.946,9.0927,9.2312,9.3774,9.5191,9.5251,9.5251,9.5251,9.5284,9.604,9.7452,9.8804,10.0217,10.1695,10.3274,10.5476,6.3254,6.4209,6.5403,6.8975,6.9686,7.0313,7.3161,7.4191,7.5072,7.7092,7.8362,7.9163,7.9321,7.9243,7.9344,8.0033,7.9755,8.0084,8.1914,8.2901,8.3804,8.4678,8.5869,8.6677,8.6677,8.6677,8.6677,8.6677,8.6677,8.6677,8.6677,8.6677,8.6677,8.6677,8.6677,8.6677,8.6677,8.6677,8.6677,8.6677,8.6677,8.6677,8.6677,8.6677,8.6677,8.6677,8.6677,8.653,8.63,8.63,8.63,8.63,8.63,8.63,8.6337,8.6597,8.656,8.6337,8.6604,8.6677,8.6677,8.6677,8.6677,8.6677,8.6677,8.6677,8.6677,8.6677,8.6677,8.6677,8.6677,8.6677,8.6677,8.6677,8.6677,8.6677,8.6677,8.6677,8.6677,8.6677,8.6677,8.6677,8.6677,8.6677,8.6677,8.6677,8.6677,8.6677,8.6677,8.6677,8.6677,8.6677,8.6677,8.6677,8.6677,8.7125,8.8005,8.946,9.0893,9.2344,9.3774,9.4732,9.5251,9.5251,9.5251,9.5481,9.5974,9.7421,9.8835,10.0283,10.1761,10.3504,6.3768,6.5057,6.6251,6.8995,6.9738,7.0345,7.2375,7.386,7.5259,7.6873,7.8378,7.9213,7.8672,7.8431,7.8695,7.9794,7.9269,7.9367,8.1101,8.2178,8.311,8.3954,8.563,8.6677,8.6677,8.6677,8.6677,8.6677,8.6677,8.6677,8.6677,8.6677,8.6677,8.6677,8.6677,8.6677,8.6677,8.6677,8.6677,8.6677,8.6677,8.6677,8.6677,8.6677,8.6677,8.6707,8.653,8.6263,8.5889,8.5889,8.5889,8.5889,8.5889,8.5889,8.5927,8.6188,8.6114,8.5927,8.6188,8.6641,8.6978,8.6419,8.6641,8.6978,8.6604,8.6456,8.6523,8.667,8.6677,8.6677,8.6677,8.6677,8.6677,8.6677,8.6677,8.6677,8.6677,8.6677,8.6677,8.6677,8.6677,8.6677,8.6677,8.6677,8.6677,8.6677,8.6677,8.6677,8.6677,8.6677,8.6677,8.6677,8.6677,8.6677,8.6677,8.6677,8.7531,8.946,8.9978,9.1296,9.3774,9.4272,9.4702,9.5221,9.5251,9.5251,9.5251,9.6665,9.8112,9.956,10.1005,10.2749,6.4808,6.5222,6.5691,6.9498,6.8841,6.7981,7.0711,7.2265,7.3685,7.5487,7.6856,7.7814,7.8194,7.8292,7.8262,7.8326,7.8499,7.8701,7.8761,8.1037,8.2716,8.2776,8.5025,8.6588,8.6588,8.6648,8.6677,8.6677,8.6677,8.6677,8.6677,8.6677,8.6677,8.6677,8.6677,8.6677,8.6677,8.6677,8.6677,8.6677,8.6677,8.6677,8.6677,8.6677,8.667,8.6634,8.6263,8.5852,8.5505,8.5505,8.5505,8.5505,8.5505,8.5505,8.5505,8.5543,8.5505,8.5505,8.5589,8.6507,8.7435,8.6084,8.6574,8.7471,8.6419,8.6076,8.6188,8.656,8.667,8.6641,8.6677,8.6677,8.667,8.6677,8.6677,8.6677,8.6677,8.6677,8.6677,8.6677,8.6677,8.6677,8.6677,8.6677,8.6677,8.6677,8.6677,8.6707,8.6797,8.6797,8.6797,8.6797,8.6797,8.6767,8.6677,8.6677,8.7892,9.0658,8.9633,9.0795,9.4947,9.3899,9.3868,9.5221,9.5251,9.5251,9.5251,9.6599,9.8013,9.9428,10.0906,10.3109,6.3169,6.7516,7.0111,6.9434,6.9617,7.0147,7.0913,7.1297,7.2565,7.6089,7.7102,7.7371,7.7445,7.7445,7.7578,7.7848,7.7951,7.8345,7.9322,8.0277,8.129,8.2273,8.4074,8.5247,8.5247,8.6109,8.6677,8.6677,8.6677,8.6677,8.6677,8.6677,8.6677,8.6677,8.6677,8.6677,8.6677,8.6677,8.6677,8.6677,8.6677,8.6677,8.6677,8.6677,8.6374,8.5814,8.5731,8.5467,8.5117,8.5117,8.5117,8.5117,8.5117,8.5117,8.5126,8.5429,8.5354,8.5278,8.6654,8.7362,8.7615,8.7247,8.7362,8.7398,8.6084,8.5694,8.5739,8.6151,8.6039,8.5964,8.653,8.6485,8.6337,8.6604,8.6677,8.6677,8.6677,8.6677,8.6677,8.6677,8.6677,8.6677,8.6677,8.6677,8.6677,8.6677,8.6677,8.7037,8.8024,8.8174,8.8174,8.8174,8.8174,8.7755,8.6767,8.6677,8.7459,8.9283,9.0046,9.1427,9.3554,9.4333,9.4887,9.5221,9.5251,9.5251,9.5251,9.5613,9.6533,9.7947,9.9427,10.1039,6.3438,6.8231,7.0962,6.8551,6.9022,7.0074,7.0079,7.0559,7.2076,7.6097,7.6424,7.6254,7.6803,7.7059,7.7268,7.744,7.7642,7.8011,7.8748,7.9548,8.031,8.1021,8.2624,8.3649,8.3649,8.4989,8.5839,8.5839,8.6348,8.6677,8.6677,8.6677,8.6677,8.6677,8.6677,8.6677,8.6677,8.6677,8.6634,8.6448,8.6263,8.6188,8.6188,8.6188,8.5852,8.5278,8.5278,8.5012,8.4591,8.4591,8.4591,8.4591,8.4591,8.4591,8.463,8.483,8.4792,8.4868,8.6551,8.7615,8.8189,8.8189,8.8585,8.8761,8.6802,8.6203,8.6166,8.5927,8.5731,8.5656,8.6076,8.6151,8.6188,8.6411,8.6597,8.6604,8.6263,8.6188,8.6188,8.6188,8.6188,8.6367,8.6962,8.7201,8.7493,8.806,8.83,8.8683,8.9401,8.9521,8.9281,8.8713,8.9124,8.8743,8.6857,8.7216,8.791,8.8752,8.9595,9.0929,9.3017,9.3899,9.4611,9.5221,9.5251,9.5251,9.5251,9.5251,9.5974,9.7419,9.8868,10.0283,6.4741,6.8027,6.9593,6.7628,6.8097,6.9073,6.9218,7.012,7.201,7.5786,7.5413,7.4773,7.6076,7.6734,7.7065,7.7065,7.7401,7.7573,7.7573,7.8614,7.9357,7.9357,8.0862,8.1881,8.1881,8.3393,8.4355,8.4391,8.5617,8.6401,8.6438,8.6581,8.6604,8.6604,8.6604,8.6604,8.6604,8.6604,8.6448,8.6114,8.5731,8.5543,8.5543,8.5429,8.5164,8.485,8.485,8.4591,8.4148,8.4148,8.4148,8.4148,8.4148,8.4148,8.4148,8.4148,8.4148,8.4418,8.5957,8.7543,8.8827,8.8827,8.9806,9.0489,8.7801,8.6998,8.6808,8.5739,8.5392,8.5392,8.5505,8.5739,8.5964,8.6002,8.63,8.6344,8.5694,8.5543,8.5543,8.5543,8.5543,8.5897,8.7019,8.7651,8.8445,8.9829,9.028,9.0572,9.0829,9.0829,9.041,8.9281,9.0171,8.9842,8.7426,8.8084,8.8785,8.9059,8.8919,9.0118,9.2985,9.3112,9.3806,9.5221,9.5251,9.5251,9.5251,9.5251,9.5876,9.7156,9.8572,9.9987,6.5912,6.7758,6.7658,6.8328,6.8746,6.9306,7.0353,7.0792,7.201,7.5786,7.4681,7.3435,7.4715,7.5913,7.6676,7.6676,7.674,7.6775,7.6775,7.7264,7.759,7.759,7.9115,8.0123,8.0123,8.1376,8.2325,8.2618,8.3874,8.4764,8.5061,8.5815,8.6225,8.6225,8.6225,8.6225,8.6225,8.6225,8.6188,8.6114,8.5731,8.5543,8.5505,8.4754,8.437,8.4332,8.4332,8.4225,8.4148,8.4148,8.4148,8.4148,8.4148,8.4148,8.4148,8.4148,8.4148,8.4418,8.5957,8.7543,8.8827,8.8827,8.9806,9.0455,8.7513,8.6595,8.6366,8.5324,8.4715,8.4601,8.5354,8.5316,8.5231,8.5543,8.5694,8.5664,8.5543,8.5543,8.5543,8.5543,8.5543,8.5602,8.5838,8.6791,8.8136,8.9722,9.0047,9.059,9.2016,9.2205,9.2115,9.1876,9.2056,9.1577,9.0021,8.9132,8.914,9.0373,8.9406,9.0118,9.2985,9.3112,9.3806,9.5221,9.5251,9.5251,9.5251,9.5251,9.5383,9.5646,9.7092,9.8539,6.406,6.6615,6.803,6.8659,6.9425,6.98,6.9075,6.9977,7.1632,7.4041,7.3086,7.2359,7.4313,7.5151,7.5791,7.6483,7.66,7.66,7.66,7.6746,7.685,7.685,7.7755,7.8381,7.8381,7.9734,8.0678,8.0891,8.2105,8.3251,8.4086,8.4555,8.5096,8.5777,8.5777,8.5777,8.5777,8.5777,8.5731,8.5505,8.5316,8.5088,8.4792,8.4341,8.4148,8.4148,8.4148,8.4148,8.4148,8.4148,8.4148,8.4148,8.4148,8.4148,8.4148,8.4148,8.4148,8.4418,8.5957,8.6998,8.7759,8.858,8.9318,8.9426,8.718,8.6484,8.6218,8.4915,8.437,8.4264,8.4715,8.4898,8.5003,8.5164,8.5012,8.483,8.483,8.483,8.483,8.483,8.483,8.5035,8.5709,8.688,8.868,9.1322,9.1899,9.2307,9.3132,9.3221,9.2873,9.2008,9.2513,9.2217,9.0429,9.034,9.0166,8.9662,8.9804,9.0482,9.1952,9.2019,9.3017,9.5221,9.5251,9.5251,9.5251,9.5251,9.5251,9.5284,9.6728,9.8144,6.2718,6.5898,6.8516,6.8814,6.971,7.0065,6.829,6.9483,7.1054,7.1429,7.14,7.1869,7.3556,7.4482,7.5297,7.6018,7.6425,7.66,7.66,7.66,7.66,7.66,7.685,7.7059,7.7059,7.8241,7.904,7.9174,8.0353,8.1568,8.2673,8.296,8.3661,8.495,8.4979,8.5126,8.5392,8.5392,8.524,8.4965,8.4821,8.4553,8.4148,8.4148,8.4148,8.4148,8.4148,8.4148,8.4148,8.4148,8.4148,8.4148,8.4148,8.4148,8.4148,8.4148,8.4148,8.4341,8.5546,8.6255,8.6705,8.7939,8.8545,8.8545,8.6961,8.6484,8.6151,8.4619,8.4148,8.4148,8.4148,8.4485,8.4745,8.4745,8.4447,8.4148,8.4148,8.4148,8.4148,8.4148,8.4148,8.4555,8.5873,8.7192,8.9064,9.2141,9.3181,9.3616,9.3768,9.3768,9.326,9.1948,9.2716,9.2613,9.086,9.1474,9.1077,8.9069,8.9827,9.0495,9.0956,9.1261,9.2473,9.4732,9.5101,9.5251,9.5251,9.5251,9.5251,9.5284,9.6402,9.7848,6.4674,6.6681,6.7514,6.8708,6.9078,6.9422,7.0385,7.0792,7.0298,6.8028,7.0207,7.2301,7.1429,7.4104,7.6047,7.4977,7.582,7.66,7.66,7.66,7.66,7.66,7.6635,7.667,7.667,7.6757,7.699,7.7345,7.8617,7.9516,8.0047,8.0851,8.1902,8.3215,8.3206,8.3801,8.4974,8.5003,8.4965,8.4965,8.4447,8.4187,8.4148,8.4148,8.4148,8.4148,8.4148,8.4148,8.4148,8.4148,8.4148,8.4148,8.4148,8.4148,8.4148,8.4148,8.4148,8.4187,8.4341,8.5312,8.6521,8.6698,8.7657,8.8545,8.6961,8.6484,8.6151,8.4619,8.4148,8.4148,8.4148,8.4187,8.4225,8.4225,8.4187,8.4148,8.4148,8.4148,8.4148,8.4148,8.4148,8.4555,8.5873,8.7192,8.857,9.0066,9.1634,9.2822,9.3318,9.3359,9.3329,9.3129,9.3259,9.3229,9.3034,9.2352,9.1345,8.9957,8.9235,8.9477,9.0923,9.2214,9.3049,9.3303,9.458,9.5251,9.5251,9.5251,9.5251,9.5251,9.5383,9.6897,5.9983,6.2843,6.4856,6.5379,6.6659,6.797,6.8494,6.8424,6.8271,6.8227,6.9263,7.0297,7.0876,7.2156,7.3523,7.4487,7.5064,7.5704,7.6483,7.66,7.66,7.66,7.66,7.66,7.66,7.66,7.667,7.6816,7.7311,7.7995,7.8925,7.9344,8.0118,8.1431,8.2219,8.2898,8.3424,8.4106,8.4485,8.4485,8.4293,8.4148,8.4148,8.4148,8.4148,8.4148,8.4148,8.4148,8.4148,8.4148,8.4148,8.4148,8.4148,8.4148,8.4148,8.4148,8.4148,8.4148,8.4148,8.458,8.5084,8.5084,8.5538,8.5883,8.5274,8.5084,8.4971,8.4341,8.4148,8.4148,8.4148,8.4148,8.4148,8.4148,8.4148,8.4148,8.4148,8.4148,8.4148,8.4148,8.4148,8.4826,8.693,8.7715,8.8762,9.0885,9.1947,9.2573,9.2851,9.2822,9.2739,9.2519,9.2477,9.2602,9.2851,9.2517,9.2374,9.258,9.1403,9.148,9.3126,9.2921,9.3271,9.4364,9.4947,9.5161,9.5013,9.5013,9.5013,9.5013,9.5013,9.6154,5.7346,6.0316,6.2561,6.343,6.4938,6.63,6.6798,6.632,6.6337,6.8416,6.8927,6.9235,7.0043,7.0833,7.1791,7.3156,7.41,7.4948,7.5908,7.6338,7.66,7.66,7.66,7.66,7.66,7.66,7.66,7.66,7.66,7.6977,7.7914,7.7972,7.8554,7.987,8.0772,8.1653,8.241,8.3237,8.3809,8.4148,8.4148,8.4148,8.4148,8.4148,8.4148,8.4148,8.4148,8.4148,8.4148,8.4148,8.4148,8.4148,8.4148,8.4148,8.4148,8.4148,8.4148,8.4148,8.4148,8.4148,8.4148,8.4148,8.4465,8.4771,8.4302,8.4495,8.4771,8.4302,8.4148,8.4148,8.4148,8.4148,8.4148,8.4148,8.4148,8.4148,8.4148,8.4148,8.4148,8.4148,8.4468,8.5466,8.7657,8.8384,8.9373,9.1613,9.2184,9.2352,9.2352,9.2352,9.2268,9.2004,9.1962,9.2059,9.2352,9.2477,9.2942,9.3883,9.269,9.2724,9.4355,9.3659,9.3556,9.4304,9.495,9.504,9.4678,9.48,9.4863,9.4863,9.4863,9.5767,5.8914,6.0453,6.1147,6.4002,6.4429,6.4564,6.6107,6.5288,6.4991,6.7834,6.946,6.995,6.8677,7.0561,7.1894,7.0618,7.2798,7.4662,7.4691,7.5791,7.66,7.66,7.66,7.66,7.66,7.66,7.66,7.66,7.66,7.66,7.66,7.66,7.7181,7.8496,7.8554,7.9841,8.241,8.2439,8.3042,8.4148,8.4148,8.4148,8.4148,8.4148,8.4148,8.4148,8.4148,8.4148,8.4148,8.4148,8.4148,8.4148,8.4148,8.4148,8.4148,8.4148,8.4148,8.4148,8.4148,8.4148,8.4148,8.4148,8.5198,8.6218,8.4619,8.5236,8.6144,8.458,8.4148,8.4148,8.4148,8.4148,8.4148,8.4148,8.4148,8.4148,8.4148,8.4148,8.4148,8.4148,8.5233,8.6523,8.7832,8.91,9.0437,9.1758,9.1962,9.1962,9.1962,9.1962,9.1962,9.1962,9.1962,9.1962,9.1962,9.231,9.2727,9.3093,9.2121,9.2272,9.3823,9.4497,9.3998,9.2179,9.4181,9.495,9.4275,9.4678,9.4863,9.4863,9.4863,9.5767,5.5393,5.7827,5.9568,6.1348,6.2324,6.3352,6.5376,6.5452,6.5332,6.6257,6.6965,6.7296,6.6894,6.8155,6.9418,6.9878,7.0956,7.2317,7.4117,7.3944,7.4405,7.6378,7.5622,7.5408,7.6494,7.5622,7.5443,7.65,7.5586,7.5443,7.65,7.66,7.6774,7.7181,7.8089,7.9339,8.1063,8.1974,8.3013,8.4148,8.4148,8.4148,8.4148,8.4148,8.4148,8.4148,8.4148,8.4148,8.4148,8.4148,8.4148,8.4148,8.4148,8.4148,8.4148,8.4148,8.4148,8.4148,8.4148,8.4148,8.4148,8.4148,8.4504,8.481,8.4302,8.4504,8.481,8.4302,8.4148,8.4148,8.4148,8.4148,8.4148,8.4148,8.4148,8.4148,8.4148,8.4148,8.4148,8.4148,8.5233,8.6512,8.7832,8.917,9.0437,9.1758,9.1962,9.1962,9.1962,9.1962,9.1962,9.1962,9.1962,9.1962,9.1962,9.2059,9.2782,9.4208,9.3921,9.4112,9.504,9.5624,9.5191,9.3652,9.4523,9.4648,9.3872,9.4029,9.406,9.406,9.4338,9.4907,5.3565,5.6373,5.8488,5.9886,6.0342,6.1165,6.3965,6.4643,6.4674,6.4831,6.5389,6.5717,6.5288,6.6571,6.7939,6.8771,7.0013,7.1084,7.1646,7.1819,7.2309,7.3493,7.3281,7.3478,7.4429,7.3772,7.3699,7.4675,7.3846,7.402,7.5622,7.5693,7.6006,7.6564,7.7355,7.8438,7.9754,8.1034,8.2314,8.3527,8.3954,8.4148,8.4148,8.4148,8.4148,8.4148,8.4148,8.4148,8.4148,8.4148,8.4148,8.4148,8.4148,8.4148,8.4148,8.4148,8.4148,8.4148,8.4148,8.4148,8.4148,8.4148,8.4571,8.4962,8.4341,8.458,8.4924,8.4341,8.4148,8.4148,8.4148,8.4148,8.4148,8.4148,8.4619,8.4886,8.4302,8.5084,8.5613,8.4418,8.609,8.7828,8.801,8.9577,9.0989,9.1845,9.1962,9.1962,9.1962,9.1962,9.1962,9.1962,9.1962,9.1962,9.1962,9.1962,9.2751,9.461,9.4684,9.4907,9.5418,9.5317,9.4851,9.3936,9.44,9.4277,9.3559,9.3685,9.3684,9.3715,9.3934,9.4244,5.315,5.5743,5.7669,5.9285,5.8829,5.8853,6.2379,6.3168,6.329,6.363,6.4572,6.4998,6.389,6.5652,6.7301,6.7386,6.9633,7.0529,6.8053,6.9544,7.0419,6.9095,7.0184,7.1049,7.112,7.1349,7.1576,7.1689,7.1614,7.2346,7.415,7.4259,7.4977,7.65,7.66,7.721,7.8496,7.9841,8.1063,8.2256,8.346,8.4061,8.411,8.4148,8.4148,8.4148,8.4148,8.4148,8.4148,8.4148,8.4148,8.4148,8.4148,8.4148,8.4148,8.4148,8.4148,8.4148,8.4148,8.4148,8.4148,8.4148,8.516,8.6069,8.4619,8.5198,8.6032,8.458,8.4148,8.4148,8.4148,8.4148,8.4148,8.4148,8.5274,8.5957,8.4648,8.6595,8.7826,8.5041,8.7695,8.9918,8.8433,9.0275,9.1962,9.1962,9.1962,9.1962,9.1962,9.1962,9.1962,9.1962,9.1962,9.2004,9.2101,9.2101,9.2834,9.451,9.4752,9.4907,9.5036,9.4136,9.3547,9.3306,9.3935,9.3903,9.3306,9.3559,9.3652,9.3652,9.3684,9.3903,5.1846,5.3659,5.5244,5.75,6.0012,6.2097,6.2999,6.3168,6.3168,6.329,6.3518,6.3631,6.3349,6.4595,6.5956,6.6885,6.7503,6.7965,6.8356,6.8441,6.8846,6.9872,6.9967,7.0285,7.1049,7.0046,7.0007,7.1614,7.0639,7.1202,7.4113,7.4259,7.4977,7.65,7.66,7.721,7.8496,7.9841,8.0479,8.0493,8.2077,8.3113,8.3732,8.4032,8.4148,8.4148,8.4148,8.4148,8.4148,8.4148,8.4148,8.4148,8.4148,8.4148,8.4148,8.4148,8.4148,8.4148,8.4148,8.4148,8.4148,8.4148,8.4418,8.4657,8.4302,8.4427,8.4619,8.4264,8.4148,8.4148,8.4148,8.4148,8.4148,8.4148,8.4427,8.4962,8.5771,8.6551,8.7115,8.7416,8.9058,9.0216,8.9659,9.0844,9.1962,9.1962,9.1962,9.1962,9.1962,9.1962,9.1962,9.1962,9.1962,9.2448,9.3761,9.3883,9.455,9.6148,9.6485,9.6132,9.5106,9.5217,9.4658,9.3338,9.3653,9.3685,9.3306,9.337,9.3401,9.3401,9.3622,9.3746,5.1544,5.3804,5.5865,5.719,5.905,6.0743,6.1337,6.1871,6.2125,6.1591,6.193,6.2125,6.1563,6.2974,6.4642,6.5851,6.6383,6.6173,6.4887,6.4788,6.5367,6.6643,6.6723,6.735,6.8839,6.793,6.7661,6.8824,6.8085,6.8693,7.1251,7.2298,7.3478,7.4855,7.5977,7.6849,7.7374,7.7723,7.8483,7.9658,8.1085,8.2402,8.3587,8.381,8.3887,8.3887,8.3887,8.38,8.3644,8.381,8.3887,8.3887,8.411,8.4071,8.3887,8.3887,8.38,8.3644,8.3839,8.3887,8.3955,8.411,8.4071,8.3955,8.411,8.4071,8.3955,8.411,8.4148,8.411,8.3955,8.4032,8.4148,8.4148,8.4733,8.5462,8.6329,8.7071,8.7755,8.8339,8.9504,9.0335,9.0026,9.1118,9.1962,9.1962,9.1962,9.1962,9.1962,9.1962,9.1962,9.1962,9.1962,9.231,9.3217,9.4015,9.483,9.568,9.8027,9.841,9.6274,9.5115,9.4106,9.3306,9.3432,9.3432,9.3306,9.3306,9.3306,9.3306,9.3432,9.3527,5.1967,5.4904,5.7528,5.7528,5.7697,5.812,5.9222,6.0237,6.0745,5.9899,6.0519,6.0912,5.9928,6.1789,6.3764,6.467,6.5589,6.4804,6.0885,6.1166,6.1978,6.2563,6.3158,6.4239,6.6062,6.5731,6.545,6.5491,6.5491,6.6219,6.7914,6.9697,7.1235,7.2477,7.4538,7.5458,7.5035,7.4429,7.5686,7.8811,7.9904,8.1469,8.3421,8.346,8.347,8.347,8.347,8.3303,8.3018,8.3343,8.347,8.3538,8.3877,8.3771,8.347,8.347,8.3293,8.3058,8.3382,8.3509,8.3654,8.4032,8.3887,8.3654,8.3994,8.3849,8.3654,8.3916,8.3994,8.3916,8.3654,8.3849,8.4148,8.4456,8.5508,8.6631,8.7077,8.823,8.9151,8.9065,8.9967,9.0638,9.033,9.1193,9.1962,9.1962,9.1962,9.1962,9.1962,9.1962,9.1962,9.1962,9.1962,9.2017,9.231,9.3883,9.474,9.449,9.8947,10.0262,9.7362,9.4717,9.3282,9.3306,9.3306,9.3306,9.3306,9.3306,9.3306,9.3306,9.3306,9.3306,5.296,5.5499,5.7528,5.7528,5.8375,5.9222,5.9449,5.9589,5.9984,6.0829,6.111,6.1166,6.0997,6.3089,6.4529,6.3622,6.4221,6.4035,6.1721,6.1967,6.2472,6.2571,6.3532,6.4449,6.5101,6.5103,6.5145,6.5491,6.5491,6.6219,6.7914,6.8351,6.9203,7.0696,7.1115,7.1142,7.0739,7.095,7.2901,7.6518,7.7102,7.9227,8.2642,8.294,8.3097,8.3097,8.3097,8.3058,8.2979,8.3058,8.3097,8.3097,8.3136,8.3136,8.3097,8.3097,8.3058,8.3018,8.3097,8.3303,8.3654,8.4032,8.3887,8.3616,8.3654,8.3654,8.3538,8.3254,8.3176,8.3254,8.3538,8.3654,8.409,8.5771,8.6329,8.7187,8.974,9.0489,9.09,9.1741,9.2052,9.2083,9.1704,9.1816,9.1962,9.1962,9.1962,9.1962,9.1962,9.1962,9.1962,9.1962,9.1962,9.2531,9.3934,9.5553,9.59,9.47,9.8036,9.8781,9.5914,9.5331,9.4496,9.3338,9.3306,9.3306,9.3306,9.3306,9.3306,9.3306,9.3306,9.3306,5.3526,5.564,5.7726,5.8403,5.9053,5.9477,5.9477,5.9477,5.9617,6.0182,6.0265,6.0265,6.0265,6.176,6.3256,6.4105,6.4392,6.4179,6.314,6.1293,6.0692,6.2401,6.2571,6.3288,6.5258,6.4957,6.4697,6.488,6.488,6.5227,6.5999,6.7125,6.798,6.8469,6.9722,6.9683,6.8205,6.8377,7.0376,7.4229,7.5562,7.7809,8.0953,8.2148,8.2692,8.2692,8.2692,8.2562,8.2364,8.2602,8.2692,8.2692,8.2929,8.2861,8.2692,8.2692,8.2562,8.2364,8.2364,8.2642,8.3018,8.341,8.3254,8.3008,8.3186,8.3136,8.2861,8.2483,8.2653,8.3008,8.294,8.3897,8.5093,8.5995,8.6998,8.8586,9.1493,9.0788,9.0675,9.4331,9.3709,9.2701,9.3231,9.33,9.3,9.2059,9.1962,9.1962,9.1962,9.1962,9.1962,9.1962,9.1962,9.2268,9.3011,9.466,9.5763,9.603,9.7612,9.762,9.5495,9.5431,9.4787,9.3338,9.3306,9.3306,9.3306,9.3306,9.3306,9.3306,9.3306,9.3306,5.3727,0.0,5.7341,5.8698,5.8746,5.8687,0.0,5.9243,5.9097,5.9302,5.9419,5.9448,5.936,6.0375,6.1864,6.3803,6.4139,6.3912,6.3265,6.0444,5.9356,6.1928,6.1986,6.2807,6.528,6.481,6.4346,6.4346,6.4346,6.4346,6.4346,6.5835,6.6569,6.6253,6.8033,6.8087,6.6294,6.6253,6.8218,7.2145,7.3608,7.6174,7.9547,8.0953,8.1856,8.2284,8.2284,8.2113,8.1861,8.2153,8.2284,8.2284,8.2642,8.2534,8.2284,8.2284,8.2073,8.182,8.182,8.2073,8.2483,8.2771,8.2653,8.2483,8.2771,8.2602,8.2233,8.1901,8.2244,8.2653,8.2483,8.4042,8.5696,8.5883,8.7362,8.9513,9.248,9.1223,9.1044,9.619,9.529,9.393,9.4867,9.471,9.4015,9.2739,9.2184,9.1962,9.1962,9.1962,9.1962,9.1962,9.1962,9.2101,9.249,9.3842,9.5068,9.6136,9.6748,9.6428,9.5012,9.4916,9.4433,9.3338,9.3306,9.3306,9.3306,9.3306,9.3306,9.3306,9.3306,9.3306,0.0,5.4596,5.5895,5.7315,5.6675,5.6372,5.8921,5.8567,0.0,5.8744,5.9243,5.936,5.9038,6.0196,6.1219,6.1153,6.2158,6.233,6.0583,6.0106,6.0239,6.1061,6.2905,6.4199,6.4444,6.4395,6.4346,6.4346,6.4346,6.4346,6.4346,6.4488,6.4572,6.453,6.4697,6.4697,6.453,6.453,6.6486,7.0318,7.0513,7.3505,7.8968,7.9134,8.0164,8.1861,8.1861,8.1861,8.182,8.1861,8.1861,8.1861,8.1901,8.1901,8.1861,8.1861,8.1861,8.182,8.182,8.2073,8.2403,8.2443,8.2443,8.2403,8.2443,8.2193,8.1861,8.182,8.1861,8.2021,8.2352,8.3654,8.5026,8.5771,8.7144,8.9196,9.2411,9.2931,9.3644,9.6616,9.7006,9.6801,9.6675,9.5435,9.4459,9.4298,9.2958,9.1962,9.1962,9.1962,9.1962,9.1962,9.1962,9.2573,9.4177,9.4513,9.4265,9.3271,9.4737,9.498,9.3531,9.3467,9.3403,9.3306,9.3306,9.3306,9.3306,9.3306,9.3306,9.3306,9.3306,9.3306,5.2579,5.4064,5.5477,5.5753,5.5629,5.5909,5.7825,5.7702,5.7582,5.8979,5.9185,5.9155,5.9243,5.9755,6.0487,6.1531,6.2902,6.3094,6.0879,6.1293,6.1085,5.8883,6.0793,6.2832,6.4199,6.4346,6.4346,6.4346,6.4346,6.4346,6.4346,6.4346,6.4346,6.4346,6.4346,6.4346,6.4346,6.4346,6.5391,6.7543,6.9318,7.1689,7.4652,7.7586,7.9327,8.0082,8.1321,8.182,0.0,8.182,8.182,8.182,8.182,8.182,8.182,8.182,8.182,8.182,8.182,8.1941,8.2033,8.2033,8.2033,8.2033,8.2033,8.1941,8.182,8.182,8.182,8.1861,8.2021,8.3353,8.4739,8.5005,8.6652,8.9243,9.3201,9.3423,9.43,9.9145,9.9259,9.8518,9.8399,9.6358,9.4661,9.451,9.2334,9.1018,9.1845,9.1962,9.1962,9.1962,9.1962,9.2646,9.4419,9.3933,9.3825,9.4444,9.4238,9.3886,9.3338,9.3306,9.3306,9.3306,9.3306,9.3306,9.3306,9.3306,9.3306,9.3306,9.3306,9.3306,5.1524,5.2716,5.3799,5.3985,5.3921,5.4305,5.6152,5.5997,5.6028,5.7973,5.8212,5.8274,5.8863,5.9067,5.9531,6.0552,6.207,6.2223,5.9841,6.0752,6.0839,5.8468,5.9779,6.1767,6.4126,6.4346,6.4346,6.4346,6.4346,6.4346,6.4346,6.4346,6.4346,6.4346,6.4346,6.4346,6.4346,6.4346,6.4883,6.5915,6.8229,7.0209,7.2042,7.5605,7.7811,7.901,8.0315,8.128,8.182,8.182,8.182,8.182,8.182,8.182,8.182,8.182,8.182,8.182,8.182,8.182,8.182,8.182,8.182,8.182,8.182,8.182,8.182,8.182,8.182,8.182,8.182,8.3118,8.4358,8.3964,8.5502,8.8173,9.2348,9.2555,9.3628,9.939,9.956,9.8614,9.8121,9.6671,9.523,9.4039,9.2882,9.2092,9.1971,9.2406,9.2531,9.2004,9.2014,9.2625,9.4013,9.3377,9.3424,9.469,9.3853,9.3306,9.3306,9.3306,9.3306,9.3306,9.3306,9.3306,9.3306,9.3306,9.3306,9.3306,9.3306,9.3306,5.0206,5.0365,5.068,5.1928,5.1279,5.106,5.3793,5.3309,5.2985,5.5494,5.6183,5.6679,5.7732,5.8237,5.828,5.7631,5.8832,5.9099,5.6858,5.7901,5.9289,6.029,6.0461,6.1469,6.406,6.4321,6.4346,6.4346,6.4346,6.4346,6.4346,6.4346,6.4346,6.4346,6.4346,6.4346,6.4346,6.4346,6.4883,6.589,6.6945,6.9025,7.1886,7.2986,7.544,7.8858,7.8926,8.0,8.182,8.182,8.182,8.182,8.182,8.182,8.182,8.182,8.182,8.182,8.182,8.182,8.182,8.182,8.182,8.182,8.182,8.182,8.182,8.182,8.182,8.182,8.182,8.2979,8.3858,8.2692,8.3587,8.5736,8.9386,9.0207,9.1674,9.6633,9.7587,9.7121,9.5564,9.6349,9.6109,9.3071,9.4985,9.561,9.2406,9.3434,9.3853,9.2155,9.2199,9.2493,9.2878,9.2903,9.3012,9.3275,9.3306,9.3306,9.3306,9.3306,9.3306,9.3306,9.3306,9.3306,9.3306,9.3306,9.3306,9.3306,9.3306,9.3306,4.9568,4.991,5.0342,5.0497,5.0419,5.0791,5.252,5.2429,5.2822,5.5664,5.5357,5.5357,5.7878,5.7612,5.7025,5.7127,5.8457,5.856,5.6087,5.7109,5.787,5.736,5.8927,6.0462,6.1517,6.3277,6.4346,6.4346,6.3987,6.3945,6.4346,6.4346,6.4346,6.4346,6.4346,6.4346,6.4346,6.4346,6.4492,6.4834,6.6622,6.7911,6.8869,7.2012,7.4045,7.5222,7.7811,7.9258,7.9877,8.128,8.182,8.182,8.182,8.182,8.182,8.182,8.182,8.182,8.182,8.182,8.182,8.182,8.182,8.182,8.182,8.182,8.182,8.182,8.182,8.182,8.182,8.2193,8.2443,8.2073,8.3421,8.5661,8.9057,9.0911,9.3094,9.6833,9.7587,9.7744,9.8303,9.6959,9.6159,9.718,9.6253,9.5396,9.5362,9.4938,9.4408,9.3904,9.3194,9.2797,9.2897,9.3093,9.321,9.3306,9.3306,9.3306,9.3306,9.3306,9.3306,9.3306,9.3306,9.3306,9.3306,9.3306,9.3306,9.3306,9.3306,9.3306,4.9237,4.9534,4.9808,4.9603,4.9705,5.0114,5.0886,5.0929,5.1497,5.3863,5.3574,5.3574,5.6024,5.578,5.5383,5.5892,5.6727,5.6885,5.5553,5.6219,5.6759,5.6634,5.8347,5.9963,6.096,6.2743,6.3843,6.3987,6.3735,6.3693,6.3987,6.4029,6.4112,6.4346,6.4346,6.4346,6.4346,6.4346,6.4346,6.437,6.6476,6.7457,6.7574,7.0888,7.2804,7.3583,7.5787,7.7557,7.901,8.0192,8.1131,8.182,8.182,8.182,8.182,8.182,8.182,8.182,8.182,8.182,8.182,8.182,8.182,8.182,8.182,8.182,8.182,8.182,8.182,8.182,8.182,8.182,8.182,8.182,8.3215,8.5278,8.8018,9.0071,9.2223,9.4931,9.5586,9.5904,9.6775,9.637,9.6132,9.6625,9.6619,9.6202,9.523,9.4926,9.458,9.3882,9.3337,9.309,9.309,9.321,9.3306,9.3306,9.3306,9.3306,9.3306,9.3306,9.3306,9.3306,9.3306,9.3306,9.3306,9.3306,9.3306,9.3306,9.3306,9.3306,4.9202,4.9202,4.9202,4.9202,4.9202,4.9202,4.9202,4.9202,4.9613,5.1011,5.1212,5.1588,5.314,5.3436,5.3635,5.4307,5.4498,5.4734,5.5331,5.5381,5.591,5.7329,5.8447,5.9813,6.1689,6.2545,6.3126,6.3398,6.3482,6.3482,6.3416,6.3525,6.3819,6.4346,6.4346,6.4346,6.4346,6.4346,6.4346,6.437,6.6476,6.7457,6.753,6.9743,7.1654,7.3251,7.3405,7.544,7.8691,7.8816,8.0041,8.182,8.182,8.182,8.182,8.182,8.182,8.182,8.182,8.182,8.182,8.182,8.182,8.182,8.182,8.182,8.182,8.182,8.182,8.182,8.182,8.182,8.182,8.182,8.3018,8.4646,8.6468,8.82,8.9937,9.1749,9.2438,9.2755,9.2908,9.5153,9.6042,9.3519,9.6549,9.7625,9.3389,9.418,9.4441,9.2719,9.2977,9.3274,9.3306,9.3306,9.3306,9.3306,9.3306,9.3306,9.3306,9.3306,9.3306,9.3306,9.3306,9.3306,9.3306,9.3306,9.3306,9.3306,9.3306,9.3306,4.9202,4.9202,4.9202,4.9202,4.9202,4.9202,4.9202,4.9202,4.9613,5.1011,5.0405,5.0439,5.2977,5.3211,5.3305,5.4277,5.5107,5.5577,5.5425,5.5381,5.5794,5.6941,5.827,5.9569,6.0817,6.2186,6.283,6.2508,6.2872,6.2914,6.2508,6.3187,6.3819,6.4346,6.4346,6.4346,6.4346,6.4346,6.4346,6.437,6.6476,6.7457,6.753,6.9743,7.0949,7.1427,7.2849,7.4724,7.6878,7.8315,8.0041,8.182,8.182,8.182,8.182,8.182,8.182,8.182,8.182,8.182,8.182,8.182,8.182,8.182,8.182,8.182,8.182,8.182,8.182,8.182,8.182,8.182,8.182,8.182,8.3018,8.434,8.4946,8.738,8.9595,9.0217,9.1455,9.2851,9.4189,9.5591,9.6448,9.6142,9.7862,9.828,9.5889,9.546,9.4677,9.2869,9.2758,9.2987,9.3274,9.3306,9.3306,9.3306,9.3306,9.3306,9.3306,9.3306,9.3306,9.3306,9.3306,9.3306,9.3306,9.3306,9.3306,9.3306,9.3306,9.3306,4.9202,4.9202,4.9202,4.9202,4.9202,4.9202,4.9202,4.9202,4.9525,5.0778,5.0448,5.0544,5.2511,5.2744,5.2958,5.4009,5.4592,5.507,5.5357,5.5381,5.5981,5.75,5.8357,5.9519,6.1218,6.1964,6.2319,6.2191,6.2252,6.221,6.1953,6.2551,6.3229,6.3945,6.3987,6.4071,6.4346,6.4346,6.4346,6.437,6.6476,6.7457,6.753,6.9743,7.0765,7.0811,7.1791,7.3201,7.503,7.6835,7.8746,8.0547,8.147,8.182,8.182,8.182,8.182,8.182,8.182,8.182,8.182,8.182,8.182,8.182,8.182,8.182,8.182,8.182,8.182,8.182,8.182,8.182,8.182,8.182,8.2443,8.3303,8.4195,8.7419,9.0015,8.9445,9.1322,9.3286,9.4216,9.4816,9.5259,9.5662,9.6167,9.6034,9.4632,9.4133,9.3528,9.2371,9.2536,9.2794,9.3019,9.3178,9.3306,9.3306,9.3306,9.3306,9.3306,9.3306,9.3306,9.3306,9.3306,9.3306,9.3306,9.3306,9.3306,9.3306,9.3306,9.3306,4.9202,4.9202,4.9202,4.9202,4.9202,4.9202,4.9202,4.9202,4.9483,5.0511,5.0722,5.1072,5.2111,5.2425,5.2868,5.3933,5.412,5.447,5.5498,5.5537,5.6191,5.8248,5.8523,5.9465,6.185,6.1825,6.1758,6.2081,6.1782,6.163,6.163,6.1996,6.2551,6.3314,6.3398,6.3693,6.4196,6.4304,6.4346,6.4346,6.6281,6.7164,6.7238,6.9234,7.028,7.0451,7.0451,7.1617,7.3583,7.5117,7.7006,7.9093,8.0697,8.1551,8.182,8.182,8.182,8.182,8.182,8.182,8.182,8.182,8.182,8.182,8.182,8.182,8.182,8.182,8.182,8.182,8.182,8.182,8.182,8.182,8.182,8.2193,8.3499,8.6722,8.9204,8.8546,9.0807,9.2992,9.3457,9.3582,9.3681,9.3828,9.3754,9.3337,9.2269,9.2143,9.2078,9.1848,9.234,9.2697,9.2826,9.3114,9.3306,9.3306,9.3306,9.3306,9.3306,9.3306,9.3306,9.3306,9.3306,9.3306,9.3306,9.3306,9.3306,9.3306,9.3306,9.3306,4.9202,4.9202,4.9202,4.9202,4.9202,4.9202,4.9202,4.9202,4.9483,5.0511,5.0722,5.1072,5.2111,5.3008,5.398,5.5007,5.5171,5.5583,5.6612,5.5981,5.6191,5.8248,5.8523,5.9341,6.1485,6.163,6.163,6.1672,6.163,6.163,6.163,6.1996,6.2276,6.238,6.283,6.3253,6.3669,6.4112,6.4346,6.4346,6.5524,6.611,6.6159,6.7311,6.8384,6.9262,6.9262,7.0878,7.3494,7.376,7.5873,7.8968,7.9217,8.0315,8.182,8.182,8.182,8.182,8.182,8.182,8.182,8.182,8.182,8.182,8.182,8.182,8.182,8.182,8.182,8.182,8.182,8.182,8.182,8.182,8.182,8.1901,8.2113,8.2625,8.3808,8.6329,8.824,9.0013,9.1736,9.2745,9.3087,9.2193,9.2984,9.3103,9.151,9.1319,9.1552,9.2176,9.234,9.26,9.3179,9.3274,9.3306,9.3306,9.3306,9.3306,9.3306,9.3306,9.3306,9.3306,9.3306,9.3306,9.3306,9.3306,9.3306,9.3306,9.3306,9.3306,4.9202,4.9202,4.9202,4.9202,4.9202,4.9202,4.9202,4.9202,4.9635,5.127,5.1597,5.2111,5.3723,5.44,5.4867,5.5311,5.5381,5.5583,5.6027,5.57,5.6191,5.8248,5.8523,5.9341,6.1442,6.163,6.163,6.163,6.163,6.163,6.163,6.1758,6.1867,6.1867,6.2319,6.2617,6.2806,6.3525,6.4029,6.4346,6.5378,6.589,6.5939,6.7013,6.7701,6.8164,6.8164,6.8897,7.0265,7.2236,7.3999,7.5693,7.8417,7.9959,8.0833,8.1567,8.182,8.182,8.182,8.0889,7.9761,8.0494,8.0748,8.0889,8.1623,8.182,8.182,8.182,8.182,8.182,8.182,8.182,8.182,8.182,8.182,8.182,8.182,8.2523,8.4051,8.7096,8.9672,9.1381,9.1411,9.1821,9.1943,9.148,9.1924,9.2015,9.1281,9.1153,9.1385,9.1946,9.2209,9.2502,9.2922,9.3179,9.3306,9.3306,9.3306,9.3306,9.3306,9.3306,9.3306,9.3306,9.3306,9.3306,9.3306,9.3306,9.3306,9.3306,9.3306,9.3306,4.9074,4.9202,4.9202,4.9202,4.9202,4.9202,4.9202,4.9202,4.9682,5.1527,5.2074,5.2882,5.4657,5.5233,5.5474,5.5731,5.5583,5.5513,5.5731,5.5583,5.6074,5.7874,5.8108,5.8944,6.1002,6.1255,6.1255,6.1255,6.1255,6.1372,6.163,6.163,6.163,6.163,6.191,6.2081,6.2191,6.2891,6.3525,6.4179,6.5067,6.55,6.5524,6.6305,6.6818,6.7043,6.7043,6.7189,6.7652,7.031,7.1896,7.3048,7.6628,7.8621,7.9507,8.0494,8.0833,8.0833,8.0833,7.9563,7.8096,7.9056,7.9394,7.9563,8.0551,8.0833,8.0833,8.0833,8.1059,8.1341,8.1341,8.1567,8.182,8.182,8.182,8.182,8.182,8.3058,8.4823,8.7054,9.0004,9.1832,9.0737,9.0918,9.1153,9.1153,9.1153,9.1153,9.1153,9.1153,9.1352,9.1848,9.2143,9.247,9.2858,9.3114,9.3306,9.3306,9.3306,9.3306,9.3306,9.3306,9.3306,9.3306,9.3306,9.3306,9.3306,9.3306,9.3306,9.3306,9.3306,9.3306,4.8888,4.9202,4.9202,4.9202,4.9202,4.9202,4.9202,4.9202,4.9506,5.0581,5.1597,5.2611,5.3723,5.4727,5.5747,5.6729,5.6051,5.577,5.6729,5.6027,5.5817,5.6892,5.7032,5.7827,5.9949,6.0136,6.0136,6.0136,6.0136,6.0557,6.154,6.163,6.163,6.163,6.163,6.1825,6.2191,6.2233,6.2721,6.3585,6.4185,6.4419,6.4419,6.4492,6.5054,6.5964,6.5964,6.6549,6.7457,6.7652,6.9672,7.2722,7.2966,7.5139,7.8068,7.8124,7.8124,7.8124,7.8124,7.8068,7.7955,7.8012,7.804,7.8068,7.8124,7.8124,7.8124,7.8124,7.9027,7.9987,7.9987,8.0889,8.182,8.182,8.182,8.182,8.182,8.3058,8.4177,8.4379,8.6912,8.9025,8.8999,9.0177,9.1153,9.1153,9.1153,9.1153,9.1153,9.1153,9.1452,9.2209,9.2307,9.2567,9.321,9.3274,9.3306,9.3306,9.3306,9.3306,9.3306,9.3306,9.3306,9.3306,9.3306,9.3306,9.3306,9.3306,9.3306,9.3306,9.3306,9.3306,4.7202,4.773,4.8187,4.8187,4.8711,4.9202,4.9202,4.9202,4.9483,5.0511,5.1025,5.1843,5.3536,5.4166,5.4727,5.5794,5.5677,5.5537,5.5911,5.5653,5.5794,5.6822,5.6962,5.75,5.8944,5.8435,5.8318,5.9014,5.9084,5.9224,5.9598,6.0253,6.0604,6.0604,6.1259,6.1672,6.1825,6.2081,6.2532,6.3211,6.3969,6.4346,6.4346,6.4346,6.4541,6.4908,6.4908,6.5085,6.5639,6.7708,6.9292,7.0734,7.3773,7.5706,7.6911,7.7673,7.7955,7.7729,7.6121,7.5585,7.5698,7.6544,7.6827,7.6968,7.7729,7.7955,7.7955,7.7955,7.8266,7.8632,7.8632,7.8999,7.9309,7.9309,7.9309,7.9309,7.9309,8.1329,8.3178,8.3178,8.6334,8.8969,8.8969,9.0188,9.1153,9.1153,9.0398,9.0113,9.1059,9.1153,9.1452,9.2242,9.2339,9.26,9.3242,9.3306,9.3306,9.3306,9.3306,9.3306,9.3306,9.3306,9.3306,9.3306,9.3306,9.3306,9.3306,9.3306,9.3306,9.3306,9.3306,9.3306,4.6181,4.671,4.7169,4.7169,4.7907,4.8631,4.8631,4.8911,4.9355,5.0067,5.0488,5.1166,5.2531,5.3092,5.3676,5.4704,5.4867,5.4984,5.5334,5.5381,5.5638,5.6355,5.6425,5.6846,5.7874,5.7056,5.6869,5.7897,5.7967,5.8148,5.8499,5.9177,5.9528,5.9528,6.0534,6.1115,6.1115,6.168,6.2233,6.2702,6.3507,6.3885,6.3885,6.3987,6.4071,6.4071,6.4262,6.4346,6.453,6.6666,6.8192,6.9504,7.2634,7.4539,7.5642,7.6403,7.6714,7.646,7.4823,7.4259,7.44,7.5275,7.5557,7.5698,7.646,7.6714,7.6714,7.6714,7.7024,7.7363,7.7363,7.7645,7.7955,7.7955,7.7955,7.808,7.8584,8.0746,8.2742,8.3231,8.6046,8.835,8.835,8.917,8.98,8.98,8.9357,8.9231,8.9737,9.0177,9.0947,9.221,9.2339,9.26,9.3242,9.3306,9.3306,9.3306,9.3306,9.3306,9.3306,9.3306,9.3306,9.3306,9.3306,9.3306,9.3306,9.3306,9.3306,9.3306,9.3306,9.3306,4.59,4.6181,4.6228,4.6228,4.6888,4.758,4.758,4.835,4.9074,4.9121,4.995,5.0651,5.0722,5.155,5.2565,5.3629,5.3793,5.4166,5.5194,5.5373,5.5358,5.5381,5.5381,5.5778,5.6822,5.6004,5.584,5.6822,5.6916,5.7336,5.8382,5.8476,5.8476,5.8476,5.9482,6.0019,6.0019,6.1002,6.1731,6.2162,6.2655,6.2933,6.2999,6.3356,6.3543,6.3585,6.4112,6.4346,6.4346,6.4471,6.6366,6.9229,6.9308,7.1338,7.4259,7.4259,7.4259,7.4259,7.4259,7.4259,7.4259,7.4259,7.4259,7.4259,7.4259,7.4259,7.4259,7.4259,7.5162,7.6149,7.6149,7.6968,7.7881,7.789,7.7919,7.8281,7.9757,8.1358,8.2972,8.4371,8.5899,8.6997,8.6997,8.7092,8.7092,8.7092,8.813,8.8445,8.7218,8.8161,8.981,9.1987,9.2243,9.2536,9.3178,9.3274,9.3306,9.3306,9.3306,9.3306,9.3306,9.3306,9.3306,9.3306,9.3306,9.3306,9.3306,9.3306,9.3306,9.3306,9.3306,9.3306,4.3927,4.4558,4.512,4.512,4.5892,4.664,4.664,4.6851,4.7272,4.7907,4.828,4.8934,5.0464,5.0717,5.1166,5.2505,5.2483,5.2734,5.4082,5.4283,5.454,5.5288,5.5381,5.5537,5.5817,5.5583,5.5498,5.5817,5.584,5.5981,5.6238,5.6962,5.7383,5.7383,5.8365,5.8944,5.8944,5.9224,5.9947,6.1071,6.122,6.1875,6.2981,6.3084,6.3271,6.3585,6.4112,6.4346,6.453,6.6974,6.8482,6.9425,7.1895,7.3433,7.4259,7.4259,7.4259,7.4259,7.4259,7.4259,7.4259,7.4259,7.4259,7.4259,7.4259,7.4259,7.4259,7.4259,7.4513,7.4795,7.4795,7.5049,7.5542,7.6577,7.6829,7.7229,7.8646,8.0143,8.1333,8.1725,8.3815,8.5549,8.5549,8.6399,8.7092,8.7092,8.6493,8.6053,8.5988,8.6936,8.8042,8.9122,9.0173,9.1034,9.1698,9.2694,9.3306,9.3306,9.3306,9.3306,9.3306,9.3306,9.3306,9.3306,9.3306,9.3306,9.3306,9.3306,9.3306,9.3306,9.3306,9.3306,4.3148,4.3599,4.4067,4.4067,4.4839,4.5619,4.5619,4.5971,4.6439,4.6935,4.7052,4.7543,4.9155,4.9171,4.9472,5.1145,5.121,5.1507,5.2785,5.3097,5.3582,5.461,5.4353,5.426,5.4704,5.475,5.4914,5.5358,5.5381,5.5381,5.5381,5.5981,5.6308,5.6308,5.7313,5.7891,5.7891,5.8312,5.895,5.976,5.9942,6.0421,6.1143,6.1286,6.1709,6.2432,6.3541,6.4179,6.4488,6.6473,6.7632,6.8456,7.1137,7.2588,7.3229,7.3441,7.3526,7.361,7.409,7.4259,7.4259,7.4259,7.4259,7.4259,7.4259,7.4259,7.4259,7.4259,7.4259,7.4259,7.4259,7.4259,7.4631,7.6045,7.6367,7.6959,7.8963,8.0076,8.0846,8.1447,8.2915,8.407,8.407,8.4731,8.5297,8.5297,8.4573,8.4194,8.4594,8.5548,8.6431,8.7086,8.8453,8.9565,9.0217,9.102,9.1503,9.1503,9.1503,9.1503,9.1503,9.1503,9.1503,9.1503,9.1503,9.1503,9.1503,9.1503,9.1825,9.2404,9.2404,9.2082,4.3102,4.3148,4.3148,4.3148,4.3763,4.4395,0.0,4.5237,4.5971,4.6064,4.6088,4.636,4.7276,4.7346,4.7806,4.954,4.9885,5.03,5.1388,5.1842,5.2411,5.3321,5.2658,5.2531,5.3582,5.3676,5.4073,5.4961,5.5031,5.5031,5.5031,5.5147,5.5217,5.5217,5.6238,5.6775,5.6775,5.7687,5.8242,5.8318,5.8677,5.8748,5.8523,5.8866,5.9541,6.0586,6.2288,6.3372,6.3938,6.4328,6.5413,6.6898,6.8692,7.0159,7.1392,7.2041,7.2312,7.2418,7.3469,7.3836,7.3836,7.3836,7.3836,7.3836,7.3836,7.3949,7.4062,7.4062,7.4146,7.4259,7.4259,7.4368,7.4884,7.6291,7.675,7.7616,8.0302,8.091,8.129,8.2567,8.2812,8.2812,8.2812,8.2812,8.2843,8.2873,8.2843,8.2934,8.333,8.416,8.4948,8.5562,8.6798,8.7904,8.8675,8.8927,8.9054,8.9054,8.9054,8.9054,8.9054,8.9054,8.9054,8.9054,8.9054,8.9054,8.9054,8.9054,8.9698,9.0923,9.0923,9.0247,0.0,0.0,0.0,0.0,0.0,0.0,0.0,4.3623,4.3997,4.4839,4.5034,4.5307,4.6336,4.6938,4.7378,4.7737,4.8247,4.9039,5.0277,5.0523,5.0628,5.0872,5.0974,5.1434,5.2471,5.2625,5.2658,5.2868,5.2868,5.2868,5.2868,5.3699,5.4143,5.4143,5.5186,5.5724,5.5724,5.5911,5.6425,5.7243,5.7363,5.7767,5.8523,5.8604,5.8878,5.9433,5.9786,6.0458,6.1452,6.4391,6.5772,6.6378,6.9221,6.9661,6.893,7.0391,7.0958,7.0986,7.1212,7.1297,7.1297,7.1297,7.1297,7.1297,7.1297,7.203,7.2813,7.2813,7.3554,7.4259,7.4259,7.5107,7.6361,7.7753,7.8996,8.0302,8.2041,8.2413,8.2475,8.2751,8.2812,8.2812,8.2812,8.2812,8.2904,8.3239,8.2995,8.2934,8.333,8.3308,8.3405,8.3862,8.4323,8.526,8.6832,8.8259,8.9054,8.9054,8.9054,8.9054,8.9054,8.9054,8.9054,8.9054,8.9054,8.9054,8.9054,8.9054,8.9153,8.9442,8.9442,8.9281,0.0,0.0,0.0,0.0,0.0,0.0,0.0,0.0,0.0,0.0,0.0,4.4254,4.5284,0.0,4.5864,4.6373,4.6995,4.7673,4.8293,4.9031,4.9345,4.8916,4.9065,4.981,5.1363,5.1036,5.1177,5.2215,5.2285,5.2285,5.2285,5.2775,5.3092,5.3092,5.4073,5.461,5.461,5.5163,5.5638,5.6191,5.6191,5.6448,5.6962,5.6962,5.7339,5.8049,5.8513,5.9285,6.0325,6.2322,6.3651,6.4625,6.7541,6.8193,6.7611,6.9133,6.9694,6.9779,7.0366,7.0563,7.0563,7.0563,7.0563,7.0563,7.0563,7.098,7.1551,7.1551,7.1974,7.2425,7.2425,7.3418,7.4974,7.714,7.8646,8.0173,8.232,8.2812,8.2812,8.2812,8.2812,8.2812,8.2812,8.2277,8.2117,8.2961,8.2934,8.2995,8.3538,8.3298,8.336,8.3985,8.4073,8.4508,8.554,8.6424,8.6869,8.6869,8.6869,8.6869,8.6869,8.6869,8.6869,8.6869,8.6869,8.6869,8.6869,8.6869,8.7253,8.7927,8.709,8.7085,0.0,0.0,0.0,0.0,0.0,0.0,0.0,0.0,0.0,0.0,0.0,0.0,0.0,0.0,0.0,4.5262,4.6004,4.6447,4.6447,4.7395,4.7897,4.7307,4.741,4.8213,4.9974,4.9553,4.9869,5.1574,5.1714,5.1714,5.1714,5.1864,5.2017,5.2017,5.3022,5.3559,5.3559,5.4377,5.489,5.5101,5.5101,0.0,5.5381,5.5381,5.5887,5.6698,5.7431,5.8284,5.9166,5.954,6.0869,6.2874,6.5277,6.6505,6.7008,6.8057,6.8458,6.8599,6.9519,6.9823,6.9823,6.9823,6.9823,6.9823,6.9823,7.0027,0.0,7.0225,7.0394,7.0563,7.0563,7.1744,7.3497,7.5802,7.7494,7.9187,8.1538,8.1995,8.1995,8.1995,8.1995,8.2119,8.2402,8.1331,8.095,8.2274,8.2274,8.2515,8.3652,8.3344,8.3461,8.4571,8.4484,8.4455,8.4748,8.5002,8.5035,8.4777,8.5002,8.5163,8.5163,8.5163,8.5035,8.4748,8.4748,8.4619,8.4359,8.404,8.4809,8.6443,8.5194,8.5246,0.0,0.0,0.0,0.0,0.0,0.0,0.0,0.0,0.0,0.0,0.0,0.0,0.0,0.0,0.0,0.0,4.5129,4.5799,4.5799,4.5606,4.5619,4.5864,4.6716,4.7476,4.792,4.8701,4.9261,4.9495,4.9518,4.9518,4.9518,5.0418,0.0,0.0,0.0,5.2448,5.2448,5.2565,5.3115,5.4026,5.4026,5.4493,5.5381,5.5381,5.5451,5.5583,5.5684,5.5979,5.646,5.683,5.8957,6.2065,6.3408,6.5112,6.6891,6.7003,6.706,6.7088,6.7229,0.0,0.0,6.7257,6.7257,6.7257,6.7257,6.8114,6.9023,6.9023,6.9779,7.0563,7.0563,7.247,7.4499,7.4789,7.6849,7.8777,7.9101,7.9191,7.9191,7.9191,7.9191,7.9569,8.0857,7.9913,7.9528,8.1183,8.0329,8.057,8.3395,8.2661,8.2491,8.421,8.4399,0.0,8.4748,8.5933,8.6126,8.4813,8.5933,8.6671,8.6671,8.6671,8.6062,8.478,8.4748,8.4105,8.2846,8.1591,8.2363,8.4999,8.5391,8.5649,0.0,0.0,0.0,0.0,0.0,0.0,0.0,0.0,0.0,0.0,0.0,0.0,0.0,0.0,0.0,0.0,4.3909,4.4131,4.3235,4.4122,4.4832,4.4791,4.5353,4.5938,4.6454,4.6557,4.7052,4.8187,4.828,4.8537,4.9121,4.9565,4.9833,4.9833,5.0862,5.1423,5.1423,5.1958,5.2495,5.2975,5.2975,5.3148,5.3606,5.3606,5.3606,5.3704,5.542,5.6293,5.6565,5.8239,6.0588,6.3036,0.0,0.0,0.0,0.0,6.4148,6.4148,6.4148,6.4276,6.4496,6.4496,6.4592,6.4719,6.4719,6.5626,6.6679,6.6679,6.7521,6.8587,6.936,7.0931,7.2776,7.4374,7.6172,7.7717,7.8542,7.8748,7.8748,7.8748,7.8748,0.0,7.8496,7.8135,7.8312,7.9786,7.9677,7.9969,8.143,8.1104,8.1118,8.2005,8.2098,8.2154,8.2267,8.2782,0.0,0.0,0.0,8.3164,8.3164,8.3164,0.0,0.0,0.0,8.3091,8.229,8.2491,0.0,0.0,8.2289,8.2634,0.0,0.0,0.0,0.0,0.0,0.0,0.0,0.0,0.0,0.0,0.0,0.0,0.0,0.0,0.0,0.0,4.2245,4.2475,4.0821,4.2352,4.3496,4.3281,4.3976,4.4634,4.5193,4.5092,4.56,4.7145,4.7262,4.7589,4.8337,4.8618,4.8747,4.8747,4.9506,5.002,5.0301,5.078,5.1317,5.1877,5.1877,5.2017,5.2321,5.2699,5.2881,5.3013,5.5599,5.6683,5.6864,5.8861,6.0927,6.2654,6.1001,6.1098,6.22,6.22,6.22,6.22,6.22,6.239,6.261,6.261,6.2763,6.2919,6.3044,6.3694,6.449,6.4554,6.5202,6.6045,6.704,6.846,7.0281,7.2617,7.433,7.5868,7.7291,7.7586,7.7586,7.7586,7.6988,7.6295,7.5725,7.5797,7.6532,7.8381,7.8578,7.8921,8.0045,7.9877,7.9891,8.0405,8.0464,8.0464,8.0464,8.085,8.0915,8.0496,8.085,8.0883,8.0496,8.085,8.1044,8.1044,8.1719,8.1851,0.0,0.0,0.0,0.0,0.0,0.0,0.0,0.0,0.0,0.0,0.0,0.0,0.0,0.0,0.0,0.0,0.0,0.0,0.0,0.0,0.0,0.0,0.0,0.0,3.9384,4.0059,4.084,4.1091,4.269,4.3875,4.4159,4.51,4.5841,4.6266,4.6322,4.6322,4.6368,4.7192,4.7673,4.7673,4.7696,4.821,4.9226,4.8257,4.8771,5.0768,5.0768,5.1293,5.2321,5.3735,5.4389,5.4436,5.5913,5.6571,5.6597,5.7086,5.8109,5.9587,6.1024,6.1824,6.22,6.22,6.22,6.22,6.22,6.22,6.2232,6.2232,6.2232,6.2295,6.27,6.2822,6.2913,6.3162,6.3253,6.3281,6.3371,6.5175,6.7316,6.8688,7.0854,7.3035,7.447,7.4784,7.4784,7.4784,7.2644,7.1202,7.2429,7.2649,7.3777,7.7131,7.6449,0.0,8.006,7.9365,7.9075,8.0336,8.0464,8.0464,8.0464,8.1752,8.1945,8.0561,8.1784,8.1945,8.0529,8.1816,8.2556,8.2556,8.1237,8.0361,7.9978,0.0,0.0,0.0,0.0,0.0,0.0,0.0,0.0,0.0,0.0,0.0,0.0,0.0,0.0,0.0,0.0,0.0,0.0,0.0,0.0,0.0,0.0,0.0,0.0,3.9413,4.0912,4.1704,4.233,4.2804,4.3089,4.342,4.4061,4.5167,4.5213,4.5549,4.6228,4.6547,4.6734,4.6734,4.6734,4.6898,4.7248,4.7519,4.7977,4.8677,4.9355,5.039,5.168,5.2136,5.2895,5.3895,5.6129,5.7094,5.7213,5.9077,5.826,5.5861,5.6396,5.678,5.7043,5.6839,5.6898,5.7073,5.7073,5.7073,5.7104,5.7455,5.7716,5.8115,5.9046,5.9892,6.0796,6.1615,6.252,6.3542,6.5208,6.6234,6.7413,6.9484,7.0584,7.1359,7.1799,7.1952,7.1952,7.1952,7.117,7.1343,7.3763,7.2679,7.2583,7.5904,7.5249,7.4836,7.6164,7.6815,7.7266,7.7717,7.7781,7.7781,7.7781,7.8232,7.8297,7.7781,7.8232,7.7852,7.6409,7.7723,7.8045,7.7085,7.753,7.7708,7.7554,0.0,0.0,0.0,0.0,0.0,0.0,0.0,0.0,0.0,0.0,0.0,0.0,0.0,0.0,0.0,0.0,0.0,0.0,0.0,0.0,0.0,0.0,0.0,0.0,0.0,0.0,4.1358,4.1858,0.0,4.2399,4.252,4.3018,4.406,4.4161,4.4442,4.5096,4.5526,4.5713,4.5713,4.5713,4.59,4.6275,4.6467,4.7,4.7744,4.8,4.8839,5.0158,5.0654,5.1428,5.244,5.5041,5.616,5.6302,5.7972,5.6835,5.4049,5.4049,5.4134,5.4276,5.4106,5.4134,5.4276,5.4276,5.455,5.4993,5.5392,5.573,5.6066,5.6935,5.7468,5.8004,5.9022,5.9898,6.0904,6.2525,6.3552,6.4805,6.7359,6.857,6.944,7.0368,7.0541,7.0126,6.8647,6.8364,6.9447,7.2847,7.2062,7.1825,7.45,7.4305,7.378,7.3519,7.4728,7.5656,7.5656,7.61,7.639,7.639,7.639,7.6197,7.5656,7.5656,7.5211,7.4285,7.5147,7.5179,7.4285,7.4664,7.4625,0.0,0.0,0.0,0.0,0.0,0.0,0.0,0.0,0.0,0.0,0.0,0.0,0.0,0.0,0.0,0.0,0.0,0.0,0.0,0.0,0.0,0.0,0.0,0.0,0.0,0.0,0.0,3.9978,4.11,0.0,0.0,0.0,0.0,4.3025,4.3055,4.3055,4.3055,4.4021,4.4558,4.4558,4.4558,4.505,4.6088,4.523,4.5856,4.7912,4.6909,4.7029,4.8173,4.9579,5.0248,5.0399,5.2934,5.4049,5.4049,5.3912,5.3829,5.3829,5.3829,5.3885,5.3858,5.3858,5.3858,5.3885,5.3968,5.4705,5.5664,5.5929,5.6045,5.6076,5.628,5.5616,0.0,0.0,5.5778,5.5806,5.5999,5.7667,5.9931,6.26,6.4874,6.7107,6.9611,7.0158,6.8993,6.5114,6.4327,6.5649,6.9774,0.0,7.1361,7.2985,7.3556,7.3331,7.2168,7.3255,7.4124,7.4124,7.5366,7.6165,7.6165,7.6165,7.5591,7.422,7.4124,7.4124,7.4124,7.4124,7.4124,7.4027,7.2707,0.0,0.0,0.0,0.0,0.0,0.0,0.0,0.0,0.0,0.0,0.0,0.0,0.0,0.0,0.0,0.0,0.0,0.0,0.0,0.0,0.0,0.0,0.0,0.0,0.0,0.0,3.4982,3.6508,3.8239,3.8428,3.8695,0.0,0.0,0.0,0.0,0.0,0.0,4.2003,4.2237,4.24,4.24,4.24,4.2921,4.395,4.5311,4.6283,4.6855,4.8229,4.9124,4.964,5.0881,5.1506,5.169,5.3338,5.4049,5.3912,5.2053,5.1288,5.1288,5.1288,5.1423,5.1557,5.1557,5.1557,5.1748,5.2901,5.3316,5.3426,5.3977,5.4169,5.4056,5.343,0.0,0.0,0.0,0.0,5.6385,5.9021,5.9358,5.9851,6.3239,6.3668,6.3508,6.4201,6.4343,6.4335,6.4358,6.4327,6.5454,6.8944,6.9433,0.0,7.2088,7.2344,7.1856,7.0688,7.1799,7.2643,7.2643,7.299,7.3215,7.3215,7.3215,7.3054,7.2675,7.2643,7.2643,7.2643,7.2643,7.2128,7.1066,0.0,0.0,0.0,0.0,0.0,0.0,0.0,0.0,0.0,0.0,0.0,0.0,0.0,0.0,0.0,0.0,0.0,0.0,0.0,0.0,0.0,0.0,0.0,0.0,0.0,0.0,0.0,3.35,3.5001,3.6228,3.6649,3.7056,0.0,0.0,0.0,0.0,0.0,0.0,0.0,0.0,0.0,4.0899,4.1816,4.2331,4.2471,4.4662,4.6029,4.6544,4.7776,4.8774,4.9468,5.0159,5.0502,5.0621,5.1883,5.2135,5.1589,5.0714,5.0111,4.9778,0.0,0.0,0.0,0.0,5.0582,5.0358,5.1731,5.2068,5.2044,5.3107,0.0,0.0,0.0,0.0,0.0,0.0,0.0,5.5397,5.7384,5.8477,5.9698,6.2289,6.3069,6.3356,6.3894,6.1628,6.0054,6.21,6.2547,6.3583,6.662,6.7756,0.0,0.0,0.0,7.0278,6.833,6.9899,7.1187,7.1187,7.1742,7.2096,7.2096,7.2096,7.1838,7.1227,7.1187,7.1187,7.1187,7.1187,7.0511,0.0,0.0,0.0,0.0,0.0,0.0,0.0,0.0,0.0,0.0,0.0,0.0,0.0,0.0,0.0,0.0,0.0,0.0,0.0,0.0,0.0,0.0,0.0,0.0,0.0,0.0,0.0,0.0,0.0,3.397,3.3744,0.0,0.0,0.0,0.0,0.0,0.0,0.0,0.0,0.0,0.0,0.0,0.0,0.0,4.2184,4.1406,4.3902,4.5732,4.6917,4.7042,4.7642,4.8606,4.8743,4.8743,4.8661,4.9664,0.0,4.8884,4.9593,0.0,0.0,0.0,0.0,0.0,0.0,0.0,0.0,0.0,0.0,0.0,0.0,0.0,0.0,0.0,0.0,0.0,0.0,0.0,0.0,0.0,0.0,5.9245,6.0215,6.2127,6.4055,6.5463,6.0873,5.7221,5.9601,6.0249,6.1184,0.0,0.0,0.0,0.0,0.0,0.0,6.6026,6.7871,6.948,6.9674,7.0833,7.1549,7.1549,7.1549,7.0961,6.9513,6.9577,6.9706,6.9706,6.9706,0.0,0.0,0.0,0.0,0.0,0.0,0.0,0.0,0.0,0.0,0.0,0.0,0.0,0.0,0.0,0.0,0.0,0.0,0.0,0.0,0.0,0.0,0.0,0.0,0.0,0.0,0.0,0.0,0.0,0.0,0.0,0.0,0.0,0.0,0.0,0.0,0.0,0.0,0.0,0.0,0.0,0.0,0.0,0.0,0.0,0.0,0.0,0.0,0.0,0.0,4.9235,4.9315,4.8633,4.9611,4.9504,4.8608,4.8825,4.9321,4.9922,4.8293,0.0,0.0,0.0,0.0,0.0,0.0,0.0,0.0,0.0,0.0,0.0,0.0,0.0,0.0,0.0,0.0,0.0,0.0,0.0,0.0,0.0,0.0,5.7479,5.7397,5.8328,5.9908,6.2369,0.0,0.0,0.0,0.0,0.0,0.0,0.0,0.0,0.0,0.0,0.0,6.5768,6.6122,6.6927,6.8096,6.845,6.8579,6.8579,6.8579,6.7967,6.6541,6.7549,6.8193,0.0,0.0,0.0,0.0,0.0,0.0,0.0,0.0,0.0,0.0,0.0,0.0,0.0,0.0,0.0,0.0,0.0,0.0,0.0,0.0,0.0,0.0,0.0,0.0,0.0,0.0,0.0,0.0,0.0,0.0,0.0,0.0,0.0,0.0,0.0,0.0,0.0,0.0,0.0,0.0,0.0,0.0,0.0,0.0,0.0,0.0,0.0,0.0,0.0,0.0,0.0,0.0,0.0,0.0,0.0,0.0,0.0,0.0,4.7756,4.6288,0.0,0.0,0.0,0.0,0.0,0.0,0.0,0.0,0.0,0.0,0.0,0.0,0.0,0.0,0.0,0.0,0.0,0.0,0.0,0.0,0.0,0.0,0.0,0.0,0.0,0.0,0.0,0.0,0.0,0.0,0.0,0.0,0.0,0.0,0.0,0.0,0.0,0.0,0.0,0.0,6.3588,6.478,6.5993,6.667,6.7411,6.7838,6.7838,6.7162,6.6766,6.6831,6.6058,0.0,0.0,0.0,0.0,0.0,0.0,0.0,0.0,0.0,0.0,0.0,0.0,0.0,0.0,0.0,0.0,0.0,0.0,0.0,0.0,0.0,0.0,0.0,0.0,0.0,0.0,0.0,0.0,0.0,0.0,0.0,0.0,0.0,0.0,0.0,0.0,0.0,0.0,0.0,0.0,0.0,0.0,0.0,0.0,0.0,0.0,0.0,0.0,0.0,0.0,0.0,0.0,0.0,0.0,0.0,0.0,0.0,0.0,0.0,4.5745,4.2872,0.0,0.0,0.0,0.0,0.0,0.0,0.0,0.0,0.0,0.0,0.0,0.0,0.0,0.0,0.0,0.0,0.0,0.0,0.0,0.0,0.0,0.0,0.0,0.0,0.0,0.0,0.0,0.0,0.0,0.0,0.0,0.0,0.0,0.0,0.0,0.0,0.0,0.0,0.0,0.0,6.11,6.3213,6.4908,6.522,6.6251,6.6927,6.6927,6.5897,6.5736,6.684,6.4802,0.0,0.0,0.0,0.0,0.0,0.0,0.0,0.0,0.0,0.0,0.0,0.0,0.0,0.0,0.0,0.0,0.0,0.0,0.0,0.0,0.0,0.0,0.0,0.0,0.0,0.0,0.0,0.0,0.0,0.0,0.0,0.0,0.0,0.0,0.0,0.0,0.0,0.0,0.0,0.0,0.0,0.0,0.0,0.0,0.0,0.0,0.0,0.0,0.0,0.0,0.0,0.0,0.0,0.0,0.0,0.0,0.0,0.0,0.0,0.0,0.0,0.0,0.0,0.0,0.0,0.0,0.0,0.0,0.0,0.0,0.0,0.0,0.0,0.0,0.0,0.0,0.0,0.0,0.0,0.0,0.0,0.0,0.0,0.0,0.0,0.0,0.0,0.0,0.0,0.0,0.0,0.0,0.0,0.0,0.0,0.0,0.0,0.0,0.0,0.0,0.0,5.9491,6.0875,6.2312,6.361,6.3868,6.3964,6.3964,6.3836,6.3803,6.3964,0.0,0.0,0.0,0.0,0.0,0.0,0.0,0.0,0.0,0.0,0.0,0.0,0.0,0.0,0.0,0.0,0.0,0.0,0.0,0.0,0.0,0.0,0.0,0.0,0.0,0.0,0.0,0.0,0.0,0.0,0.0,0.0,0.0,0.0,0.0,0.0,0.0,0.0,0.0,0.0,0.0,0.0,0.0,0.0,0.0,0.0,0.0,0.0,0.0,0.0,0.0,0.0,0.0,0.0,0.0,0.0,0.0,0.0,0.0,0.0,0.0,0.0,0.0,0.0,0.0,0.0,0.0,0.0,0.0,0.0,0.0,0.0,0.0,0.0,0.0,0.0,0.0,0.0,0.0,0.0,0.0,0.0,0.0,0.0,0.0,0.0,0.0,0.0,0.0,0.0,0.0,0.0,0.0,0.0,0.0,0.0,0.0,0.0,0.0,0.0,0.0,0.0,5.7999,6.0006,6.1647,6.2215,6.3041,6.3546,6.3546,6.2784,6.2655,6.3481,0.0,0.0,0.0,0.0,0.0,0.0,0.0,0.0,0.0,0.0,0.0,0.0,0.0,0.0,0.0,0.0,0.0,0.0,0.0,0.0,0.0,0.0,0.0,0.0,0.0,0.0,0.0,0.0,0.0,0.0,0.0,0.0,0.0,0.0,0.0,0.0,0.0,0.0,0.0,0.0,0.0,0.0,0.0,0.0,0.0,0.0,0.0,0.0,0.0,0.0,0.0,0.0,0.0,0.0,0.0,0.0,0.0,0.0,0.0,0.0,0.0,0.0,0.0,0.0,0.0,0.0,0.0,0.0,0.0,0.0,0.0,0.0,0.0,0.0,0.0,0.0,0.0,0.0,0.0,0.0,0.0,0.0,0.0,0.0,0.0,0.0,0.0,0.0,0.0,0.0,0.0,0.0,0.0,0.0,0.0,0.0,0.0,0.0,0.0,0.0,0.0,0.0,5.6524,5.8988,6.081,6.081,6.17,6.2301,6.2301,6.1378,6.141,6.2848,0.0,0.0,0.0,0.0,0.0,0.0,0.0,0.0,0.0,0.0,0.0,0.0,0.0,0.0,0.0,0.0,0.0,0.0,0.0,0.0,0.0,0.0,0.0,0.0,0.0,0.0,0.0,0.0,0.0,0.0,0.0,0.0,0.0,0.0,0.0,0.0,0.0,0.0,0.0,0.0,0.0,0.0,0.0,0.0,0.0,0.0,0.0,0.0,0.0,0.0,0.0,0.0,0.0,0.0,0.0,0.0,0.0,0.0,0.0,0.0,0.0,0.0,0.0,0.0,0.0,0.0,0.0,0.0,0.0,0.0,0.0,0.0,0.0,0.0,0.0,0.0,0.0,0.0,0.0,0.0,0.0,0.0,0.0,0.0,0.0,0.0,0.0,0.0,0.0,0.0,0.0,0.0,0.0,0.0,0.0,0.0,0.0,0.0,0.0,0.0,0.0,0.0,5.5054,5.745,5.9298,5.9298,5.933,5.933,5.933,5.933,5.9941,0.0,0.0,0.0,0.0,0.0,0.0,0.0,0.0,0.0,0.0,0.0,0.0,0.0,0.0,0.0,0.0,0.0,0.0,0.0,0.0,0.0,0.0,0.0,0.0,0.0,0.0,0.0,0.0,0.0,0.0,0.0,0.0,0.0,0.0,0.0,0.0,0.0,0.0,0.0,0.0,0.0,0.0,0.0,0.0,0.0,0.0,0.0,0.0,0.0,0.0,0.0,0.0,0.0,0.0,0.0,0.0,0.0,0.0,0.0,0.0,0.0,0.0,0.0,0.0,0.0,0.0,0.0,0.0,0.0,0.0,0.0,0.0,0.0,0.0,0.0,0.0,0.0,0.0,0.0,0.0,0.0,0.0,0.0,0.0,0.0,0.0,0.0,0.0,0.0,0.0,0.0,0.0,0.0,0.0,0.0,0.0,0.0,0.0,0.0,0.0,0.0,0.0,0.0,5.5129,5.7561,5.9298,5.9298,5.9298,5.9298,5.9298,5.9298,5.9491,5.9941,0.0,0.0,0.0,0.0,0.0,0.0,0.0,0.0,0.0,0.0,0.0,0.0,0.0,0.0,0.0,0.0,0.0,0.0,0.0,0.0,0.0,0.0,0.0,0.0,0.0,0.0,0.0,0.0,0.0,0.0,0.0,0.0,0.0,0.0,0.0,0.0,0.0,0.0,0.0,0.0,0.0,0.0,0.0,0.0,0.0,0.0,0.0,0.0,0.0,0.0,0.0,0.0,0.0,0.0,0.0,0.0,0.0,0.0,0.0,0.0,0.0,0.0,0.0,0.0,0.0,0.0,0.0,0.0,0.0,0.0,0.0,0.0,0.0,0.0,0.0,0.0,0.0,0.0,0.0,0.0,0.0,0.0,0.0,0.0,0.0,0.0,0.0,0.0,0.0,0.0,0.0,0.0,0.0,0.0,0.0,0.0,0.0,0.0,0.0,0.0,0.0,0.0,0.0,5.7803,5.9298,5.9298,5.9298,5.9298,5.9298,5.9298,5.9298,5.9298,0.0,0.0,0.0,0.0,0.0,0.0,0.0,0.0,0.0,0.0,0.0,0.0,0.0,0.0,0.0,0.0,0.0,0.0,0.0,0.0,0.0,0.0,0.0,0.0,0.0,0.0,0.0,0.0,0.0,0.0,0.0,0.0,0.0,0.0,0.0,0.0,0.0,0.0,0.0,0.0,0.0,0.0,0.0,0.0,0.0,0.0,0.0,0.0,0.0,0.0,0.0,0.0,0.0,0.0,0.0,0.0,0.0,0.0,0.0,0.0,0.0,0.0,0.0,0.0,0.0,0.0,0.0,0.0,0.0,0.0,0.0,0.0,0.0,0.0,0.0,0.0,0.0,0.0,0.0,0.0,0.0,0.0,0.0,0.0,0.0,0.0,0.0,0.0,0.0,0.0,0.0,0.0,0.0,0.0,0.0,0.0,0.0,0.0,0.0,0.0,0.0,0.0,0.0,5.8177,5.9298,5.9298,5.9298,5.9298,5.9298,5.9298,5.9298,5.9298,5.9298,0.0,0.0,0.0,0.0,0.0,0.0,0.0,0.0,0.0,0.0,0.0,0.0,0.0,0.0,0.0,0.0,0.0,0.0,0.0,0.0,0.0,0.0,0.0,0.0,0.0,0.0,0.0,0.0,0.0,0.0,0.0,0.0,0.0,0.0,0.0,0.0,0.0,0.0,0.0,0.0,0.0,0.0,0.0,0.0,0.0,0.0,0.0,0.0,0.0,0.0,0.0,0.0,0.0,0.0,0.0,0.0,0.0,0.0,0.0,0.0,0.0,0.0,0.0,0.0,0.0,0.0,0.0,0.0,0.0,0.0,0.0,0.0,0.0,0.0,0.0,0.0,0.0,0.0,0.0,0.0,0.0,0.0,0.0,0.0,0.0,0.0,0.0,0.0,0.0,0.0,0.0,0.0,0.0,0.0,0.0,0.0,0.0,0.0,0.0,0.0,0.0,0.0,5.8337,5.9298,5.9298,5.9298,5.9298,5.9298,5.9298,5.9298,5.9298,5.9298,0.0,0.0,0.0,0.0,0.0,0.0,0.0,0.0,0.0,0.0,0.0,0.0,0.0,0.0,0.0,0.0,0.0,0.0,0.0,0.0,0.0,0.0,0.0,0.0,0.0,0.0,0.0,0.0,0.0,0.0,0.0,0.0,0.0,0.0,0.0,0.0,0.0,0.0,0.0,0.0,0.0,0.0,0.0,0.0,0.0,0.0,0.0,0.0,0.0,0.0,0.0,0.0,0.0,0.0,0.0,0.0,0.0,0.0,0.0,0.0,0.0,0.0,0.0,0.0,0.0,0.0,0.0,0.0,0.0,0.0,0.0,0.0,0.0,0.0,0.0,0.0,0.0,0.0,0.0,0.0,0.0,0.0,0.0,0.0,0.0,0.0,0.0,0.0,0.0,0.0,0.0,0.0,0.0,0.0,0.0,0.0,0.0,0.0,0.0,0.0,0.0,0.0,5.6601,5.8357,5.9181,5.9298,5.9298,5.9298,5.9298,5.9298,5.9298,5.8095,0.0,0.0,0.0,0.0,0.0,0.0,0.0,0.0,0.0,0.0,0.0,0.0,0.0,0.0,0.0,0.0,0.0,0.0,0.0,0.0,0.0,0.0,0.0,0.0,0.0,0.0,0.0,0.0,0.0,0.0,0.0,0.0,0.0,0.0,0.0,0.0,0.0,0.0,0.0,0.0,0.0,0.0,0.0,0.0,0.0,0.0,0.0,0.0,0.0,0.0,0.0,0.0,0.0,0.0,0.0,0.0,0.0,0.0,0.0,0.0,0.0,0.0,0.0,0.0,0.0,0.0,0.0,0.0,0.0,0.0,0.0,0.0,0.0,0.0,0.0,0.0,0.0,0.0,0.0,0.0,0.0,0.0,0.0,0.0,0.0,0.0,0.0,0.0,0.0,0.0,0.0,0.0,0.0,0.0,0.0,0.0,0.0,0.0,0.0,0.0,0.0,0.0,0.0,5.7188,5.8775,5.9137,5.9298,5.9298,5.9298,5.9201,5.8976,0.0,0.0,0.0,0.0,0.0,0.0,0.0,0.0,0.0,0.0,0.0,0.0,0.0,0.0,0.0,0.0,0.0,0.0,0.0,0.0,0.0,0.0,0.0,0.0,0.0,0.0,0.0,0.0,0.0,0.0,0.0,0.0,0.0,0.0,0.0,0.0,0.0,0.0,0.0,0.0,0.0,0.0,0.0,0.0,0.0,0.0,0.0,0.0,0.0,0.0,0.0,0.0,0.0,0.0,0.0,0.0,0.0,0.0,0.0,0.0,0.0,0.0,0.0,0.0,0.0,0.0,0.0,0.0,0.0,0.0,0.0,0.0,0.0,0.0,0.0,0.0,0.0,0.0,0.0,0.0,0.0,0.0,0.0,0.0,0.0,0.0,0.0,0.0,0.0,0.0,0.0,0.0,0.0,0.0,0.0,0.0,0.0,0.0,0.0,0.0,0.0,0.0,0.0,0.0,5.6804,5.7425,5.8578,5.9298,5.9298,5.9298,5.8751,5.7548,0.0,0.0,0.0,0.0,0.0,0.0,0.0,0.0,0.0,0.0,0.0,0.0,0.0,0.0]}]]]